Wetterdaten: Donnerstag, 12.01.2023
Datum Zeit Temp. 2m Temp +5 cm Feuchte A. Luftdruck Regen Wind Richtung Richtung Sonnenschein UV Solar Taupunkt Windchill Windben
12.01.2023 00:00 5,5 C 4,4 C 89 % 1016,4 hPa 0,0 l/m 30,6 km/h (5 Bft) S 180 0 min 0,0 UV-I 0 W/m 3,8 C -5,8 C 45,1 km/h (6 Bft)
12.01.2023 00:01 5,5 C 4,4 C 89 % 1016,3 hPa 0,0 l/m 37,0 km/h (5 Bft) S 180 0 min 0,0 UV-I 0 W/m 3,8 C -7,2 C 51,5 km/h (7 Bft)
12.01.2023 00:02 5,5 C 4,4 C 89 % 1016,4 hPa 0,0 l/m 30,6 km/h (5 Bft) S-SW 202 0 min 0,0 UV-I 0 W/m 3,8 C -5,8 C 38,6 km/h (5 Bft)
12.01.2023 00:03 5,6 C 4,4 C 89 % 1016,4 hPa 0,0 l/m 29,0 km/h (5 Bft) S-SW 202 0 min 0,0 UV-I 0 W/m 3,9 C -5,3 C 41,8 km/h (6 Bft)
12.01.2023 00:04 5,6 C 4,4 C 89 % 1016,4 hPa 0,0 l/m 20,9 km/h (4 Bft) S-SW 202 0 min 0,0 UV-I 0 W/m 3,9 C -2,7 C 29,0 km/h (5 Bft)
12.01.2023 00:05 5,6 C 4,4 C 89 % 1016,4 hPa 0,0 l/m 24,1 km/h (4 Bft) S-SW 202 0 min 0,0 UV-I 0 W/m 3,9 C -3,8 C 37,0 km/h (5 Bft)
12.01.2023 00:06 5,5 C 4,4 C 89 % 1016,3 hPa 0,0 l/m 25,7 km/h (4 Bft) S-SW 202 0 min 0,0 UV-I 0 W/m 3,8 C -4,5 C 38,6 km/h (5 Bft)
12.01.2023 00:07 5,5 C 4,4 C 89 % 1016,2 hPa 0,0 l/m 27,4 km/h (4 Bft) S-SW 202 0 min 0,0 UV-I 0 W/m 3,8 C -5,0 C 38,6 km/h (5 Bft)
12.01.2023 00:08 5,6 C 4,4 C 89 % 1016,3 hPa 0,0 l/m 24,1 km/h (4 Bft) S 180 0 min 0,0 UV-I 0 W/m 3,9 C -3,8 C 35,4 km/h (5 Bft)
12.01.2023 00:09 5,5 C 4,4 C 89 % 1016,3 hPa 0,0 l/m 25,7 km/h (4 Bft) S 180 0 min 0,0 UV-I 0 W/m 3,8 C -4,5 C 30,6 km/h (5 Bft)
12.01.2023 00:10 5,5 C 4,4 C 89 % 1016,3 hPa 0,0 l/m 25,7 km/h (4 Bft) S 180 0 min 0,0 UV-I 0 W/m 3,8 C -4,5 C 41,8 km/h (6 Bft)
12.01.2023 00:11 5,5 C 4,4 C 89 % 1016,2 hPa 0,0 l/m 24,1 km/h (4 Bft) S-SW 202 0 min 0,0 UV-I 0 W/m 3,8 C -4,0 C 38,6 km/h (5 Bft)
12.01.2023 00:12 5,5 C 4,4 C 89 % 1016,3 hPa 0,2 l/m 22,5 km/h (4 Bft) S 180 0 min 0,0 UV-I 0 W/m 3,8 C -3,4 C 30,6 km/h (5 Bft)
12.01.2023 00:13 5,5 C 4,4 C 89 % 1016,3 hPa 0,0 l/m 29,0 km/h (5 Bft) S-SW 202 0 min 0,0 UV-I 0 W/m 3,8 C -5,4 C 38,6 km/h (5 Bft)
12.01.2023 00:14 5,5 C 4,4 C 89 % 1016,2 hPa 0,0 l/m 20,9 km/h (4 Bft) S 180 0 min 0,0 UV-I 0 W/m 3,8 C -2,9 C 32,2 km/h (5 Bft)
12.01.2023 00:15 5,5 C 4,4 C 89 % 1016,2 hPa 0,0 l/m 29,0 km/h (5 Bft) S 180 0 min 0,0 UV-I 0 W/m 3,8 C -5,4 C 41,8 km/h (6 Bft)
12.01.2023 00:16 5,5 C 4,4 C 89 % 1016,1 hPa 0,0 l/m 30,6 km/h (5 Bft) S 180 0 min 0,0 UV-I 0 W/m 3,8 C -5,8 C 46,7 km/h (6 Bft)
12.01.2023 00:17 5,6 C 4,4 C 89 % 1016,2 hPa 0,0 l/m 27,4 km/h (4 Bft) S-SW 202 0 min 0,0 UV-I 0 W/m 3,9 C -4,8 C 40,2 km/h (6 Bft)
12.01.2023 00:18 5,5 C 4,4 C 89 % 1016,1 hPa 0,0 l/m 33,8 km/h (5 Bft) S 180 0 min 0,0 UV-I 0 W/m 3,8 C -6,6 C 54,7 km/h (7 Bft)
12.01.2023 00:19 5,6 C 4,4 C 89 % 1016,1 hPa 0,0 l/m 24,1 km/h (4 Bft) S 180 0 min 0,0 UV-I 0 W/m 3,9 C -3,8 C 32,2 km/h (5 Bft)
12.01.2023 00:20 5,6 C 4,4 C 89 % 1016,1 hPa 0,0 l/m 24,1 km/h (4 Bft) S-SW 202 0 min 0,0 UV-I 0 W/m 3,9 C -3,8 C 33,8 km/h (5 Bft)
12.01.2023 00:21 5,6 C 4,4 C 89 % 1016,1 hPa 0,0 l/m 20,9 km/h (4 Bft) S 180 0 min 0,0 UV-I 0 W/m 3,9 C -2,7 C 29,0 km/h (5 Bft)
12.01.2023 00:22 5,6 C 4,4 C 89 % 1016,2 hPa 0,0 l/m 24,1 km/h (4 Bft) S 180 0 min 0,0 UV-I 0 W/m 3,9 C -3,8 C 32,2 km/h (5 Bft)
12.01.2023 00:23 5,6 C 4,4 C 89 % 1016,1 hPa 0,0 l/m 20,9 km/h (4 Bft) S-SW 202 0 min 0,0 UV-I 0 W/m 3,9 C -2,7 C 27,4 km/h (4 Bft)
12.01.2023 00:24 5,6 C 4,4 C 89 % 1016,1 hPa 0,0 l/m 22,5 km/h (4 Bft) S-SW 202 0 min 0,0 UV-I 0 W/m 3,9 C -3,3 C 40,2 km/h (6 Bft)
12.01.2023 00:25 5,6 C 4,4 C 89 % 1016,1 hPa 0,0 l/m 27,4 km/h (4 Bft) S-SW 202 0 min 0,0 UV-I 0 W/m 3,9 C -4,8 C 35,4 km/h (5 Bft)
12.01.2023 00:26 5,5 C 4,4 C 89 % 1016,2 hPa 0,0 l/m 20,9 km/h (4 Bft) S 180 0 min 0,0 UV-I 0 W/m 3,8 C -2,9 C 27,4 km/h (4 Bft)
12.01.2023 00:27 5,6 C 4,4 C 89 % 1016,1 hPa 0,0 l/m 22,5 km/h (4 Bft) S-SW 202 0 min 0,0 UV-I 0 W/m 3,9 C -3,3 C 35,4 km/h (5 Bft)
12.01.2023 00:28 5,6 C 4,4 C 89 % 1016,2 hPa 0,0 l/m 27,4 km/h (4 Bft) S 180 0 min 0,0 UV-I 0 W/m 3,9 C -4,8 C 48,3 km/h (6 Bft)
12.01.2023 00:29 5,5 C 4,4 C 89 % 1016,2 hPa 0,0 l/m 22,5 km/h (4 Bft) S-SW 202 0 min 0,0 UV-I 0 W/m 3,8 C -3,4 C 37,0 km/h (5 Bft)
12.01.2023 00:30 5,6 C 4,4 C 89 % 1016,2 hPa 0,0 l/m 20,9 km/h (4 Bft) S-SW 202 0 min 0,0 UV-I 0 W/m 3,9 C -2,7 C 43,5 km/h (6 Bft)
12.01.2023 00:31 5,6 C 4,4 C 89 % 1016,3 hPa 0,0 l/m 27,4 km/h (4 Bft) S 180 0 min 0,0 UV-I 0 W/m 3,9 C -4,8 C 38,6 km/h (5 Bft)
12.01.2023 00:32 5,5 C 4,4 C 89 % 1016,1 hPa 0,0 l/m 25,7 km/h (4 Bft) S-SW 202 0 min 0,0 UV-I 0 W/m 3,8 C -4,5 C 35,4 km/h (5 Bft)
12.01.2023 00:33 5,6 C 4,4 C 89 % 1016,2 hPa 0,0 l/m 25,7 km/h (4 Bft) S 180 0 min 0,0 UV-I 0 W/m 3,9 C -4,3 C 33,8 km/h (5 Bft)
12.01.2023 00:34 5,5 C 4,4 C 89 % 1016,1 hPa 0,0 l/m 25,7 km/h (4 Bft) S-SW 202 0 min 0,0 UV-I 0 W/m 3,8 C -4,5 C 33,8 km/h (5 Bft)
12.01.2023 00:35 5,5 C 4,4 C 89 % 1016,2 hPa 0,0 l/m 24,1 km/h (4 Bft) S 180 0 min 0,0 UV-I 0 W/m 3,8 C -4,0 C 37,0 km/h (5 Bft)
12.01.2023 00:36 5,5 C 4,4 C 89 % 1016,1 hPa 0,0 l/m 33,8 km/h (5 Bft) S 180 0 min 0,0 UV-I 0 W/m 3,8 C -6,6 C 41,8 km/h (6 Bft)
12.01.2023 00:37 5,6 C 4,4 C 89 % 1016,1 hPa 0,2 l/m 29,0 km/h (5 Bft) S-SW 202 0 min 0,0 UV-I 0 W/m 3,9 C -5,3 C 43,5 km/h (6 Bft)
12.01.2023 00:38 5,6 C 4,4 C 89 % 1016,0 hPa 0,0 l/m 24,1 km/h (4 Bft) S-SW 202 0 min 0,0 UV-I 0 W/m 3,9 C -3,8 C 35,4 km/h (5 Bft)
12.01.2023 00:39 5,5 C 4,4 C 89 % 1016,2 hPa 0,0 l/m 19,3 km/h (3 Bft) S 180 0 min 0,0 UV-I 0 W/m 3,8 C -2,2 C 25,7 km/h (4 Bft)
12.01.2023 00:40 5,6 C 4,4 C 89 % 1016,1 hPa 0,0 l/m 22,5 km/h (4 Bft) S-SW 202 0 min 0,0 UV-I 0 W/m 3,9 C -3,3 C 30,6 km/h (5 Bft)
12.01.2023 00:41 5,6 C 4,4 C 89 % 1016,2 hPa 0,0 l/m 24,1 km/h (4 Bft) S 180 0 min 0,0 UV-I 0 W/m 3,9 C -3,8 C 41,8 km/h (6 Bft)
12.01.2023 00:42 5,6 C 4,4 C 89 % 1016,1 hPa 0,0 l/m 27,4 km/h (4 Bft) S 180 0 min 0,0 UV-I 0 W/m 3,9 C -4,8 C 41,8 km/h (6 Bft)
12.01.2023 00:43 5,6 C 4,4 C 89 % 1016,1 hPa 0,0 l/m 29,0 km/h (5 Bft) S-SW 202 0 min 0,0 UV-I 0 W/m 3,9 C -5,3 C 51,5 km/h (7 Bft)
12.01.2023 00:44 5,5 C 4,4 C 89 % 1016,1 hPa 0,0 l/m 20,9 km/h (4 Bft) S-SW 202 0 min 0,0 UV-I 0 W/m 3,8 C -2,9 C 27,4 km/h (4 Bft)
12.01.2023 00:45 5,6 C 4,4 C 89 % 1016,0 hPa 0,0 l/m 19,3 km/h (3 Bft) S 180 0 min 0,0 UV-I 0 W/m 3,9 C -2,1 C 30,6 km/h (5 Bft)
12.01.2023 00:46 5,5 C 4,4 C 89 % 1016,1 hPa 0,0 l/m 24,1 km/h (4 Bft) S 180 0 min 0,0 UV-I 0 W/m 3,8 C -4,0 C 35,4 km/h (5 Bft)
12.01.2023 00:47 5,5 C 4,4 C 89 % 1016,1 hPa 0,0 l/m 22,5 km/h (4 Bft) S-SW 202 0 min 0,0 UV-I 0 W/m 3,8 C -3,4 C 33,8 km/h (5 Bft)
12.01.2023 00:48 5,5 C 4,4 C 89 % 1016,0 hPa 0,0 l/m 32,2 km/h (5 Bft) S 180 0 min 0,0 UV-I 0 W/m 3,8 C -6,2 C 46,7 km/h (6 Bft)
12.01.2023 00:49 5,5 C 4,4 C 89 % 1016,0 hPa 0,0 l/m 25,7 km/h (4 Bft) S 180 0 min 0,0 UV-I 0 W/m 3,8 C -4,5 C 30,6 km/h (5 Bft)
12.01.2023 00:50 5,6 C 4,4 C 89 % 1015,9 hPa 0,2 l/m 33,8 km/h (5 Bft) S-SW 202 0 min 0,0 UV-I 0 W/m 3,9 C -6,4 C 46,7 km/h (6 Bft)
12.01.2023 00:51 5,6 C 4,4 C 89 % 1016,0 hPa 0,0 l/m 22,5 km/h (4 Bft) S 180 0 min 0,0 UV-I 0 W/m 3,9 C -3,3 C 35,4 km/h (5 Bft)
12.01.2023 00:52 5,6 C 4,4 C 89 % 1015,9 hPa 0,0 l/m 22,5 km/h (4 Bft) S-SW 202 0 min 0,0 UV-I 0 W/m 3,9 C -3,3 C 30,6 km/h (5 Bft)
12.01.2023 00:53 5,6 C 4,4 C 89 % 1016,0 hPa 0,0 l/m 19,3 km/h (3 Bft) S 180 0 min 0,0 UV-I 0 W/m 3,9 C -2,1 C 32,2 km/h (5 Bft)
12.01.2023 00:54 5,6 C 4,4 C 89 % 1016,0 hPa 0,0 l/m 20,9 km/h (4 Bft) S-SW 202 0 min 0,0 UV-I 0 W/m 3,9 C -2,7 C 27,4 km/h (4 Bft)
12.01.2023 00:55 5,6 C 4,4 C 89 % 1015,9 hPa 0,0 l/m 30,6 km/h (5 Bft) S-SW 202 0 min 0,0 UV-I 0 W/m 3,9 C -5,7 C 43,5 km/h (6 Bft)
12.01.2023 00:56 5,6 C 4,4 C 89 % 1016,0 hPa 0,0 l/m 29,0 km/h (5 Bft) S 180 0 min 0,0 UV-I 0 W/m 3,9 C -5,3 C 35,4 km/h (5 Bft)
12.01.2023 00:57 5,6 C 4,4 C 89 % 1015,8 hPa 0,0 l/m 25,7 km/h (4 Bft) S-SW 202 0 min 0,0 UV-I 0 W/m 3,9 C -4,3 C 37,0 km/h (5 Bft)
12.01.2023 00:58 5,6 C 4,4 C 89 % 1015,8 hPa 0,0 l/m 27,4 km/h (4 Bft) S 180 0 min 0,0 UV-I 0 W/m 3,9 C -4,8 C 40,2 km/h (6 Bft)
12.01.2023 00:59 5,6 C 4,4 C 89 % 1015,7 hPa 0,0 l/m 27,4 km/h (4 Bft) S-SW 202 0 min 0,0 UV-I 0 W/m 3,9 C -4,8 C 35,4 km/h (5 Bft)
12.01.2023 01:00 5,6 C 4,4 C 89 % 1015,7 hPa 0,0 l/m 24,1 km/h (4 Bft) S 180 0 min 0,0 UV-I 0 W/m 3,9 C -3,8 C 30,6 km/h (5 Bft)
12.01.2023 01:01 5,6 C 4,4 C 89 % 1015,7 hPa 0,0 l/m 22,5 km/h (4 Bft) S-SW 202 0 min 0,0 UV-I 0 W/m 3,9 C -3,3 C 29,0 km/h (5 Bft)
12.01.2023 01:02 5,6 C 4,4 C 89 % 1015,8 hPa 0,0 l/m 30,6 km/h (5 Bft) S-SW 202 0 min 0,0 UV-I 0 W/m 3,9 C -5,7 C 43,5 km/h (6 Bft)
12.01.2023 01:03 5,6 C 4,4 C 89 % 1015,8 hPa 0,0 l/m 25,7 km/h (4 Bft) S-SW 202 0 min 0,0 UV-I 0 W/m 3,9 C -4,3 C 37,0 km/h (5 Bft)
12.01.2023 01:04 5,6 C 4,4 C 89 % 1015,8 hPa 0,0 l/m 27,4 km/h (4 Bft) S 180 0 min 0,0 UV-I 0 W/m 3,9 C -4,8 C 38,6 km/h (5 Bft)
12.01.2023 01:05 5,6 C 4,4 C 89 % 1015,6 hPa 0,0 l/m 25,7 km/h (4 Bft) S-SW 202 0 min 0,0 UV-I 0 W/m 3,9 C -4,3 C 35,4 km/h (5 Bft)
12.01.2023 01:06 5,6 C 4,4 C 89 % 1015,8 hPa 0,0 l/m 29,0 km/h (5 Bft) S-SW 202 0 min 0,0 UV-I 0 W/m 3,9 C -5,3 C 40,2 km/h (6 Bft)
12.01.2023 01:07 5,6 C 4,4 C 89 % 1015,7 hPa 0,0 l/m 33,8 km/h (5 Bft) S-SW 202 0 min 0,0 UV-I 0 W/m 3,9 C -6,4 C 49,9 km/h (6 Bft)
12.01.2023 01:08 5,6 C 4,4 C 89 % 1015,8 hPa 0,0 l/m 25,7 km/h (4 Bft) S 180 0 min 0,0 UV-I 0 W/m 3,9 C -4,3 C 37,0 km/h (5 Bft)
12.01.2023 01:09 5,6 C 4,4 C 89 % 1015,8 hPa 0,0 l/m 29,0 km/h (5 Bft) S 180 0 min 0,0 UV-I 0 W/m 3,9 C -5,3 C 37,0 km/h (5 Bft)
12.01.2023 01:10 5,6 C 4,4 C 89 % 1015,8 hPa 0,0 l/m 29,0 km/h (5 Bft) S-SW 202 0 min 0,0 UV-I 0 W/m 3,9 C -5,3 C 40,2 km/h (6 Bft)
12.01.2023 01:11 5,6 C 4,4 C 89 % 1015,8 hPa 0,0 l/m 27,4 km/h (4 Bft) SW 225 0 min 0,0 UV-I 0 W/m 3,9 C -4,8 C 41,8 km/h (6 Bft)
12.01.2023 01:12 5,6 C 4,4 C 89 % 1015,8 hPa 0,0 l/m 24,1 km/h (4 Bft) S-SW 202 0 min 0,0 UV-I 0 W/m 3,9 C -3,8 C 33,8 km/h (5 Bft)
12.01.2023 01:13 5,6 C 4,4 C 89 % 1015,8 hPa 0,0 l/m 27,4 km/h (4 Bft) S 180 0 min 0,0 UV-I 0 W/m 3,9 C -4,8 C 37,0 km/h (5 Bft)
12.01.2023 01:14 5,6 C 4,4 C 89 % 1015,8 hPa 0,0 l/m 20,9 km/h (4 Bft) S-SW 202 0 min 0,0 UV-I 0 W/m 3,9 C -2,7 C 32,2 km/h (5 Bft)
12.01.2023 01:15 5,6 C 4,4 C 89 % 1015,8 hPa 0,0 l/m 27,4 km/h (4 Bft) S-SW 202 0 min 0,0 UV-I 0 W/m 3,9 C -4,8 C 40,2 km/h (6 Bft)
12.01.2023 01:16 5,6 C 4,4 C 89 % 1015,8 hPa 0,0 l/m 25,7 km/h (4 Bft) S-SW 202 0 min 0,0 UV-I 0 W/m 3,9 C -4,3 C 32,2 km/h (5 Bft)
12.01.2023 01:17 5,6 C 4,4 C 89 % 1015,8 hPa 0,0 l/m 25,7 km/h (4 Bft) S-SW 202 0 min 0,0 UV-I 0 W/m 3,9 C -4,3 C 32,2 km/h (5 Bft)
12.01.2023 01:18 5,6 C 4,4 C 89 % 1015,7 hPa 0,0 l/m 24,1 km/h (4 Bft) S 180 0 min 0,0 UV-I 0 W/m 3,9 C -3,8 C 35,4 km/h (5 Bft)
12.01.2023 01:19 5,6 C 4,4 C 89 % 1015,7 hPa 0,0 l/m 24,1 km/h (4 Bft) S 180 0 min 0,0 UV-I 0 W/m 3,9 C -3,8 C 38,6 km/h (5 Bft)
12.01.2023 01:20 5,6 C 4,4 C 89 % 1015,7 hPa 0,0 l/m 27,4 km/h (4 Bft) S 180 0 min 0,0 UV-I 0 W/m 3,9 C -4,8 C 40,2 km/h (6 Bft)
12.01.2023 01:21 5,6 C 4,4 C 89 % 1015,6 hPa 0,0 l/m 27,4 km/h (4 Bft) S-SW 202 0 min 0,0 UV-I 0 W/m 3,9 C -4,8 C 33,8 km/h (5 Bft)
12.01.2023 01:22 5,6 C 4,4 C 89 % 1015,8 hPa 0,0 l/m 25,7 km/h (4 Bft) S-SW 202 0 min 0,0 UV-I 0 W/m 3,9 C -4,3 C 33,8 km/h (5 Bft)
12.01.2023 01:23 5,6 C 4,4 C 89 % 1015,8 hPa 0,0 l/m 30,6 km/h (5 Bft) S-SW 202 0 min 0,0 UV-I 0 W/m 3,9 C -5,7 C 40,2 km/h (6 Bft)
12.01.2023 01:24 5,6 C 4,4 C 89 % 1015,7 hPa 0,2 l/m 24,1 km/h (4 Bft) S 180 0 min 0,0 UV-I 0 W/m 3,9 C -3,8 C 33,8 km/h (5 Bft)
12.01.2023 01:25 5,6 C 4,4 C 89 % 1015,7 hPa 0,0 l/m 24,1 km/h (4 Bft) S 180 0 min 0,0 UV-I 0 W/m 3,9 C -3,8 C 35,4 km/h (5 Bft)
12.01.2023 01:26 5,6 C 4,4 C 89 % 1015,7 hPa 0,0 l/m 22,5 km/h (4 Bft) S 180 0 min 0,0 UV-I 0 W/m 3,9 C -3,3 C 32,2 km/h (5 Bft)
12.01.2023 01:27 5,6 C 4,4 C 89 % 1015,7 hPa 0,0 l/m 19,3 km/h (3 Bft) S-SW 202 0 min 0,0 UV-I 0 W/m 3,9 C -2,1 C 30,6 km/h (5 Bft)
12.01.2023 01:28 5,6 C 4,4 C 89 % 1015,7 hPa 0,0 l/m 29,0 km/h (5 Bft) S-SW 202 0 min 0,0 UV-I 0 W/m 3,9 C -5,3 C 38,6 km/h (5 Bft)
12.01.2023 01:29 5,6 C 4,4 C 90 % 1015,6 hPa 0,0 l/m 29,0 km/h (5 Bft) S 180 0 min 0,0 UV-I 0 W/m 4,1 C -5,3 C 46,7 km/h (6 Bft)
12.01.2023 01:30 5,6 C 4,4 C 90 % 1015,6 hPa 0,0 l/m 29,0 km/h (5 Bft) S 180 0 min 0,0 UV-I 0 W/m 4,1 C -5,3 C 37,0 km/h (5 Bft)
12.01.2023 01:31 5,6 C 4,4 C 90 % 1015,6 hPa 0,0 l/m 24,1 km/h (4 Bft) S-SW 202 0 min 0,0 UV-I 0 W/m 4,1 C -3,8 C 38,6 km/h (5 Bft)
12.01.2023 01:32 5,6 C 4,4 C 90 % 1015,6 hPa 0,0 l/m 29,0 km/h (5 Bft) S-SW 202 0 min 0,0 UV-I 0 W/m 4,1 C -5,3 C 43,5 km/h (6 Bft)
12.01.2023 01:33 5,6 C 4,4 C 90 % 1015,7 hPa 0,0 l/m 20,9 km/h (4 Bft) S 180 0 min 0,0 UV-I 0 W/m 4,1 C -2,7 C 25,7 km/h (4 Bft)
12.01.2023 01:34 5,6 C 4,4 C 90 % 1015,7 hPa 0,2 l/m 25,7 km/h (4 Bft) S 180 0 min 0,0 UV-I 0 W/m 4,1 C -4,3 C 46,7 km/h (6 Bft)
12.01.2023 01:35 5,6 C 4,4 C 90 % 1015,7 hPa 0,0 l/m 25,7 km/h (4 Bft) S-SW 202 0 min 0,0 UV-I 0 W/m 4,1 C -4,3 C 37,0 km/h (5 Bft)
12.01.2023 01:36 5,6 C 4,4 C 90 % 1015,7 hPa 0,0 l/m 22,5 km/h (4 Bft) S 180 0 min 0,0 UV-I 0 W/m 4,1 C -3,3 C 33,8 km/h (5 Bft)
12.01.2023 01:37 5,6 C 4,4 C 90 % 1015,6 hPa 0,0 l/m 25,7 km/h (4 Bft) S 180 0 min 0,0 UV-I 0 W/m 4,1 C -4,3 C 35,4 km/h (5 Bft)
12.01.2023 01:38 5,6 C 4,4 C 90 % 1015,6 hPa 0,0 l/m 27,4 km/h (4 Bft) S 180 0 min 0,0 UV-I 0 W/m 4,1 C -4,8 C 37,0 km/h (5 Bft)
12.01.2023 01:39 5,6 C 4,4 C 90 % 1015,6 hPa 0,0 l/m 24,1 km/h (4 Bft) S-SW 202 0 min 0,0 UV-I 0 W/m 4,1 C -3,8 C 37,0 km/h (5 Bft)
12.01.2023 01:40 5,6 C 4,4 C 90 % 1015,7 hPa 0,0 l/m 19,3 km/h (3 Bft) S 180 0 min 0,0 UV-I 0 W/m 4,1 C -2,1 C 24,1 km/h (4 Bft)
12.01.2023 01:41 5,6 C 4,4 C 90 % 1015,6 hPa 0,0 l/m 20,9 km/h (4 Bft) S-SW 202 0 min 0,0 UV-I 0 W/m 4,1 C -2,7 C 33,8 km/h (5 Bft)
12.01.2023 01:42 5,6 C 4,4 C 90 % 1015,7 hPa 0,0 l/m 19,3 km/h (3 Bft) S-SW 202 0 min 0,0 UV-I 0 W/m 4,1 C -2,1 C 25,7 km/h (4 Bft)
12.01.2023 01:43 5,6 C 4,4 C 90 % 1015,7 hPa 0,0 l/m 33,8 km/h (5 Bft) S-SW 202 0 min 0,0 UV-I 0 W/m 4,1 C -6,4 C 45,1 km/h (6 Bft)
12.01.2023 01:44 5,6 C 4,4 C 90 % 1015,7 hPa 0,0 l/m 27,4 km/h (4 Bft) S-SW 202 0 min 0,0 UV-I 0 W/m 4,1 C -4,8 C 41,8 km/h (6 Bft)
12.01.2023 01:45 5,6 C 4,4 C 90 % 1015,7 hPa 0,0 l/m 29,0 km/h (5 Bft) S 180 0 min 0,0 UV-I 0 W/m 4,1 C -5,3 C 46,7 km/h (6 Bft)
12.01.2023 01:46 5,6 C 4,4 C 90 % 1015,7 hPa 0,0 l/m 30,6 km/h (5 Bft) S-SW 202 0 min 0,0 UV-I 0 W/m 4,1 C -5,7 C 37,0 km/h (5 Bft)
12.01.2023 01:47 5,6 C 4,4 C 90 % 1015,6 hPa 0,0 l/m 30,6 km/h (5 Bft) S-SW 202 0 min 0,0 UV-I 0 W/m 4,1 C -5,7 C 40,2 km/h (6 Bft)
12.01.2023 01:48 5,6 C 4,4 C 90 % 1015,8 hPa 0,0 l/m 25,7 km/h (4 Bft) S 180 0 min 0,0 UV-I 0 W/m 4,1 C -4,3 C 38,6 km/h (5 Bft)
12.01.2023 01:49 5,6 C 4,4 C 90 % 1015,7 hPa 0,0 l/m 25,7 km/h (4 Bft) S-SW 202 0 min 0,0 UV-I 0 W/m 4,1 C -4,3 C 35,4 km/h (5 Bft)
12.01.2023 01:50 5,6 C 4,4 C 90 % 1015,8 hPa 0,0 l/m 24,1 km/h (4 Bft) S 180 0 min 0,0 UV-I 0 W/m 4,1 C -3,8 C 33,8 km/h (5 Bft)
12.01.2023 01:51 5,6 C 4,4 C 90 % 1015,7 hPa 0,2 l/m 20,9 km/h (4 Bft) S-SW 202 0 min 0,0 UV-I 0 W/m 4,1 C -2,7 C 41,8 km/h (6 Bft)
12.01.2023 01:52 5,6 C 4,4 C 90 % 1015,7 hPa 0,0 l/m 32,2 km/h (5 Bft) S 180 0 min 0,0 UV-I 0 W/m 4,1 C -6,1 C 45,1 km/h (6 Bft)
12.01.2023 01:53 5,7 C 4,4 C 90 % 1015,7 hPa 0,0 l/m 25,7 km/h (4 Bft) S-SW 202 0 min 0,0 UV-I 0 W/m 4,2 C -4,2 C 43,5 km/h (6 Bft)
12.01.2023 01:54 5,6 C 4,4 C 90 % 1015,6 hPa 0,0 l/m 29,0 km/h (5 Bft) S 180 0 min 0,0 UV-I 0 W/m 4,1 C -5,3 C 38,6 km/h (5 Bft)
12.01.2023 01:55 5,6 C 4,4 C 90 % 1015,6 hPa 0,0 l/m 24,1 km/h (4 Bft) S 180 0 min 0,0 UV-I 0 W/m 4,1 C -3,8 C 33,8 km/h (5 Bft)
12.01.2023 01:56 5,7 C 4,4 C 90 % 1015,7 hPa 0,0 l/m 24,1 km/h (4 Bft) S 180 0 min 0,0 UV-I 0 W/m 4,2 C -3,7 C 35,4 km/h (5 Bft)
12.01.2023 01:57 5,7 C 4,4 C 90 % 1015,8 hPa 0,0 l/m 20,9 km/h (4 Bft) S-SW 202 0 min 0,0 UV-I 0 W/m 4,2 C -2,6 C 29,0 km/h (5 Bft)
12.01.2023 01:58 5,6 C 4,4 C 90 % 1015,7 hPa 0,0 l/m 19,3 km/h (3 Bft) S-SW 202 0 min 0,0 UV-I 0 W/m 4,1 C -2,1 C 29,0 km/h (5 Bft)
12.01.2023 01:59 5,7 C 4,4 C 90 % 1015,7 hPa 0,0 l/m 27,4 km/h (4 Bft) S-SW 202 0 min 0,0 UV-I 0 W/m 4,2 C -4,7 C 43,5 km/h (6 Bft)
12.01.2023 02:00 5,6 C 4,4 C 90 % 1015,7 hPa 0,0 l/m 27,4 km/h (4 Bft) S-SW 202 0 min 0,0 UV-I 0 W/m 4,1 C -4,8 C 38,6 km/h (5 Bft)
12.01.2023 02:01 5,6 C 5,0 C 90 % 1015,8 hPa 0,0 l/m 24,1 km/h (4 Bft) S-SW 202 0 min 0,0 UV-I 0 W/m 4,1 C -3,8 C 30,6 km/h (5 Bft)
12.01.2023 02:02 5,6 C 5,0 C 90 % 1015,7 hPa 0,0 l/m 22,5 km/h (4 Bft) S 180 0 min 0,0 UV-I 0 W/m 4,1 C -3,3 C 41,8 km/h (6 Bft)
12.01.2023 02:03 5,6 C 5,0 C 90 % 1015,6 hPa 0,2 l/m 24,1 km/h (4 Bft) S 180 0 min 0,0 UV-I 0 W/m 4,1 C -3,8 C 38,6 km/h (5 Bft)
12.01.2023 02:04 5,6 C 5,0 C 90 % 1015,6 hPa 0,0 l/m 29,0 km/h (5 Bft) S-SW 202 0 min 0,0 UV-I 0 W/m 4,1 C -5,3 C 41,8 km/h (6 Bft)
12.01.2023 02:05 5,6 C 5,0 C 90 % 1015,6 hPa 0,0 l/m 24,1 km/h (4 Bft) S-SW 202 0 min 0,0 UV-I 0 W/m 4,1 C -3,8 C 32,2 km/h (5 Bft)
12.01.2023 02:06 5,7 C 5,0 C 90 % 1015,6 hPa 0,0 l/m 20,9 km/h (4 Bft) S 180 0 min 0,0 UV-I 0 W/m 4,2 C -2,6 C 29,0 km/h (5 Bft)
12.01.2023 02:07 5,7 C 5,0 C 90 % 1015,6 hPa 0,0 l/m 24,1 km/h (4 Bft) S 180 0 min 0,0 UV-I 0 W/m 4,2 C -3,7 C 29,0 km/h (5 Bft)
12.01.2023 02:08 5,7 C 5,0 C 90 % 1015,7 hPa 0,0 l/m 29,0 km/h (5 Bft) S-SW 202 0 min 0,0 UV-I 0 W/m 4,2 C -5,1 C 38,6 km/h (5 Bft)
12.01.2023 02:09 5,7 C 5,0 C 90 % 1015,6 hPa 0,0 l/m 24,1 km/h (4 Bft) S 180 0 min 0,0 UV-I 0 W/m 4,2 C -3,7 C 32,2 km/h (5 Bft)
12.01.2023 02:10 5,7 C 5,0 C 90 % 1015,5 hPa 0,0 l/m 32,2 km/h (5 Bft) S-SW 202 0 min 0,0 UV-I 0 W/m 4,2 C -5,9 C 38,6 km/h (5 Bft)
12.01.2023 02:11 5,6 C 5,0 C 90 % 1015,5 hPa 0,0 l/m 33,8 km/h (5 Bft) S 180 0 min 0,0 UV-I 0 W/m 4,1 C -6,4 C 41,8 km/h (6 Bft)
12.01.2023 02:12 5,7 C 5,0 C 90 % 1015,4 hPa 0,0 l/m 27,4 km/h (4 Bft) S 180 0 min 0,0 UV-I 0 W/m 4,2 C -4,7 C 41,8 km/h (6 Bft)
12.01.2023 02:13 5,7 C 5,0 C 90 % 1015,5 hPa 0,0 l/m 29,0 km/h (5 Bft) SW 225 0 min 0,0 UV-I 0 W/m 4,2 C -5,1 C 35,4 km/h (5 Bft)
12.01.2023 02:14 5,7 C 5,0 C 90 % 1015,6 hPa 0,0 l/m 27,4 km/h (4 Bft) S-SW 202 0 min 0,0 UV-I 0 W/m 4,2 C -4,7 C 38,6 km/h (5 Bft)
12.01.2023 02:15 5,7 C 5,0 C 90 % 1015,5 hPa 0,0 l/m 22,5 km/h (4 Bft) S-SW 202 0 min 0,0 UV-I 0 W/m 4,2 C -3,2 C 30,6 km/h (5 Bft)
12.01.2023 02:16 5,7 C 5,0 C 90 % 1015,5 hPa 0,0 l/m 20,9 km/h (4 Bft) S-SW 202 0 min 0,0 UV-I 0 W/m 4,2 C -2,6 C 29,0 km/h (5 Bft)
12.01.2023 02:17 5,7 C 5,0 C 90 % 1015,5 hPa 0,0 l/m 19,3 km/h (3 Bft) S 180 0 min 0,0 UV-I 0 W/m 4,2 C -2,0 C 24,1 km/h (4 Bft)
12.01.2023 02:18 5,7 C 5,0 C 90 % 1015,5 hPa 0,0 l/m 22,5 km/h (4 Bft) S-SW 202 0 min 0,0 UV-I 0 W/m 4,2 C -3,2 C 32,2 km/h (5 Bft)
12.01.2023 02:19 5,7 C 5,0 C 90 % 1015,4 hPa 0,0 l/m 17,7 km/h (3 Bft) S 180 0 min 0,0 UV-I 0 W/m 4,2 C -1,3 C 29,0 km/h (5 Bft)
12.01.2023 02:20 5,7 C 5,0 C 90 % 1015,4 hPa 0,0 l/m 19,3 km/h (3 Bft) S-SW 202 0 min 0,0 UV-I 0 W/m 4,2 C -2,0 C 30,6 km/h (5 Bft)
12.01.2023 02:21 5,7 C 5,0 C 90 % 1015,4 hPa 0,0 l/m 17,7 km/h (3 Bft) S-SW 202 0 min 0,0 UV-I 0 W/m 4,2 C -1,3 C 25,7 km/h (4 Bft)
12.01.2023 02:22 5,7 C 5,0 C 90 % 1015,5 hPa 0,0 l/m 19,3 km/h (3 Bft) S-SW 202 0 min 0,0 UV-I 0 W/m 4,2 C -2,0 C 25,7 km/h (4 Bft)
12.01.2023 02:23 5,7 C 5,0 C 90 % 1015,5 hPa 0,0 l/m 22,5 km/h (4 Bft) S-SW 202 0 min 0,0 UV-I 0 W/m 4,2 C -3,2 C 27,4 km/h (4 Bft)
12.01.2023 02:24 5,7 C 5,0 C 90 % 1015,5 hPa 0,0 l/m 17,7 km/h (3 Bft) S 180 0 min 0,0 UV-I 0 W/m 4,2 C -1,3 C 30,6 km/h (5 Bft)
12.01.2023 02:25 5,7 C 5,0 C 90 % 1015,5 hPa 0,0 l/m 19,3 km/h (3 Bft) S 180 0 min 0,0 UV-I 0 W/m 4,2 C -2,0 C 27,4 km/h (4 Bft)
12.01.2023 02:26 5,7 C 5,0 C 90 % 1015,6 hPa 0,0 l/m 22,5 km/h (4 Bft) S-SW 202 0 min 0,0 UV-I 0 W/m 4,2 C -3,2 C 35,4 km/h (5 Bft)
12.01.2023 02:27 5,7 C 5,0 C 90 % 1015,6 hPa 0,0 l/m 25,7 km/h (4 Bft) S 180 0 min 0,0 UV-I 0 W/m 4,2 C -4,2 C 45,1 km/h (6 Bft)
12.01.2023 02:28 5,7 C 5,0 C 90 % 1015,6 hPa 0,0 l/m 25,7 km/h (4 Bft) S 180 0 min 0,0 UV-I 0 W/m 4,2 C -4,2 C 32,2 km/h (5 Bft)
12.01.2023 02:29 5,7 C 5,0 C 90 % 1015,5 hPa 0,0 l/m 25,7 km/h (4 Bft) S 180 0 min 0,0 UV-I 0 W/m 4,2 C -4,2 C 33,8 km/h (5 Bft)
12.01.2023 02:30 5,7 C 5,0 C 90 % 1015,5 hPa 0,0 l/m 25,7 km/h (4 Bft) S 180 0 min 0,0 UV-I 0 W/m 4,2 C -4,2 C 37,0 km/h (5 Bft)
12.01.2023 02:31 5,7 C 5,0 C 90 % 1015,5 hPa 0,0 l/m 25,7 km/h (4 Bft) S 180 0 min 0,0 UV-I 0 W/m 4,2 C -4,2 C 37,0 km/h (5 Bft)
12.01.2023 02:32 5,7 C 5,0 C 90 % 1015,5 hPa 0,0 l/m 20,9 km/h (4 Bft) S-SW 202 0 min 0,0 UV-I 0 W/m 4,2 C -2,6 C 32,2 km/h (5 Bft)
12.01.2023 02:33 5,7 C 5,0 C 90 % 1015,5 hPa 0,0 l/m 22,5 km/h (4 Bft) S 180 0 min 0,0 UV-I 0 W/m 4,2 C -3,2 C 33,8 km/h (5 Bft)
12.01.2023 02:34 5,7 C 5,0 C 90 % 1015,5 hPa 0,0 l/m 20,9 km/h (4 Bft) S 180 0 min 0,0 UV-I 0 W/m 4,2 C -2,6 C 32,2 km/h (5 Bft)
12.01.2023 02:35 5,7 C 5,0 C 90 % 1015,6 hPa 0,2 l/m 19,3 km/h (3 Bft) S-SW 202 0 min 0,0 UV-I 0 W/m 4,2 C -2,0 C 33,8 km/h (5 Bft)
12.01.2023 02:36 5,7 C 5,0 C 90 % 1015,5 hPa 0,0 l/m 22,5 km/h (4 Bft) S 180 0 min 0,0 UV-I 0 W/m 4,2 C -3,2 C 30,6 km/h (5 Bft)
12.01.2023 02:37 5,7 C 5,0 C 90 % 1015,5 hPa 0,0 l/m 20,9 km/h (4 Bft) S 180 0 min 0,0 UV-I 0 W/m 4,2 C -2,6 C 32,2 km/h (5 Bft)
12.01.2023 02:38 5,7 C 5,0 C 90 % 1015,6 hPa 0,0 l/m 24,1 km/h (4 Bft) S-SW 202 0 min 0,0 UV-I 0 W/m 4,2 C -3,7 C 32,2 km/h (5 Bft)
12.01.2023 02:39 5,7 C 5,0 C 90 % 1015,5 hPa 0,0 l/m 22,5 km/h (4 Bft) S 180 0 min 0,0 UV-I 0 W/m 4,2 C -3,2 C 33,8 km/h (5 Bft)
12.01.2023 02:40 5,7 C 5,0 C 90 % 1015,5 hPa 0,0 l/m 25,7 km/h (4 Bft) S 180 0 min 0,0 UV-I 0 W/m 4,2 C -4,2 C 33,8 km/h (5 Bft)
12.01.2023 02:41 5,7 C 5,0 C 90 % 1015,6 hPa 0,0 l/m 24,1 km/h (4 Bft) S-SW 202 0 min 0,0 UV-I 0 W/m 4,2 C -3,7 C 37,0 km/h (5 Bft)
12.01.2023 02:42 5,7 C 5,0 C 90 % 1015,6 hPa 0,0 l/m 25,7 km/h (4 Bft) S 180 0 min 0,0 UV-I 0 W/m 4,2 C -4,2 C 37,0 km/h (5 Bft)
12.01.2023 02:43 5,7 C 5,0 C 91 % 1015,6 hPa 0,0 l/m 22,5 km/h (4 Bft) S 180 0 min 0,0 UV-I 0 W/m 4,3 C -3,2 C 30,6 km/h (5 Bft)
12.01.2023 02:44 5,7 C 5,0 C 91 % 1015,6 hPa 0,0 l/m 25,7 km/h (4 Bft) S-SW 202 0 min 0,0 UV-I 0 W/m 4,3 C -4,2 C 33,8 km/h (5 Bft)
12.01.2023 02:45 5,7 C 5,0 C 90 % 1015,7 hPa 0,0 l/m 24,1 km/h (4 Bft) S-SW 202 0 min 0,0 UV-I 0 W/m 4,2 C -3,7 C 33,8 km/h (5 Bft)
12.01.2023 02:46 5,7 C 5,0 C 91 % 1015,7 hPa 0,0 l/m 22,5 km/h (4 Bft) S 180 0 min 0,0 UV-I 0 W/m 4,3 C -3,2 C 32,2 km/h (5 Bft)
12.01.2023 02:47 5,7 C 5,0 C 90 % 1015,7 hPa 0,0 l/m 20,9 km/h (4 Bft) S 180 0 min 0,0 UV-I 0 W/m 4,2 C -2,6 C 29,0 km/h (5 Bft)
12.01.2023 02:48 5,7 C 5,0 C 90 % 1015,6 hPa 0,0 l/m 20,9 km/h (4 Bft) S 180 0 min 0,0 UV-I 0 W/m 4,2 C -2,6 C 30,6 km/h (5 Bft)
12.01.2023 02:49 5,7 C 5,0 C 91 % 1015,6 hPa 0,0 l/m 25,7 km/h (4 Bft) S-SW 202 0 min 0,0 UV-I 0 W/m 4,3 C -4,2 C 33,8 km/h (5 Bft)
12.01.2023 02:50 5,7 C 5,0 C 91 % 1015,6 hPa 0,0 l/m 29,0 km/h (5 Bft) S 180 0 min 0,0 UV-I 0 W/m 4,3 C -5,1 C 43,5 km/h (6 Bft)
12.01.2023 02:51 5,7 C 5,0 C 91 % 1015,6 hPa 0,0 l/m 24,1 km/h (4 Bft) S 180 0 min 0,0 UV-I 0 W/m 4,3 C -3,7 C 32,2 km/h (5 Bft)
12.01.2023 02:52 5,7 C 5,0 C 91 % 1015,6 hPa 0,0 l/m 20,9 km/h (4 Bft) S-SW 202 0 min 0,0 UV-I 0 W/m 4,3 C -2,6 C 27,4 km/h (4 Bft)
12.01.2023 02:53 5,7 C 5,0 C 91 % 1015,7 hPa 0,0 l/m 24,1 km/h (4 Bft) S 180 0 min 0,0 UV-I 0 W/m 4,3 C -3,7 C 38,6 km/h (5 Bft)
12.01.2023 02:54 5,7 C 5,0 C 91 % 1015,5 hPa 0,0 l/m 19,3 km/h (3 Bft) S 180 0 min 0,0 UV-I 0 W/m 4,3 C -2,0 C 32,2 km/h (5 Bft)
12.01.2023 02:55 5,7 C 5,0 C 91 % 1015,7 hPa 0,0 l/m 19,3 km/h (3 Bft) S-SW 202 0 min 0,0 UV-I 0 W/m 4,3 C -2,0 C 25,7 km/h (4 Bft)
12.01.2023 02:56 5,7 C 5,0 C 91 % 1015,6 hPa 0,0 l/m 22,5 km/h (4 Bft) S-SW 202 0 min 0,0 UV-I 0 W/m 4,3 C -3,2 C 29,0 km/h (5 Bft)
12.01.2023 02:57 5,7 C 5,0 C 91 % 1015,6 hPa 0,2 l/m 25,7 km/h (4 Bft) S 180 0 min 0,0 UV-I 0 W/m 4,3 C -4,2 C 37,0 km/h (5 Bft)
12.01.2023 02:58 5,7 C 5,0 C 91 % 1015,7 hPa 0,0 l/m 17,7 km/h (3 Bft) S-SW 202 0 min 0,0 UV-I 0 W/m 4,3 C -1,3 C 30,6 km/h (5 Bft)
12.01.2023 02:59 5,7 C 5,0 C 91 % 1015,7 hPa 0,0 l/m 20,9 km/h (4 Bft) S 180 0 min 0,0 UV-I 0 W/m 4,3 C -2,6 C 32,2 km/h (5 Bft)
12.01.2023 03:00 5,7 C 5,0 C 91 % 1015,7 hPa 0,0 l/m 19,3 km/h (3 Bft) S 180 0 min 0,0 UV-I 0 W/m 4,3 C -2,0 C 35,4 km/h (5 Bft)
12.01.2023 03:01 5,7 C 5,0 C 91 % 1015,6 hPa 0,0 l/m 24,1 km/h (4 Bft) S 180 0 min 0,0 UV-I 0 W/m 4,3 C -3,7 C 29,0 km/h (5 Bft)
12.01.2023 03:02 5,7 C 5,0 C 91 % 1015,6 hPa 0,0 l/m 20,9 km/h (4 Bft) S-SW 202 0 min 0,0 UV-I 0 W/m 4,3 C -2,6 C 27,4 km/h (4 Bft)
12.01.2023 03:03 5,7 C 5,0 C 91 % 1015,7 hPa 0,0 l/m 30,6 km/h (5 Bft) S-SW 202 0 min 0,0 UV-I 0 W/m 4,3 C -5,5 C 41,8 km/h (6 Bft)
12.01.2023 03:04 5,7 C 5,0 C 91 % 1015,7 hPa 0,0 l/m 22,5 km/h (4 Bft) S-SW 202 0 min 0,0 UV-I 0 W/m 4,3 C -3,2 C 33,8 km/h (5 Bft)
12.01.2023 03:05 5,7 C 5,0 C 91 % 1015,6 hPa 0,0 l/m 27,4 km/h (4 Bft) S-SW 202 0 min 0,0 UV-I 0 W/m 4,3 C -4,7 C 38,6 km/h (5 Bft)
12.01.2023 03:06 5,7 C 5,0 C 91 % 1015,5 hPa 0,0 l/m 20,9 km/h (4 Bft) S-SW 202 0 min 0,0 UV-I 0 W/m 4,3 C -2,6 C 32,2 km/h (5 Bft)
12.01.2023 03:07 5,7 C 5,0 C 91 % 1015,5 hPa 0,0 l/m 25,7 km/h (4 Bft) S-SW 202 0 min 0,0 UV-I 0 W/m 4,3 C -4,2 C 38,6 km/h (5 Bft)
12.01.2023 03:08 5,7 C 5,0 C 91 % 1015,5 hPa 0,0 l/m 24,1 km/h (4 Bft) S-SW 202 0 min 0,0 UV-I 0 W/m 4,3 C -3,7 C 35,4 km/h (5 Bft)
12.01.2023 03:09 5,7 C 5,0 C 91 % 1015,5 hPa 0,0 l/m 25,7 km/h (4 Bft) S 180 0 min 0,0 UV-I 0 W/m 4,3 C -4,2 C 38,6 km/h (5 Bft)
12.01.2023 03:10 5,7 C 5,0 C 91 % 1015,5 hPa 0,0 l/m 25,7 km/h (4 Bft) S-SW 202 0 min 0,0 UV-I 0 W/m 4,3 C -4,2 C 38,6 km/h (5 Bft)
12.01.2023 03:11 5,7 C 5,0 C 91 % 1015,5 hPa 0,0 l/m 20,9 km/h (4 Bft) S 180 0 min 0,0 UV-I 0 W/m 4,3 C -2,6 C 29,0 km/h (5 Bft)
12.01.2023 03:12 5,7 C 5,0 C 91 % 1015,4 hPa 0,0 l/m 20,9 km/h (4 Bft) S 180 0 min 0,0 UV-I 0 W/m 4,3 C -2,6 C 29,0 km/h (5 Bft)
12.01.2023 03:13 5,7 C 5,0 C 91 % 1015,6 hPa 0,0 l/m 20,9 km/h (4 Bft) S 180 0 min 0,0 UV-I 0 W/m 4,3 C -2,6 C 32,2 km/h (5 Bft)
12.01.2023 03:14 5,7 C 5,0 C 91 % 1015,4 hPa 0,0 l/m 29,0 km/h (5 Bft) S-SW 202 0 min 0,0 UV-I 0 W/m 4,3 C -5,1 C 40,2 km/h (6 Bft)
12.01.2023 03:15 5,7 C 5,0 C 91 % 1015,5 hPa 0,0 l/m 33,8 km/h (5 Bft) S-SW 202 0 min 0,0 UV-I 0 W/m 4,3 C -6,3 C 40,2 km/h (6 Bft)
12.01.2023 03:16 5,7 C 5,0 C 91 % 1015,5 hPa 0,0 l/m 22,5 km/h (4 Bft) S 180 0 min 0,0 UV-I 0 W/m 4,3 C -3,2 C 35,4 km/h (5 Bft)
12.01.2023 03:17 5,7 C 5,0 C 91 % 1015,5 hPa 0,0 l/m 24,1 km/h (4 Bft) S-SW 202 0 min 0,0 UV-I 0 W/m 4,3 C -3,7 C 35,4 km/h (5 Bft)
12.01.2023 03:18 5,7 C 5,0 C 91 % 1015,5 hPa 0,0 l/m 20,9 km/h (4 Bft) S-SW 202 0 min 0,0 UV-I 0 W/m 4,3 C -2,6 C 27,4 km/h (4 Bft)
12.01.2023 03:19 5,7 C 5,0 C 91 % 1015,4 hPa 0,0 l/m 20,9 km/h (4 Bft) S 180 0 min 0,0 UV-I 0 W/m 4,3 C -2,6 C 38,6 km/h (5 Bft)
12.01.2023 03:20 5,7 C 5,0 C 91 % 1015,4 hPa 0,0 l/m 27,4 km/h (4 Bft) S-SW 202 0 min 0,0 UV-I 0 W/m 4,3 C -4,7 C 41,8 km/h (6 Bft)
12.01.2023 03:21 5,7 C 5,0 C 91 % 1015,5 hPa 0,0 l/m 22,5 km/h (4 Bft) S-SW 202 0 min 0,0 UV-I 0 W/m 4,3 C -3,2 C 35,4 km/h (5 Bft)
12.01.2023 03:22 5,7 C 5,0 C 91 % 1015,3 hPa 0,0 l/m 25,7 km/h (4 Bft) S 180 0 min 0,0 UV-I 0 W/m 4,3 C -4,2 C 35,4 km/h (5 Bft)
12.01.2023 03:23 5,7 C 5,0 C 91 % 1015,3 hPa 0,0 l/m 29,0 km/h (5 Bft) S 180 0 min 0,0 UV-I 0 W/m 4,3 C -5,1 C 35,4 km/h (5 Bft)
12.01.2023 03:24 5,7 C 5,0 C 91 % 1015,3 hPa 0,0 l/m 22,5 km/h (4 Bft) S 180 0 min 0,0 UV-I 0 W/m 4,3 C -3,2 C 35,4 km/h (5 Bft)
12.01.2023 03:25 5,7 C 5,0 C 91 % 1015,3 hPa 0,0 l/m 22,5 km/h (4 Bft) S-SW 202 0 min 0,0 UV-I 0 W/m 4,3 C -3,2 C 32,2 km/h (5 Bft)
12.01.2023 03:26 5,7 C 5,0 C 91 % 1015,2 hPa 0,0 l/m 29,0 km/h (5 Bft) S 180 0 min 0,0 UV-I 0 W/m 4,3 C -5,1 C 40,2 km/h (6 Bft)
12.01.2023 03:27 5,7 C 5,0 C 91 % 1015,2 hPa 0,0 l/m 29,0 km/h (5 Bft) S 180 0 min 0,0 UV-I 0 W/m 4,3 C -5,1 C 43,5 km/h (6 Bft)
12.01.2023 03:28 5,7 C 5,0 C 91 % 1015,2 hPa 0,0 l/m 30,6 km/h (5 Bft) S-SW 202 0 min 0,0 UV-I 0 W/m 4,3 C -5,5 C 41,8 km/h (6 Bft)
12.01.2023 03:29 5,7 C 5,0 C 91 % 1015,3 hPa 0,0 l/m 25,7 km/h (4 Bft) S 180 0 min 0,0 UV-I 0 W/m 4,3 C -4,2 C 35,4 km/h (5 Bft)
12.01.2023 03:30 5,7 C 5,0 C 91 % 1015,3 hPa 0,0 l/m 32,2 km/h (5 Bft) S 180 0 min 0,0 UV-I 0 W/m 4,3 C -5,9 C 46,7 km/h (6 Bft)
12.01.2023 03:31 5,7 C 5,0 C 90 % 1015,2 hPa 0,0 l/m 30,6 km/h (5 Bft) S 180 0 min 0,0 UV-I 0 W/m 4,2 C -5,5 C 53,1 km/h (7 Bft)
12.01.2023 03:32 5,7 C 5,0 C 90 % 1015,2 hPa 0,0 l/m 25,7 km/h (4 Bft) S-SW 202 0 min 0,0 UV-I 0 W/m 4,2 C -4,2 C 35,4 km/h (5 Bft)
12.01.2023 03:33 5,7 C 5,0 C 90 % 1015,2 hPa 0,0 l/m 22,5 km/h (4 Bft) S 180 0 min 0,0 UV-I 0 W/m 4,2 C -3,2 C 30,6 km/h (5 Bft)
12.01.2023 03:34 5,7 C 5,0 C 90 % 1015,4 hPa 0,0 l/m 27,4 km/h (4 Bft) S 180 0 min 0,0 UV-I 0 W/m 4,2 C -4,7 C 46,7 km/h (6 Bft)
12.01.2023 03:35 5,7 C 5,0 C 90 % 1015,2 hPa 0,2 l/m 24,1 km/h (4 Bft) S 180 0 min 0,0 UV-I 0 W/m 4,2 C -3,7 C 33,8 km/h (5 Bft)
12.01.2023 03:36 5,7 C 5,0 C 90 % 1015,2 hPa 0,0 l/m 27,4 km/h (4 Bft) S-SW 202 0 min 0,0 UV-I 0 W/m 4,2 C -4,7 C 38,6 km/h (5 Bft)
12.01.2023 03:37 5,7 C 5,0 C 90 % 1015,2 hPa 0,0 l/m 19,3 km/h (3 Bft) S 180 0 min 0,0 UV-I 0 W/m 4,2 C -2,0 C 29,0 km/h (5 Bft)
12.01.2023 03:38 5,7 C 5,0 C 90 % 1015,2 hPa 0,0 l/m 22,5 km/h (4 Bft) S 180 0 min 0,0 UV-I 0 W/m 4,2 C -3,2 C 33,8 km/h (5 Bft)
12.01.2023 03:39 5,7 C 5,0 C 90 % 1015,2 hPa 0,0 l/m 24,1 km/h (4 Bft) S-SW 202 0 min 0,0 UV-I 0 W/m 4,2 C -3,7 C 41,8 km/h (6 Bft)
12.01.2023 03:40 5,7 C 5,0 C 90 % 1015,1 hPa 0,0 l/m 22,5 km/h (4 Bft) S 180 0 min 0,0 UV-I 0 W/m 4,2 C -3,2 C 32,2 km/h (5 Bft)
12.01.2023 03:41 5,7 C 5,0 C 90 % 1015,1 hPa 0,0 l/m 27,4 km/h (4 Bft) S 180 0 min 0,0 UV-I 0 W/m 4,2 C -4,7 C 38,6 km/h (5 Bft)
12.01.2023 03:42 5,7 C 5,0 C 90 % 1015,1 hPa 0,0 l/m 27,4 km/h (4 Bft) S-SW 202 0 min 0,0 UV-I 0 W/m 4,2 C -4,7 C 38,6 km/h (5 Bft)
12.01.2023 03:43 5,7 C 5,0 C 90 % 1015,2 hPa 0,0 l/m 19,3 km/h (3 Bft) S 180 0 min 0,0 UV-I 0 W/m 4,2 C -2,0 C 25,7 km/h (4 Bft)
12.01.2023 03:44 5,7 C 5,0 C 90 % 1015,1 hPa 0,0 l/m 19,3 km/h (3 Bft) S 180 0 min 0,0 UV-I 0 W/m 4,2 C -2,0 C 30,6 km/h (5 Bft)
12.01.2023 03:45 5,7 C 5,0 C 90 % 1015,1 hPa 0,0 l/m 27,4 km/h (4 Bft) S 180 0 min 0,0 UV-I 0 W/m 4,2 C -4,7 C 45,1 km/h (6 Bft)
12.01.2023 03:46 5,7 C 5,0 C 90 % 1015,0 hPa 0,0 l/m 25,7 km/h (4 Bft) S-SW 202 0 min 0,0 UV-I 0 W/m 4,2 C -4,2 C 35,4 km/h (5 Bft)
12.01.2023 03:47 5,7 C 5,0 C 90 % 1014,9 hPa 0,0 l/m 22,5 km/h (4 Bft) S 180 0 min 0,0 UV-I 0 W/m 4,2 C -3,2 C 33,8 km/h (5 Bft)
12.01.2023 03:48 5,7 C 5,0 C 90 % 1014,8 hPa 0,0 l/m 17,7 km/h (3 Bft) S 180 0 min 0,0 UV-I 0 W/m 4,2 C -1,3 C 27,4 km/h (4 Bft)
12.01.2023 03:49 5,7 C 5,0 C 90 % 1015,0 hPa 0,0 l/m 24,1 km/h (4 Bft) S-SW 202 0 min 0,0 UV-I 0 W/m 4,2 C -3,7 C 30,6 km/h (5 Bft)
12.01.2023 03:50 5,7 C 5,0 C 90 % 1014,9 hPa 0,0 l/m 22,5 km/h (4 Bft) S 180 0 min 0,0 UV-I 0 W/m 4,2 C -3,2 C 30,6 km/h (5 Bft)
12.01.2023 03:51 5,7 C 5,0 C 90 % 1014,9 hPa 0,0 l/m 19,3 km/h (3 Bft) S 180 0 min 0,0 UV-I 0 W/m 4,2 C -2,0 C 30,6 km/h (5 Bft)
12.01.2023 03:52 5,7 C 5,0 C 91 % 1014,9 hPa 0,0 l/m 22,5 km/h (4 Bft) S-SW 202 0 min 0,0 UV-I 0 W/m 4,3 C -3,2 C 32,2 km/h (5 Bft)
12.01.2023 03:53 5,7 C 5,0 C 91 % 1014,9 hPa 0,0 l/m 20,9 km/h (4 Bft) S 180 0 min 0,0 UV-I 0 W/m 4,3 C -2,6 C 27,4 km/h (4 Bft)
12.01.2023 03:54 5,7 C 5,0 C 91 % 1014,9 hPa 0,0 l/m 17,7 km/h (3 Bft) S-SW 202 0 min 0,0 UV-I 0 W/m 4,3 C -1,3 C 20,9 km/h (4 Bft)
12.01.2023 03:55 5,7 C 5,0 C 91 % 1014,9 hPa 0,0 l/m 19,3 km/h (3 Bft) S 180 0 min 0,0 UV-I 0 W/m 4,3 C -2,0 C 27,4 km/h (4 Bft)
12.01.2023 03:56 5,7 C 5,0 C 91 % 1014,8 hPa 0,0 l/m 19,3 km/h (3 Bft) S-SW 202 0 min 0,0 UV-I 0 W/m 4,3 C -2,0 C 32,2 km/h (5 Bft)
12.01.2023 03:57 5,7 C 5,0 C 91 % 1014,9 hPa 0,0 l/m 25,7 km/h (4 Bft) S 180 0 min 0,0 UV-I 0 W/m 4,3 C -4,2 C 40,2 km/h (6 Bft)
12.01.2023 03:58 5,7 C 5,0 C 91 % 1014,9 hPa 0,0 l/m 24,1 km/h (4 Bft) S 180 0 min 0,0 UV-I 0 W/m 4,3 C -3,7 C 32,2 km/h (5 Bft)
12.01.2023 03:59 5,7 C 5,0 C 91 % 1014,9 hPa 0,0 l/m 19,3 km/h (3 Bft) S-SW 202 0 min 0,0 UV-I 0 W/m 4,3 C -2,0 C 25,7 km/h (4 Bft)
12.01.2023 04:00 5,7 C 5,0 C 91 % 1014,9 hPa 0,0 l/m 20,9 km/h (4 Bft) S-SW 202 0 min 0,0 UV-I 0 W/m 4,3 C -2,6 C 29,0 km/h (5 Bft)
12.01.2023 04:01 5,7 C 5,0 C 91 % 1014,8 hPa 0,0 l/m 20,9 km/h (4 Bft) S 180 0 min 0,0 UV-I 0 W/m 4,3 C -2,6 C 32,2 km/h (5 Bft)
12.01.2023 04:02 5,7 C 5,0 C 91 % 1014,8 hPa 0,0 l/m 24,1 km/h (4 Bft) S 180 0 min 0,0 UV-I 0 W/m 4,3 C -3,7 C 35,4 km/h (5 Bft)
12.01.2023 04:03 5,7 C 5,0 C 91 % 1014,8 hPa 0,0 l/m 25,7 km/h (4 Bft) S 180 0 min 0,0 UV-I 0 W/m 4,3 C -4,2 C 37,0 km/h (5 Bft)
12.01.2023 04:04 5,7 C 5,0 C 91 % 1014,7 hPa 0,0 l/m 20,9 km/h (4 Bft) S 180 0 min 0,0 UV-I 0 W/m 4,3 C -2,6 C 32,2 km/h (5 Bft)
12.01.2023 04:05 5,7 C 5,0 C 91 % 1014,7 hPa 0,0 l/m 22,5 km/h (4 Bft) S 180 0 min 0,0 UV-I 0 W/m 4,3 C -3,2 C 43,5 km/h (6 Bft)
12.01.2023 04:06 5,7 C 5,0 C 91 % 1014,7 hPa 0,0 l/m 29,0 km/h (5 Bft) S-SW 202 0 min 0,0 UV-I 0 W/m 4,3 C -5,1 C 38,6 km/h (5 Bft)
12.01.2023 04:07 5,7 C 5,0 C 91 % 1014,7 hPa 0,0 l/m 24,1 km/h (4 Bft) S 180 0 min 0,0 UV-I 0 W/m 4,3 C -3,7 C 33,8 km/h (5 Bft)
12.01.2023 04:08 5,7 C 5,0 C 91 % 1014,7 hPa 0,0 l/m 22,5 km/h (4 Bft) S 180 0 min 0,0 UV-I 0 W/m 4,3 C -3,2 C 33,8 km/h (5 Bft)
12.01.2023 04:09 5,7 C 5,0 C 91 % 1014,6 hPa 0,0 l/m 24,1 km/h (4 Bft) S-SW 202 0 min 0,0 UV-I 0 W/m 4,3 C -3,7 C 33,8 km/h (5 Bft)
12.01.2023 04:10 5,7 C 5,0 C 91 % 1014,7 hPa 0,0 l/m 25,7 km/h (4 Bft) S 180 0 min 0,0 UV-I 0 W/m 4,3 C -4,2 C 40,2 km/h (6 Bft)
12.01.2023 04:11 5,7 C 5,0 C 91 % 1014,6 hPa 0,0 l/m 29,0 km/h (5 Bft) S-SW 202 0 min 0,0 UV-I 0 W/m 4,3 C -5,1 C 40,2 km/h (6 Bft)
12.01.2023 04:12 5,7 C 5,0 C 91 % 1014,6 hPa 0,0 l/m 25,7 km/h (4 Bft) S-SW 202 0 min 0,0 UV-I 0 W/m 4,3 C -4,2 C 35,4 km/h (5 Bft)
12.01.2023 04:13 5,7 C 5,0 C 91 % 1014,7 hPa 0,0 l/m 25,7 km/h (4 Bft) S 180 0 min 0,0 UV-I 0 W/m 4,3 C -4,2 C 40,2 km/h (6 Bft)
12.01.2023 04:14 5,7 C 5,0 C 91 % 1014,6 hPa 0,0 l/m 25,7 km/h (4 Bft) S 180 0 min 0,0 UV-I 0 W/m 4,3 C -4,2 C 35,4 km/h (5 Bft)
12.01.2023 04:15 5,7 C 5,0 C 91 % 1014,6 hPa 0,0 l/m 27,4 km/h (4 Bft) S 180 0 min 0,0 UV-I 0 W/m 4,3 C -4,7 C 43,5 km/h (6 Bft)
12.01.2023 04:16 5,7 C 5,0 C 91 % 1014,6 hPa 0,0 l/m 24,1 km/h (4 Bft) S-SW 202 0 min 0,0 UV-I 0 W/m 4,3 C -3,7 C 32,2 km/h (5 Bft)
12.01.2023 04:17 5,7 C 5,0 C 91 % 1014,5 hPa 0,0 l/m 20,9 km/h (4 Bft) S 180 0 min 0,0 UV-I 0 W/m 4,3 C -2,6 C 25,7 km/h (4 Bft)
12.01.2023 04:18 5,7 C 5,0 C 91 % 1014,5 hPa 0,0 l/m 19,3 km/h (3 Bft) S 180 0 min 0,0 UV-I 0 W/m 4,3 C -2,0 C 29,0 km/h (5 Bft)
12.01.2023 04:19 5,7 C 5,0 C 91 % 1014,4 hPa 0,0 l/m 19,3 km/h (3 Bft) S 180 0 min 0,0 UV-I 0 W/m 4,3 C -2,0 C 33,8 km/h (5 Bft)
12.01.2023 04:20 5,7 C 5,0 C 91 % 1014,4 hPa 0,0 l/m 19,3 km/h (3 Bft) S 180 0 min 0,0 UV-I 0 W/m 4,3 C -2,0 C 30,6 km/h (5 Bft)
12.01.2023 04:21 5,7 C 5,0 C 91 % 1014,4 hPa 0,0 l/m 20,9 km/h (4 Bft) S-SW 202 0 min 0,0 UV-I 0 W/m 4,3 C -2,6 C 29,0 km/h (5 Bft)
12.01.2023 04:22 5,7 C 5,0 C 91 % 1014,4 hPa 0,0 l/m 25,7 km/h (4 Bft) S-SW 202 0 min 0,0 UV-I 0 W/m 4,3 C -4,2 C 35,4 km/h (5 Bft)
12.01.2023 04:23 5,7 C 5,0 C 91 % 1014,4 hPa 0,0 l/m 27,4 km/h (4 Bft) S 180 0 min 0,0 UV-I 0 W/m 4,3 C -4,7 C 40,2 km/h (6 Bft)
12.01.2023 04:24 5,7 C 5,0 C 91 % 1014,4 hPa 0,0 l/m 27,4 km/h (4 Bft) S 180 0 min 0,0 UV-I 0 W/m 4,3 C -4,7 C 38,6 km/h (5 Bft)
12.01.2023 04:25 5,7 C 5,0 C 91 % 1014,4 hPa 0,0 l/m 22,5 km/h (4 Bft) S-SW 202 0 min 0,0 UV-I 0 W/m 4,3 C -3,2 C 35,4 km/h (5 Bft)
12.01.2023 04:26 5,7 C 5,0 C 91 % 1014,4 hPa 0,0 l/m 19,3 km/h (3 Bft) S 180 0 min 0,0 UV-I 0 W/m 4,3 C -2,0 C 35,4 km/h (5 Bft)
12.01.2023 04:27 5,7 C 5,0 C 91 % 1014,4 hPa 0,0 l/m 22,5 km/h (4 Bft) S 180 0 min 0,0 UV-I 0 W/m 4,3 C -3,2 C 29,0 km/h (5 Bft)
12.01.2023 04:28 5,7 C 5,0 C 91 % 1014,4 hPa 0,0 l/m 22,5 km/h (4 Bft) S 180 0 min 0,0 UV-I 0 W/m 4,3 C -3,2 C 30,6 km/h (5 Bft)
12.01.2023 04:29 5,7 C 5,0 C 91 % 1014,3 hPa 0,0 l/m 24,1 km/h (4 Bft) S 180 0 min 0,0 UV-I 0 W/m 4,3 C -3,7 C 40,2 km/h (6 Bft)
12.01.2023 04:30 5,7 C 5,0 C 91 % 1014,4 hPa 0,2 l/m 24,1 km/h (4 Bft) S 180 0 min 0,0 UV-I 0 W/m 4,3 C -3,7 C 48,3 km/h (6 Bft)
12.01.2023 04:31 5,7 C 5,0 C 91 % 1014,3 hPa 0,0 l/m 24,1 km/h (4 Bft) S 180 0 min 0,0 UV-I 0 W/m 4,3 C -3,7 C 35,4 km/h (5 Bft)
12.01.2023 04:32 5,7 C 5,0 C 91 % 1014,2 hPa 0,0 l/m 20,9 km/h (4 Bft) S 180 0 min 0,0 UV-I 0 W/m 4,3 C -2,6 C 38,6 km/h (5 Bft)
12.01.2023 04:33 5,7 C 5,0 C 91 % 1014,2 hPa 0,0 l/m 24,1 km/h (4 Bft) S 180 0 min 0,0 UV-I 0 W/m 4,3 C -3,7 C 48,3 km/h (6 Bft)
12.01.2023 04:34 5,7 C 5,0 C 91 % 1014,2 hPa 0,0 l/m 29,0 km/h (5 Bft) S 180 0 min 0,0 UV-I 0 W/m 4,3 C -5,1 C 41,8 km/h (6 Bft)
12.01.2023 04:35 5,7 C 5,0 C 91 % 1014,1 hPa 0,0 l/m 33,8 km/h (5 Bft) S 180 0 min 0,0 UV-I 0 W/m 4,3 C -6,3 C 43,5 km/h (6 Bft)
12.01.2023 04:36 5,7 C 5,0 C 91 % 1014,3 hPa 0,0 l/m 30,6 km/h (5 Bft) S 180 0 min 0,0 UV-I 0 W/m 4,3 C -5,5 C 41,8 km/h (6 Bft)
12.01.2023 04:37 5,7 C 5,0 C 91 % 1014,2 hPa 0,0 l/m 20,9 km/h (4 Bft) S 180 0 min 0,0 UV-I 0 W/m 4,3 C -2,6 C 29,0 km/h (5 Bft)
12.01.2023 04:38 5,7 C 5,0 C 91 % 1014,3 hPa 0,0 l/m 20,9 km/h (4 Bft) S 180 0 min 0,0 UV-I 0 W/m 4,3 C -2,6 C 30,6 km/h (5 Bft)
12.01.2023 04:39 5,7 C 5,0 C 91 % 1014,3 hPa 0,0 l/m 20,9 km/h (4 Bft) S-SW 202 0 min 0,0 UV-I 0 W/m 4,3 C -2,6 C 32,2 km/h (5 Bft)
12.01.2023 04:40 5,7 C 5,0 C 91 % 1014,3 hPa 0,0 l/m 27,4 km/h (4 Bft) S 180 0 min 0,0 UV-I 0 W/m 4,3 C -4,7 C 40,2 km/h (6 Bft)
12.01.2023 04:41 5,7 C 5,0 C 91 % 1014,3 hPa 0,0 l/m 25,7 km/h (4 Bft) S 180 0 min 0,0 UV-I 0 W/m 4,3 C -4,2 C 35,4 km/h (5 Bft)
12.01.2023 04:42 5,7 C 5,0 C 91 % 1014,2 hPa 0,0 l/m 25,7 km/h (4 Bft) S 180 0 min 0,0 UV-I 0 W/m 4,3 C -4,2 C 38,6 km/h (5 Bft)
12.01.2023 04:43 5,7 C 5,0 C 91 % 1014,1 hPa 0,2 l/m 30,6 km/h (5 Bft) S 180 0 min 0,0 UV-I 0 W/m 4,3 C -5,5 C 48,3 km/h (6 Bft)
12.01.2023 04:44 5,7 C 5,0 C 91 % 1014,3 hPa 0,0 l/m 24,1 km/h (4 Bft) S 180 0 min 0,0 UV-I 0 W/m 4,3 C -3,7 C 35,4 km/h (5 Bft)
12.01.2023 04:45 5,7 C 5,0 C 91 % 1014,2 hPa 0,0 l/m 24,1 km/h (4 Bft) S 180 0 min 0,0 UV-I 0 W/m 4,3 C -3,7 C 33,8 km/h (5 Bft)
12.01.2023 04:46 5,7 C 5,0 C 91 % 1014,1 hPa 0,0 l/m 24,1 km/h (4 Bft) S 180 0 min 0,0 UV-I 0 W/m 4,3 C -3,7 C 32,2 km/h (5 Bft)
12.01.2023 04:47 5,7 C 5,0 C 91 % 1014,3 hPa 0,0 l/m 25,7 km/h (4 Bft) S-SW 202 0 min 0,0 UV-I 0 W/m 4,3 C -4,2 C 43,5 km/h (6 Bft)
12.01.2023 04:48 5,7 C 5,0 C 91 % 1014,3 hPa 0,0 l/m 27,4 km/h (4 Bft) S 180 0 min 0,0 UV-I 0 W/m 4,3 C -4,7 C 37,0 km/h (5 Bft)
12.01.2023 04:49 5,7 C 5,0 C 91 % 1014,3 hPa 0,0 l/m 25,7 km/h (4 Bft) S 180 0 min 0,0 UV-I 0 W/m 4,3 C -4,2 C 46,7 km/h (6 Bft)
12.01.2023 04:50 5,7 C 5,0 C 90 % 1014,2 hPa 0,0 l/m 25,7 km/h (4 Bft) S 180 0 min 0,0 UV-I 0 W/m 4,2 C -4,2 C 35,4 km/h (5 Bft)
12.01.2023 04:51 5,7 C 5,0 C 91 % 1014,3 hPa 0,0 l/m 25,7 km/h (4 Bft) S 180 0 min 0,0 UV-I 0 W/m 4,3 C -4,2 C 43,5 km/h (6 Bft)
12.01.2023 04:52 5,7 C 5,0 C 91 % 1014,2 hPa 0,0 l/m 29,0 km/h (5 Bft) S-SW 202 0 min 0,0 UV-I 0 W/m 4,3 C -5,1 C 56,3 km/h (7 Bft)
12.01.2023 04:53 5,7 C 5,0 C 90 % 1014,3 hPa 0,2 l/m 33,8 km/h (5 Bft) S-SW 202 0 min 0,0 UV-I 0 W/m 4,2 C -6,3 C 56,3 km/h (7 Bft)
12.01.2023 04:54 5,8 C 5,0 C 90 % 1014,3 hPa 0,0 l/m 29,0 km/h (5 Bft) S-SW 202 0 min 0,0 UV-I 0 W/m 4,3 C -5,0 C 54,7 km/h (7 Bft)
12.01.2023 04:55 5,7 C 5,0 C 90 % 1014,2 hPa 0,0 l/m 25,7 km/h (4 Bft) S 180 0 min 0,0 UV-I 0 W/m 4,2 C -4,2 C 37,0 km/h (5 Bft)
12.01.2023 04:56 5,7 C 5,0 C 90 % 1014,2 hPa 0,0 l/m 24,1 km/h (4 Bft) S 180 0 min 0,0 UV-I 0 W/m 4,2 C -3,7 C 49,9 km/h (6 Bft)
12.01.2023 04:57 5,7 C 5,0 C 90 % 1014,2 hPa 0,0 l/m 27,4 km/h (4 Bft) S-SW 202 0 min 0,0 UV-I 0 W/m 4,2 C -4,7 C 40,2 km/h (6 Bft)
12.01.2023 04:58 5,7 C 5,0 C 90 % 1014,1 hPa 0,0 l/m 27,4 km/h (4 Bft) S-SW 202 0 min 0,0 UV-I 0 W/m 4,2 C -4,7 C 38,6 km/h (5 Bft)
12.01.2023 04:59 5,7 C 5,0 C 91 % 1014,2 hPa 0,2 l/m 22,5 km/h (4 Bft) S 180 0 min 0,0 UV-I 0 W/m 4,3 C -3,2 C 37,0 km/h (5 Bft)
12.01.2023 05:00 5,7 C 5,0 C 91 % 1014,3 hPa 0,0 l/m 24,1 km/h (4 Bft) S 180 0 min 0,0 UV-I 0 W/m 4,3 C -3,7 C 29,0 km/h (5 Bft)
12.01.2023 05:01 5,7 C 5,0 C 90 % 1014,2 hPa 0,0 l/m 29,0 km/h (5 Bft) S 180 0 min 0,0 UV-I 0 W/m 4,2 C -5,1 C 41,8 km/h (6 Bft)
12.01.2023 05:02 5,7 C 5,0 C 90 % 1014,1 hPa 0,0 l/m 30,6 km/h (5 Bft) S 180 0 min 0,0 UV-I 0 W/m 4,2 C -5,5 C 45,1 km/h (6 Bft)
12.01.2023 05:03 5,7 C 5,0 C 91 % 1014,0 hPa 0,0 l/m 24,1 km/h (4 Bft) S 180 0 min 0,0 UV-I 0 W/m 4,3 C -3,7 C 38,6 km/h (5 Bft)
12.01.2023 05:04 5,7 C 5,0 C 91 % 1014,0 hPa 0,0 l/m 32,2 km/h (5 Bft) S-SW 202 0 min 0,0 UV-I 0 W/m 4,3 C -5,9 C 43,5 km/h (6 Bft)
12.01.2023 05:05 5,7 C 5,0 C 91 % 1014,0 hPa 0,0 l/m 24,1 km/h (4 Bft) S 180 0 min 0,0 UV-I 0 W/m 4,3 C -3,7 C 32,2 km/h (5 Bft)
12.01.2023 05:06 5,7 C 5,0 C 91 % 1014,1 hPa 0,0 l/m 25,7 km/h (4 Bft) S-SW 202 0 min 0,0 UV-I 0 W/m 4,3 C -4,2 C 32,2 km/h (5 Bft)
12.01.2023 05:07 5,7 C 5,0 C 91 % 1014,2 hPa 0,2 l/m 33,8 km/h (5 Bft) S-SW 202 0 min 0,0 UV-I 0 W/m 4,3 C -6,3 C 43,5 km/h (6 Bft)
12.01.2023 05:08 5,7 C 5,0 C 91 % 1014,1 hPa 0,0 l/m 25,7 km/h (4 Bft) S-SW 202 0 min 0,0 UV-I 0 W/m 4,3 C -4,2 C 32,2 km/h (5 Bft)
12.01.2023 05:09 5,7 C 5,0 C 90 % 1014,1 hPa 0,0 l/m 27,4 km/h (4 Bft) S-SW 202 0 min 0,0 UV-I 0 W/m 4,2 C -4,7 C 37,0 km/h (5 Bft)
12.01.2023 05:10 5,7 C 5,0 C 91 % 1014,0 hPa 0,0 l/m 24,1 km/h (4 Bft) S 180 0 min 0,0 UV-I 0 W/m 4,3 C -3,7 C 33,8 km/h (5 Bft)
12.01.2023 05:11 5,7 C 5,0 C 91 % 1014,1 hPa 0,0 l/m 25,7 km/h (4 Bft) S-SW 202 0 min 0,0 UV-I 0 W/m 4,3 C -4,2 C 53,1 km/h (7 Bft)
12.01.2023 05:12 5,7 C 5,0 C 91 % 1013,9 hPa 0,0 l/m 33,8 km/h (5 Bft) S-SW 202 0 min 0,0 UV-I 0 W/m 4,3 C -6,3 C 46,7 km/h (6 Bft)
12.01.2023 05:13 5,7 C 5,0 C 91 % 1014,0 hPa 0,0 l/m 27,4 km/h (4 Bft) S-SW 202 0 min 0,0 UV-I 0 W/m 4,3 C -4,7 C 35,4 km/h (5 Bft)
12.01.2023 05:14 5,8 C 5,0 C 91 % 1014,0 hPa 0,0 l/m 22,5 km/h (4 Bft) S-SW 202 0 min 0,0 UV-I 0 W/m 4,4 C -3,0 C 32,2 km/h (5 Bft)
12.01.2023 05:15 5,7 C 5,0 C 91 % 1014,0 hPa 0,0 l/m 25,7 km/h (4 Bft) S 180 0 min 0,0 UV-I 0 W/m 4,3 C -4,2 C 45,1 km/h (6 Bft)
12.01.2023 05:16 5,7 C 5,0 C 91 % 1014,0 hPa 0,0 l/m 30,6 km/h (5 Bft) S 180 0 min 0,0 UV-I 0 W/m 4,3 C -5,5 C 48,3 km/h (6 Bft)
12.01.2023 05:17 5,8 C 5,0 C 91 % 1014,0 hPa 0,0 l/m 29,0 km/h (5 Bft) S 180 0 min 0,0 UV-I 0 W/m 4,4 C -5,0 C 41,8 km/h (6 Bft)
12.01.2023 05:18 5,8 C 5,0 C 91 % 1013,9 hPa 0,0 l/m 27,4 km/h (4 Bft) S 180 0 min 0,0 UV-I 0 W/m 4,4 C -4,6 C 38,6 km/h (5 Bft)
12.01.2023 05:19 5,8 C 5,0 C 91 % 1013,9 hPa 0,0 l/m 25,7 km/h (4 Bft) S-SW 202 0 min 0,0 UV-I 0 W/m 4,4 C -4,1 C 32,2 km/h (5 Bft)
12.01.2023 05:20 5,8 C 5,0 C 91 % 1013,9 hPa 0,0 l/m 27,4 km/h (4 Bft) S 180 0 min 0,0 UV-I 0 W/m 4,4 C -4,6 C 48,3 km/h (6 Bft)
12.01.2023 05:21 5,8 C 5,0 C 90 % 1013,8 hPa 0,0 l/m 29,0 km/h (5 Bft) S 180 0 min 0,0 UV-I 0 W/m 4,3 C -5,0 C 45,1 km/h (6 Bft)
12.01.2023 05:22 5,8 C 5,0 C 91 % 1013,8 hPa 0,0 l/m 29,0 km/h (5 Bft) S 180 0 min 0,0 UV-I 0 W/m 4,4 C -5,0 C 38,6 km/h (5 Bft)
12.01.2023 05:23 5,8 C 5,0 C 90 % 1013,6 hPa 0,0 l/m 25,7 km/h (4 Bft) S 180 0 min 0,0 UV-I 0 W/m 4,3 C -4,1 C 37,0 km/h (5 Bft)
12.01.2023 05:24 5,8 C 5,0 C 90 % 1013,8 hPa 0,0 l/m 30,6 km/h (5 Bft) S 180 0 min 0,0 UV-I 0 W/m 4,3 C -5,4 C 48,3 km/h (6 Bft)
12.01.2023 05:25 5,8 C 5,0 C 90 % 1013,7 hPa 0,0 l/m 25,7 km/h (4 Bft) S 180 0 min 0,0 UV-I 0 W/m 4,3 C -4,1 C 40,2 km/h (6 Bft)
12.01.2023 05:26 5,8 C 5,0 C 90 % 1013,7 hPa 0,0 l/m 33,8 km/h (5 Bft) S 180 0 min 0,0 UV-I 0 W/m 4,3 C -6,1 C 51,5 km/h (7 Bft)
12.01.2023 05:27 5,8 C 5,0 C 90 % 1013,6 hPa 0,2 l/m 30,6 km/h (5 Bft) S 180 0 min 0,0 UV-I 0 W/m 4,3 C -5,4 C 40,2 km/h (6 Bft)
12.01.2023 05:28 5,8 C 5,0 C 90 % 1013,6 hPa 0,0 l/m 27,4 km/h (4 Bft) S 180 0 min 0,0 UV-I 0 W/m 4,3 C -4,6 C 35,4 km/h (5 Bft)
12.01.2023 05:29 5,8 C 5,0 C 90 % 1013,8 hPa 0,0 l/m 19,3 km/h (3 Bft) S 180 0 min 0,0 UV-I 0 W/m 4,3 C -1,9 C 25,7 km/h (4 Bft)
12.01.2023 05:30 5,8 C 5,0 C 90 % 1013,6 hPa 0,0 l/m 27,4 km/h (4 Bft) S 180 0 min 0,0 UV-I 0 W/m 4,3 C -4,6 C 43,5 km/h (6 Bft)
12.01.2023 05:31 5,8 C 5,0 C 90 % 1013,6 hPa 0,0 l/m 27,4 km/h (4 Bft) S 180 0 min 0,0 UV-I 0 W/m 4,3 C -4,6 C 41,8 km/h (6 Bft)
12.01.2023 05:32 5,8 C 5,0 C 90 % 1013,6 hPa 0,0 l/m 29,0 km/h (5 Bft) S-SW 202 0 min 0,0 UV-I 0 W/m 4,3 C -5,0 C 40,2 km/h (6 Bft)
12.01.2023 05:33 5,8 C 5,0 C 90 % 1013,6 hPa 0,0 l/m 20,9 km/h (4 Bft) S 180 0 min 0,0 UV-I 0 W/m 4,3 C -2,5 C 27,4 km/h (4 Bft)
12.01.2023 05:34 5,8 C 5,0 C 90 % 1013,7 hPa 0,0 l/m 24,1 km/h (4 Bft) S 180 0 min 0,0 UV-I 0 W/m 4,3 C -3,6 C 35,4 km/h (5 Bft)
12.01.2023 05:35 5,8 C 5,0 C 90 % 1013,6 hPa 0,0 l/m 24,1 km/h (4 Bft) S 180 0 min 0,0 UV-I 0 W/m 4,3 C -3,6 C 38,6 km/h (5 Bft)
12.01.2023 05:36 5,8 C 5,0 C 90 % 1013,7 hPa 0,2 l/m 33,8 km/h (5 Bft) S-SW 202 0 min 0,0 UV-I 0 W/m 4,3 C -6,1 C 46,7 km/h (6 Bft)
12.01.2023 05:37 5,8 C 5,0 C 90 % 1013,6 hPa 0,0 l/m 24,1 km/h (4 Bft) S-SW 202 0 min 0,0 UV-I 0 W/m 4,3 C -3,6 C 33,8 km/h (5 Bft)
12.01.2023 05:38 5,8 C 5,0 C 90 % 1013,5 hPa 0,0 l/m 25,7 km/h (4 Bft) S 180 0 min 0,0 UV-I 0 W/m 4,3 C -4,1 C 43,5 km/h (6 Bft)
12.01.2023 05:39 5,8 C 5,0 C 90 % 1013,5 hPa 0,0 l/m 25,7 km/h (4 Bft) S-SW 202 0 min 0,0 UV-I 0 W/m 4,3 C -4,1 C 35,4 km/h (5 Bft)
12.01.2023 05:40 5,8 C 5,0 C 90 % 1013,5 hPa 0,0 l/m 24,1 km/h (4 Bft) S 180 0 min 0,0 UV-I 0 W/m 4,3 C -3,6 C 40,2 km/h (6 Bft)
12.01.2023 05:41 5,8 C 5,0 C 90 % 1013,5 hPa 0,0 l/m 20,9 km/h (4 Bft) S-SW 202 0 min 0,0 UV-I 0 W/m 4,3 C -2,5 C 27,4 km/h (4 Bft)
12.01.2023 05:42 5,8 C 5,0 C 90 % 1013,5 hPa 0,0 l/m 25,7 km/h (4 Bft) S 180 0 min 0,0 UV-I 0 W/m 4,3 C -4,1 C 38,6 km/h (5 Bft)
12.01.2023 05:43 5,8 C 5,0 C 90 % 1013,5 hPa 0,0 l/m 27,4 km/h (4 Bft) S 180 0 min 0,0 UV-I 0 W/m 4,3 C -4,6 C 37,0 km/h (5 Bft)
12.01.2023 05:44 5,8 C 5,0 C 90 % 1013,4 hPa 0,0 l/m 27,4 km/h (4 Bft) S 180 0 min 0,0 UV-I 0 W/m 4,3 C -4,6 C 40,2 km/h (6 Bft)
12.01.2023 05:45 5,8 C 5,0 C 91 % 1013,4 hPa 0,0 l/m 25,7 km/h (4 Bft) S-SW 202 0 min 0,0 UV-I 0 W/m 4,4 C -4,1 C 35,4 km/h (5 Bft)
12.01.2023 05:46 5,8 C 5,0 C 90 % 1013,4 hPa 0,0 l/m 22,5 km/h (4 Bft) S 180 0 min 0,0 UV-I 0 W/m 4,3 C -3,0 C 32,2 km/h (5 Bft)
12.01.2023 05:47 5,8 C 5,0 C 91 % 1013,5 hPa 0,0 l/m 29,0 km/h (5 Bft) S 180 0 min 0,0 UV-I 0 W/m 4,4 C -5,0 C 40,2 km/h (6 Bft)
12.01.2023 05:48 5,8 C 5,0 C 91 % 1013,4 hPa 0,2 l/m 27,4 km/h (4 Bft) S 180 0 min 0,0 UV-I 0 W/m 4,4 C -4,6 C 46,7 km/h (6 Bft)
12.01.2023 05:49 5,8 C 5,0 C 91 % 1013,4 hPa 0,0 l/m 19,3 km/h (3 Bft) S-SW 202 0 min 0,0 UV-I 0 W/m 4,4 C -1,9 C 27,4 km/h (4 Bft)
12.01.2023 05:50 5,8 C 5,0 C 90 % 1013,4 hPa 0,0 l/m 24,1 km/h (4 Bft) S 180 0 min 0,0 UV-I 0 W/m 4,3 C -3,6 C 35,4 km/h (5 Bft)
12.01.2023 05:51 5,8 C 5,0 C 91 % 1013,3 hPa 0,0 l/m 27,4 km/h (4 Bft) S 180 0 min 0,0 UV-I 0 W/m 4,4 C -4,6 C 37,0 km/h (5 Bft)
12.01.2023 05:52 5,8 C 5,0 C 91 % 1013,4 hPa 0,0 l/m 25,7 km/h (4 Bft) S-SO 157 0 min 0,0 UV-I 0 W/m 4,4 C -4,1 C 37,0 km/h (5 Bft)
12.01.2023 05:53 5,8 C 5,0 C 91 % 1013,3 hPa 0,0 l/m 24,1 km/h (4 Bft) S 180 0 min 0,0 UV-I 0 W/m 4,4 C -3,6 C 35,4 km/h (5 Bft)
12.01.2023 05:54 5,8 C 5,0 C 91 % 1013,3 hPa 0,0 l/m 27,4 km/h (4 Bft) S 180 0 min 0,0 UV-I 0 W/m 4,4 C -4,6 C 38,6 km/h (5 Bft)
12.01.2023 05:55 5,8 C 5,0 C 91 % 1013,3 hPa 0,0 l/m 22,5 km/h (4 Bft) S 180 0 min 0,0 UV-I 0 W/m 4,4 C -3,0 C 29,0 km/h (5 Bft)
12.01.2023 05:56 5,8 C 5,0 C 91 % 1013,2 hPa 0,2 l/m 30,6 km/h (5 Bft) S-SW 202 0 min 0,0 UV-I 0 W/m 4,4 C -5,4 C 43,5 km/h (6 Bft)
12.01.2023 05:57 5,8 C 5,0 C 91 % 1013,3 hPa 0,0 l/m 25,7 km/h (4 Bft) S 180 0 min 0,0 UV-I 0 W/m 4,4 C -4,1 C 33,8 km/h (5 Bft)
12.01.2023 05:58 5,8 C 5,0 C 91 % 1013,2 hPa 0,0 l/m 24,1 km/h (4 Bft) S 180 0 min 0,0 UV-I 0 W/m 4,4 C -3,6 C 37,0 km/h (5 Bft)
12.01.2023 05:59 5,8 C 5,0 C 91 % 1013,3 hPa 0,0 l/m 24,1 km/h (4 Bft) S 180 0 min 0,0 UV-I 0 W/m 4,4 C -3,6 C 32,2 km/h (5 Bft)
12.01.2023 06:00 5,8 C 5,0 C 91 % 1013,2 hPa 0,0 l/m 24,1 km/h (4 Bft) S 180 0 min 0,0 UV-I 0 W/m 4,4 C -3,6 C 35,4 km/h (5 Bft)
12.01.2023 06:01 5,8 C 5,0 C 91 % 1013,2 hPa 0,0 l/m 27,4 km/h (4 Bft) S 180 0 min 0,0 UV-I 0 W/m 4,4 C -4,6 C 46,7 km/h (6 Bft)
12.01.2023 06:02 5,8 C 5,0 C 91 % 1013,2 hPa 0,0 l/m 27,4 km/h (4 Bft) S 180 0 min 0,0 UV-I 0 W/m 4,4 C -4,6 C 41,8 km/h (6 Bft)
12.01.2023 06:03 5,8 C 5,0 C 91 % 1013,2 hPa 0,2 l/m 30,6 km/h (5 Bft) S 180 0 min 0,0 UV-I 0 W/m 4,4 C -5,4 C 38,6 km/h (5 Bft)
12.01.2023 06:04 5,8 C 5,0 C 90 % 1013,2 hPa 0,0 l/m 24,1 km/h (4 Bft) S-SW 202 0 min 0,0 UV-I 0 W/m 4,3 C -3,6 C 32,2 km/h (5 Bft)
12.01.2023 06:05 5,8 C 5,0 C 91 % 1013,2 hPa 0,0 l/m 24,1 km/h (4 Bft) S 180 0 min 0,0 UV-I 0 W/m 4,4 C -3,6 C 33,8 km/h (5 Bft)
12.01.2023 06:06 5,8 C 5,0 C 91 % 1013,1 hPa 0,0 l/m 19,3 km/h (3 Bft) S 180 0 min 0,0 UV-I 0 W/m 4,4 C -1,9 C 29,0 km/h (5 Bft)
12.01.2023 06:07 5,8 C 5,0 C 90 % 1013,2 hPa 0,0 l/m 35,4 km/h (5 Bft) S-SW 202 0 min 0,0 UV-I 0 W/m 4,3 C -6,5 C 46,7 km/h (6 Bft)
12.01.2023 06:08 5,8 C 5,0 C 90 % 1013,2 hPa 0,2 l/m 32,2 km/h (5 Bft) S 180 0 min 0,0 UV-I 0 W/m 4,3 C -5,8 C 46,7 km/h (6 Bft)
12.01.2023 06:09 5,8 C 5,0 C 91 % 1013,1 hPa 0,0 l/m 27,4 km/h (4 Bft) S 180 0 min 0,0 UV-I 0 W/m 4,4 C -4,6 C 59,5 km/h (7 Bft)
12.01.2023 06:10 5,8 C 5,0 C 90 % 1013,0 hPa 0,0 l/m 27,4 km/h (4 Bft) S 180 0 min 0,0 UV-I 0 W/m 4,3 C -4,6 C 35,4 km/h (5 Bft)
12.01.2023 06:11 5,8 C 5,0 C 90 % 1013,0 hPa 0,0 l/m 27,4 km/h (4 Bft) S 180 0 min 0,0 UV-I 0 W/m 4,3 C -4,6 C 37,0 km/h (5 Bft)
12.01.2023 06:12 5,8 C 5,0 C 90 % 1013,1 hPa 0,0 l/m 20,9 km/h (4 Bft) S-SW 202 0 min 0,0 UV-I 0 W/m 4,3 C -2,5 C 32,2 km/h (5 Bft)
12.01.2023 06:13 5,8 C 5,0 C 90 % 1013,1 hPa 0,0 l/m 24,1 km/h (4 Bft) S 180 0 min 0,0 UV-I 0 W/m 4,3 C -3,6 C 33,8 km/h (5 Bft)
12.01.2023 06:14 5,8 C 5,0 C 90 % 1013,0 hPa 0,2 l/m 22,5 km/h (4 Bft) S 180 0 min 0,0 UV-I 0 W/m 4,3 C -3,0 C 29,0 km/h (5 Bft)
12.01.2023 06:15 5,8 C 5,0 C 90 % 1013,1 hPa 0,0 l/m 20,9 km/h (4 Bft) S 180 0 min 0,0 UV-I 0 W/m 4,3 C -2,5 C 27,4 km/h (4 Bft)
12.01.2023 06:16 5,8 C 5,0 C 91 % 1012,9 hPa 0,0 l/m 20,9 km/h (4 Bft) S 180 0 min 0,0 UV-I 0 W/m 4,4 C -2,5 C 40,2 km/h (6 Bft)
12.01.2023 06:17 5,8 C 5,0 C 90 % 1013,0 hPa 0,0 l/m 29,0 km/h (5 Bft) S 180 0 min 0,0 UV-I 0 W/m 4,3 C -5,0 C 37,0 km/h (5 Bft)
12.01.2023 06:18 5,8 C 5,0 C 91 % 1013,0 hPa 0,0 l/m 24,1 km/h (4 Bft) S 180 0 min 0,0 UV-I 0 W/m 4,4 C -3,6 C 38,6 km/h (5 Bft)
12.01.2023 06:19 5,8 C 5,0 C 91 % 1012,9 hPa 0,2 l/m 25,7 km/h (4 Bft) S 180 0 min 0,0 UV-I 0 W/m 4,4 C -4,1 C 40,2 km/h (6 Bft)
12.01.2023 06:20 5,8 C 5,0 C 91 % 1013,0 hPa 0,0 l/m 22,5 km/h (4 Bft) S 180 0 min 0,0 UV-I 0 W/m 4,4 C -3,0 C 32,2 km/h (5 Bft)
12.01.2023 06:21 5,8 C 5,0 C 91 % 1013,0 hPa 0,0 l/m 22,5 km/h (4 Bft) S 180 0 min 0,0 UV-I 0 W/m 4,4 C -3,0 C 32,2 km/h (5 Bft)
12.01.2023 06:22 5,8 C 5,0 C 91 % 1012,9 hPa 0,0 l/m 25,7 km/h (4 Bft) S 180 0 min 0,0 UV-I 0 W/m 4,4 C -4,1 C 40,2 km/h (6 Bft)
12.01.2023 06:23 5,8 C 5,0 C 91 % 1012,9 hPa 0,2 l/m 30,6 km/h (5 Bft) S-SW 202 0 min 0,0 UV-I 0 W/m 4,4 C -5,4 C 41,8 km/h (6 Bft)
12.01.2023 06:24 5,8 C 5,0 C 91 % 1013,0 hPa 0,0 l/m 25,7 km/h (4 Bft) S-SW 202 0 min 0,0 UV-I 0 W/m 4,4 C -4,1 C 37,0 km/h (5 Bft)
12.01.2023 06:25 5,8 C 5,0 C 91 % 1012,9 hPa 0,0 l/m 25,7 km/h (4 Bft) S 180 0 min 0,0 UV-I 0 W/m 4,4 C -4,1 C 33,8 km/h (5 Bft)
12.01.2023 06:26 5,8 C 5,0 C 91 % 1012,9 hPa 0,0 l/m 29,0 km/h (5 Bft) S 180 0 min 0,0 UV-I 0 W/m 4,4 C -5,0 C 46,7 km/h (6 Bft)
12.01.2023 06:27 5,8 C 5,0 C 91 % 1012,9 hPa 0,0 l/m 25,7 km/h (4 Bft) S-SW 202 0 min 0,0 UV-I 0 W/m 4,4 C -4,1 C 32,2 km/h (5 Bft)
12.01.2023 06:28 5,8 C 5,0 C 91 % 1012,9 hPa 0,2 l/m 27,4 km/h (4 Bft) S-SW 202 0 min 0,0 UV-I 0 W/m 4,4 C -4,6 C 40,2 km/h (6 Bft)
12.01.2023 06:29 5,8 C 5,0 C 91 % 1012,9 hPa 0,0 l/m 25,7 km/h (4 Bft) S 180 0 min 0,0 UV-I 0 W/m 4,4 C -4,1 C 32,2 km/h (5 Bft)
12.01.2023 06:30 5,8 C 5,0 C 91 % 1013,0 hPa 0,0 l/m 20,9 km/h (4 Bft) S 180 0 min 0,0 UV-I 0 W/m 4,4 C -2,5 C 30,6 km/h (5 Bft)
12.01.2023 06:31 5,8 C 5,0 C 91 % 1013,0 hPa 0,0 l/m 29,0 km/h (5 Bft) S 180 0 min 0,0 UV-I 0 W/m 4,4 C -5,0 C 43,5 km/h (6 Bft)
12.01.2023 06:32 5,8 C 5,0 C 91 % 1013,0 hPa 0,0 l/m 29,0 km/h (5 Bft) S 180 0 min 0,0 UV-I 0 W/m 4,4 C -5,0 C 38,6 km/h (5 Bft)
12.01.2023 06:33 5,8 C 5,0 C 91 % 1013,0 hPa 0,0 l/m 29,0 km/h (5 Bft) S-SW 202 0 min 0,0 UV-I 0 W/m 4,4 C -5,0 C 41,8 km/h (6 Bft)
12.01.2023 06:34 5,8 C 5,0 C 91 % 1012,9 hPa 0,2 l/m 33,8 km/h (5 Bft) S-SW 202 0 min 0,0 UV-I 0 W/m 4,4 C -6,1 C 46,7 km/h (6 Bft)
12.01.2023 06:35 5,8 C 5,0 C 91 % 1013,0 hPa 0,0 l/m 29,0 km/h (5 Bft) S 180 0 min 0,0 UV-I 0 W/m 4,4 C -5,0 C 45,1 km/h (6 Bft)
12.01.2023 06:36 5,8 C 5,0 C 91 % 1012,9 hPa 0,0 l/m 33,8 km/h (5 Bft) S-SW 202 0 min 0,0 UV-I 0 W/m 4,4 C -6,1 C 51,5 km/h (7 Bft)
12.01.2023 06:37 5,8 C 5,0 C 90 % 1013,0 hPa 0,0 l/m 29,0 km/h (5 Bft) S 180 0 min 0,0 UV-I 0 W/m 4,3 C -5,0 C 43,5 km/h (6 Bft)
12.01.2023 06:38 5,8 C 5,0 C 90 % 1013,0 hPa 0,0 l/m 20,9 km/h (4 Bft) S-SW 202 0 min 0,0 UV-I 0 W/m 4,3 C -2,5 C 29,0 km/h (5 Bft)
12.01.2023 06:39 5,8 C 5,0 C 90 % 1012,9 hPa 0,2 l/m 25,7 km/h (4 Bft) S-SW 202 0 min 0,0 UV-I 0 W/m 4,3 C -4,1 C 35,4 km/h (5 Bft)
12.01.2023 06:40 5,8 C 5,0 C 90 % 1013,0 hPa 0,0 l/m 24,1 km/h (4 Bft) S-SW 202 0 min 0,0 UV-I 0 W/m 4,3 C -3,6 C 40,2 km/h (6 Bft)
12.01.2023 06:41 5,8 C 5,0 C 90 % 1012,9 hPa 0,0 l/m 25,7 km/h (4 Bft) S-SW 202 0 min 0,0 UV-I 0 W/m 4,3 C -4,1 C 33,8 km/h (5 Bft)
12.01.2023 06:42 5,8 C 5,0 C 90 % 1012,9 hPa 0,2 l/m 25,7 km/h (4 Bft) S 180 0 min 0,0 UV-I 0 W/m 4,3 C -4,1 C 43,5 km/h (6 Bft)
12.01.2023 06:43 5,8 C 5,0 C 90 % 1012,9 hPa 0,0 l/m 20,9 km/h (4 Bft) S-SW 202 0 min 0,0 UV-I 0 W/m 4,3 C -2,5 C 32,2 km/h (5 Bft)
12.01.2023 06:44 5,8 C 5,0 C 90 % 1012,9 hPa 0,2 l/m 19,3 km/h (3 Bft) S 180 0 min 0,0 UV-I 0 W/m 4,3 C -1,9 C 29,0 km/h (5 Bft)
12.01.2023 06:45 5,8 C 5,0 C 90 % 1012,9 hPa 0,0 l/m 19,3 km/h (3 Bft) S 180 0 min 0,0 UV-I 0 W/m 4,3 C -1,9 C 25,7 km/h (4 Bft)
12.01.2023 06:46 5,8 C 5,0 C 90 % 1012,8 hPa 0,0 l/m 22,5 km/h (4 Bft) S-SW 202 0 min 0,0 UV-I 0 W/m 4,3 C -3,0 C 35,4 km/h (5 Bft)
12.01.2023 06:47 5,8 C 5,0 C 90 % 1012,9 hPa 0,2 l/m 30,6 km/h (5 Bft) S-SW 202 0 min 0,0 UV-I 0 W/m 4,3 C -5,4 C 37,0 km/h (5 Bft)
12.01.2023 06:48 5,8 C 5,0 C 90 % 1012,8 hPa 0,0 l/m 30,6 km/h (5 Bft) S-SW 202 0 min 0,0 UV-I 0 W/m 4,3 C -5,4 C 41,8 km/h (6 Bft)
12.01.2023 06:49 5,8 C 5,0 C 90 % 1012,7 hPa 0,0 l/m 32,2 km/h (5 Bft) S 180 0 min 0,0 UV-I 0 W/m 4,3 C -5,8 C 45,1 km/h (6 Bft)
12.01.2023 06:50 5,8 C 5,0 C 90 % 1012,8 hPa 0,0 l/m 30,6 km/h (5 Bft) S-SW 202 0 min 0,0 UV-I 0 W/m 4,3 C -5,4 C 56,3 km/h (7 Bft)
12.01.2023 06:51 5,8 C 5,0 C 90 % 1012,7 hPa 0,2 l/m 29,0 km/h (5 Bft) S-SW 202 0 min 0,0 UV-I 0 W/m 4,3 C -5,0 C 46,7 km/h (6 Bft)
12.01.2023 06:52 5,8 C 5,0 C 90 % 1012,6 hPa 0,0 l/m 30,6 km/h (5 Bft) S 180 0 min 0,0 UV-I 0 W/m 4,3 C -5,4 C 56,3 km/h (7 Bft)
12.01.2023 06:53 5,8 C 5,0 C 90 % 1012,7 hPa 0,0 l/m 29,0 km/h (5 Bft) S 180 0 min 0,0 UV-I 0 W/m 4,3 C -5,0 C 38,6 km/h (5 Bft)
12.01.2023 06:54 5,8 C 5,0 C 90 % 1012,7 hPa 0,0 l/m 27,4 km/h (4 Bft) S 180 0 min 0,0 UV-I 0 W/m 4,3 C -4,6 C 45,1 km/h (6 Bft)
12.01.2023 06:55 5,8 C 5,0 C 90 % 1012,6 hPa 0,2 l/m 25,7 km/h (4 Bft) S 180 0 min 0,0 UV-I 0 W/m 4,3 C -4,1 C 38,6 km/h (5 Bft)
12.01.2023 06:56 5,8 C 5,0 C 90 % 1012,7 hPa 0,0 l/m 27,4 km/h (4 Bft) S 180 0 min 0,0 UV-I 0 W/m 4,3 C -4,6 C 45,1 km/h (6 Bft)
12.01.2023 06:57 5,8 C 5,0 C 90 % 1012,6 hPa 0,0 l/m 30,6 km/h (5 Bft) S 180 0 min 0,0 UV-I 0 W/m 4,3 C -5,4 C 41,8 km/h (6 Bft)
12.01.2023 06:58 5,8 C 5,0 C 91 % 1012,5 hPa 0,0 l/m 19,3 km/h (3 Bft) S-SW 202 0 min 0,0 UV-I 0 W/m 4,4 C -1,9 C 30,6 km/h (5 Bft)
12.01.2023 06:59 5,8 C 5,0 C 91 % 1012,5 hPa 0,2 l/m 30,6 km/h (5 Bft) S-SW 202 0 min 0,0 UV-I 0 W/m 4,4 C -5,4 C 40,2 km/h (6 Bft)
12.01.2023 07:00 5,8 C 5,0 C 90 % 1012,5 hPa 0,0 l/m 33,8 km/h (5 Bft) S-SW 202 0 min 0,0 UV-I 0 W/m 4,3 C -6,1 C 51,5 km/h (7 Bft)
12.01.2023 07:01 5,8 C 5,0 C 90 % 1012,4 hPa 0,0 l/m 27,4 km/h (4 Bft) S 180 0 min 0,0 UV-I 0 W/m 4,3 C -4,6 C 40,2 km/h (6 Bft)
12.01.2023 07:02 5,8 C 5,0 C 90 % 1012,4 hPa 0,0 l/m 35,4 km/h (5 Bft) S-SW 202 0 min 0,0 UV-I 0 W/m 4,3 C -6,5 C 48,3 km/h (6 Bft)
12.01.2023 07:03 5,8 C 5,0 C 90 % 1012,4 hPa 0,2 l/m 35,4 km/h (5 Bft) S-SW 202 0 min 0,0 UV-I 0 W/m 4,3 C -6,5 C 46,7 km/h (6 Bft)
12.01.2023 07:04 5,8 C 5,0 C 90 % 1012,5 hPa 0,0 l/m 25,7 km/h (4 Bft) S 180 0 min 0,0 UV-I 0 W/m 4,3 C -4,1 C 35,4 km/h (5 Bft)
12.01.2023 07:05 5,8 C 5,0 C 90 % 1012,4 hPa 0,0 l/m 27,4 km/h (4 Bft) S 180 0 min 0,0 UV-I 0 W/m 4,3 C -4,6 C 49,9 km/h (6 Bft)
12.01.2023 07:06 5,7 C 5,0 C 90 % 1012,4 hPa 0,2 l/m 38,6 km/h (5 Bft) S 180 0 min 0,0 UV-I 0 W/m 4,2 C -7,2 C 56,3 km/h (7 Bft)
12.01.2023 07:07 5,8 C 5,0 C 90 % 1012,4 hPa 0,0 l/m 27,4 km/h (4 Bft) S 180 0 min 0,0 UV-I 0 W/m 4,3 C -4,6 C 38,6 km/h (5 Bft)
12.01.2023 07:08 5,8 C 5,0 C 90 % 1012,4 hPa 0,0 l/m 25,7 km/h (4 Bft) S 180 0 min 0,0 UV-I 0 W/m 4,3 C -4,1 C 38,6 km/h (5 Bft)
12.01.2023 07:09 5,8 C 5,0 C 90 % 1012,4 hPa 0,0 l/m 27,4 km/h (4 Bft) S 180 0 min 0,0 UV-I 0 W/m 4,3 C -4,6 C 41,8 km/h (6 Bft)
12.01.2023 07:10 5,8 C 5,0 C 90 % 1012,3 hPa 0,0 l/m 29,0 km/h (5 Bft) S-SW 202 0 min 0,0 UV-I 0 W/m 4,3 C -5,0 C 38,6 km/h (5 Bft)
12.01.2023 07:11 5,8 C 5,0 C 90 % 1012,4 hPa 0,2 l/m 27,4 km/h (4 Bft) S-SW 202 0 min 0,0 UV-I 0 W/m 4,3 C -4,6 C 38,6 km/h (5 Bft)
12.01.2023 07:12 5,8 C 5,0 C 90 % 1012,3 hPa 0,0 l/m 20,9 km/h (4 Bft) S-SW 202 0 min 0,0 UV-I 0 W/m 4,3 C -2,5 C 29,0 km/h (5 Bft)
12.01.2023 07:13 5,8 C 5,0 C 90 % 1012,3 hPa 0,0 l/m 17,7 km/h (3 Bft) S-SW 202 0 min 0,0 UV-I 0 W/m 4,3 C -1,2 C 32,2 km/h (5 Bft)
12.01.2023 07:14 5,8 C 5,0 C 90 % 1012,3 hPa 0,0 l/m 38,6 km/h (5 Bft) S-SW 202 0 min 0,0 UV-I 0 W/m 4,3 C -7,1 C 49,9 km/h (6 Bft)
12.01.2023 07:15 5,7 C 5,0 C 90 % 1012,2 hPa 0,2 l/m 35,4 km/h (5 Bft) S 180 0 min 0,0 UV-I 0 W/m 4,2 C -6,6 C 48,3 km/h (6 Bft)
12.01.2023 07:16 5,7 C 5,0 C 90 % 1012,2 hPa 0,0 l/m 29,0 km/h (5 Bft) S-SW 202 0 min 0,0 UV-I 0 W/m 4,2 C -5,1 C 41,8 km/h (6 Bft)
12.01.2023 07:17 5,8 C 5,0 C 90 % 1012,2 hPa 0,0 l/m 41,8 km/h (6 Bft) S-SW 202 0 min 0,0 UV-I 0 W/m 4,3 C -7,6 C 56,3 km/h (7 Bft)
12.01.2023 07:18 5,8 C 5,0 C 90 % 1012,2 hPa 0,0 l/m 29,0 km/h (5 Bft) S-SW 202 0 min 0,0 UV-I 0 W/m 4,3 C -5,0 C 38,6 km/h (5 Bft)
12.01.2023 07:19 5,8 C 5,0 C 90 % 1012,3 hPa 0,0 l/m 35,4 km/h (5 Bft) S 180 0 min 0,0 UV-I 0 W/m 4,3 C -6,5 C 57,9 km/h (7 Bft)
12.01.2023 07:20 5,8 C 5,0 C 90 % 1012,3 hPa 0,0 l/m 32,2 km/h (5 Bft) S 180 0 min 0,0 UV-I 0 W/m 4,3 C -5,8 C 46,7 km/h (6 Bft)
12.01.2023 07:21 5,8 C 5,0 C 90 % 1012,2 hPa 0,2 l/m 32,2 km/h (5 Bft) S 180 0 min 0,0 UV-I 0 W/m 4,3 C -5,8 C 45,1 km/h (6 Bft)
12.01.2023 07:22 5,8 C 5,0 C 90 % 1012,2 hPa 0,0 l/m 27,4 km/h (4 Bft) S-SW 202 0 min 0,0 UV-I 0 W/m 4,3 C -4,6 C 37,0 km/h (5 Bft)
12.01.2023 07:23 5,8 C 5,0 C 90 % 1012,2 hPa 0,0 l/m 30,6 km/h (5 Bft) S-SW 202 0 min 0,0 UV-I 0 W/m 4,3 C -5,4 C 40,2 km/h (6 Bft)
12.01.2023 07:24 5,8 C 5,0 C 90 % 1012,1 hPa 0,0 l/m 33,8 km/h (5 Bft) S-SW 202 0 min 0,0 UV-I 0 W/m 4,3 C -6,1 C 45,1 km/h (6 Bft)
12.01.2023 07:25 5,8 C 5,0 C 90 % 1012,1 hPa 0,0 l/m 25,7 km/h (4 Bft) S 180 0 min 0,0 UV-I 0 W/m 4,3 C -4,1 C 40,2 km/h (6 Bft)
12.01.2023 07:26 5,8 C 5,0 C 90 % 1012,2 hPa 0,2 l/m 30,6 km/h (5 Bft) S-SW 202 0 min 0,0 UV-I 0 W/m 4,3 C -5,4 C 48,3 km/h (6 Bft)
12.01.2023 07:27 5,8 C 5,0 C 90 % 1012,1 hPa 0,0 l/m 35,4 km/h (5 Bft) S-SW 202 0 min 0,0 UV-I 0 W/m 4,3 C -6,5 C 51,5 km/h (7 Bft)
12.01.2023 07:28 5,8 C 5,0 C 90 % 1012,1 hPa 0,0 l/m 33,8 km/h (5 Bft) S-SW 202 0 min 0,0 UV-I 0 W/m 4,3 C -6,1 C 46,7 km/h (6 Bft)
12.01.2023 07:29 5,8 C 5,0 C 90 % 1012,1 hPa 0,0 l/m 30,6 km/h (5 Bft) S-SW 202 0 min 0,0 UV-I 0 W/m 4,3 C -5,4 C 45,1 km/h (6 Bft)
12.01.2023 07:30 5,9 C 5,0 C 90 % 1012,1 hPa 0,0 l/m 22,5 km/h (4 Bft) S 180 0 min 0,0 UV-I 0 W/m 4,4 C -2,9 C 35,4 km/h (5 Bft)
12.01.2023 07:31 5,9 C 5,0 C 90 % 1012,1 hPa 0,0 l/m 27,4 km/h (4 Bft) S 180 0 min 0,0 UV-I 0 W/m 4,4 C -4,4 C 35,4 km/h (5 Bft)
12.01.2023 07:32 5,9 C 5,0 C 90 % 1012,0 hPa 0,0 l/m 29,0 km/h (5 Bft) S-SW 202 0 min 0,0 UV-I 0 W/m 4,4 C -4,9 C 40,2 km/h (6 Bft)
12.01.2023 07:33 5,9 C 5,0 C 90 % 1012,1 hPa 0,2 l/m 29,0 km/h (5 Bft) S 180 0 min 0,0 UV-I 0 W/m 4,4 C -4,9 C 46,7 km/h (6 Bft)
12.01.2023 07:34 5,9 C 5,0 C 90 % 1012,2 hPa 0,0 l/m 30,6 km/h (5 Bft) S-SW 202 0 min 0,0 UV-I 0 W/m 4,4 C -5,3 C 40,2 km/h (6 Bft)
12.01.2023 07:35 5,9 C 5,0 C 90 % 1012,2 hPa 0,0 l/m 32,2 km/h (5 Bft) S 180 0 min 0,0 UV-I 0 W/m 4,4 C -5,6 C 49,9 km/h (6 Bft)
12.01.2023 07:36 5,9 C 5,0 C 90 % 1012,2 hPa 0,0 l/m 35,4 km/h (5 Bft) S 180 0 min 0,0 UV-I 0 W/m 4,4 C -6,3 C 45,1 km/h (6 Bft)
12.01.2023 07:37 5,9 C 5,0 C 90 % 1012,1 hPa 0,0 l/m 33,8 km/h (5 Bft) S-SW 202 0 min 0,0 UV-I 0 W/m 4,4 C -6,0 C 46,7 km/h (6 Bft)
12.01.2023 07:38 5,9 C 5,0 C 90 % 1012,2 hPa 0,2 l/m 32,2 km/h (5 Bft) S-SW 202 0 min 0,0 UV-I 0 W/m 4,4 C -5,6 C 48,3 km/h (6 Bft)
12.01.2023 07:39 5,9 C 5,0 C 90 % 1012,2 hPa 0,0 l/m 30,6 km/h (5 Bft) S 180 0 min 0,0 UV-I 0 W/m 4,4 C -5,3 C 48,3 km/h (6 Bft)
12.01.2023 07:40 5,9 C 5,0 C 90 % 1012,3 hPa 0,0 l/m 32,2 km/h (5 Bft) S 180 0 min 0,0 UV-I 0 W/m 4,4 C -5,6 C 56,3 km/h (7 Bft)
12.01.2023 07:41 5,9 C 5,0 C 91 % 1012,2 hPa 0,0 l/m 27,4 km/h (4 Bft) SW 225 0 min 0,0 UV-I 0 W/m 4,5 C -4,4 C 38,6 km/h (5 Bft)
12.01.2023 07:42 5,9 C 5,0 C 91 % 1012,5 hPa 0,2 l/m 30,6 km/h (5 Bft) S 180 0 min 0,0 UV-I 0 W/m 4,5 C -5,3 C 43,5 km/h (6 Bft)
12.01.2023 07:43 5,9 C 5,0 C 91 % 1012,2 hPa 0,0 l/m 32,2 km/h (5 Bft) S-SW 202 0 min 0,0 UV-I 0 W/m 4,5 C -5,6 C 46,7 km/h (6 Bft)
12.01.2023 07:44 5,9 C 5,0 C 91 % 1012,1 hPa 0,0 l/m 30,6 km/h (5 Bft) SW 225 0 min 0,0 UV-I 0 W/m 4,5 C -5,3 C 43,5 km/h (6 Bft)
12.01.2023 07:48 6,0 C 5,0 C 91 % 1012,2 hPa 0,0 l/m 32,9 km/h (5 Bft) SW 229 0 min 0,0 UV-I 0 W/m 4,6 C -5,7 C 56,3 km/h (7 Bft)
12.01.2023 07:51 6,0 C 5,0 C 91 % 1012,3 hPa 0,0 l/m 33,5 km/h (5 Bft) S-SW 204 0 min 0,0 UV-I 0 W/m 4,6 C -5,8 C 54,7 km/h (7 Bft)
12.01.2023 07:54 6,1 C 5,0 C 91 % 1012,2 hPa 0,0 l/m 28,0 km/h (4 Bft) S-SW 205 0 min 0,0 UV-I 0 W/m 4,7 C -4,3 C 38,6 km/h (5 Bft)
12.01.2023 07:57 6,0 C 5,0 C 91 % 1012,2 hPa 0,0 l/m 31,4 km/h (5 Bft) S 178 0 min 0,0 UV-I 0 W/m 4,6 C -5,3 C 53,1 km/h (7 Bft)
12.01.2023 08:00 6,1 C 5,0 C 91 % 1012,3 hPa 0,0 l/m 28,5 km/h (4 Bft) S-SO 166 0 min 0,0 UV-I 0 W/m 4,7 C -4,4 C 45,1 km/h (6 Bft)
12.01.2023 08:03 6,0 C 5,0 C 91 % 1012,2 hPa 0,0 l/m 26,2 km/h (4 Bft) S 181 0 min 0,0 UV-I 0 W/m 4,6 C -3,9 C 40,2 km/h (6 Bft)
12.01.2023 08:06 6,1 C 5,0 C 91 % 1012,2 hPa 0,0 l/m 32,6 km/h (5 Bft) S-SW 192 0 min 0,0 UV-I 0 W/m 4,7 C -5,4 C 53,1 km/h (7 Bft)
12.01.2023 08:09 6,1 C 5,0 C 91 % 1012,3 hPa 0,0 l/m 34,6 km/h (5 Bft) S-SW 199 0 min 0,0 UV-I 0 W/m 4,7 C -5,9 C 53,1 km/h (7 Bft)
12.01.2023 08:12 6,1 C 5,0 C 91 % 1012,2 hPa 0,0 l/m 34,5 km/h (5 Bft) SW 223 0 min 0,0 UV-I 0 W/m 4,7 C -5,9 C 54,7 km/h (7 Bft)
12.01.2023 08:15 6,1 C 5,0 C 91 % 1012,2 hPa 0,0 l/m 32,4 km/h (5 Bft) S 169 0 min 0,0 UV-I 0 W/m 4,7 C -5,4 C 51,5 km/h (7 Bft)
12.01.2023 08:18 6,1 C 5,0 C 91 % 1012,3 hPa 0,0 l/m 31,0 km/h (5 Bft) SW 221 0 min 0,0 UV-I 0 W/m 4,7 C -5,1 C 45,1 km/h (6 Bft)
12.01.2023 08:21 6,1 C 5,0 C 91 % 1012,3 hPa 0,0 l/m 30,1 km/h (5 Bft) S 188 0 min 0,0 UV-I 0 W/m 4,7 C -4,9 C 53,1 km/h (7 Bft)
12.01.2023 08:24 6,1 C 5,6 C 91 % 1012,4 hPa 0,0 l/m 32,5 km/h (5 Bft) SW 221 0 min 0,0 UV-I 0 W/m 4,7 C -5,4 C 56,3 km/h (7 Bft)
12.01.2023 08:27 6,2 C 5,6 C 91 % 1012,5 hPa 0,0 l/m 31,0 km/h (5 Bft) S-SW 195 0 min 0,0 UV-I 0 W/m 4,8 C -4,9 C 46,7 km/h (6 Bft)
12.01.2023 08:30 6,2 C 5,6 C 91 % 1012,3 hPa 0,0 l/m 33,3 km/h (5 Bft) S 187 0 min 0,0 UV-I 0 W/m 4,8 C -5,5 C 46,7 km/h (6 Bft)
12.01.2023 08:33 6,2 C 5,6 C 91 % 1012,4 hPa 0,0 l/m 27,7 km/h (4 Bft) S 172 0 min 0,0 UV-I 0 W/m 4,8 C -4,1 C 49,9 km/h (6 Bft)
12.01.2023 08:36 6,2 C 5,6 C 91 % 1012,3 hPa 0,2 l/m 36,4 km/h (5 Bft) S-SW 198 0 min 0,0 UV-I 0 W/m 4,8 C -6,1 C 53,1 km/h (7 Bft)
12.01.2023 08:39 6,2 C 5,6 C 91 % 1012,3 hPa 0,0 l/m 33,7 km/h (5 Bft) S 182 0 min 0,0 UV-I 0 W/m 4,8 C -5,5 C 51,5 km/h (7 Bft)
12.01.2023 08:42 6,2 C 5,6 C 91 % 1012,2 hPa 0,0 l/m 31,1 km/h (5 Bft) S 186 0 min 0,0 UV-I 0 W/m 4,8 C -5,0 C 53,1 km/h (7 Bft)
12.01.2023 08:45 6,3 C 5,6 C 91 % 1012,3 hPa 0,0 l/m 39,0 km/h (6 Bft) S-SW 194 0 min 0,0 UV-I 0 W/m 4,9 C -6,4 C 59,5 km/h (7 Bft)
12.01.2023 08:48 6,3 C 5,6 C 91 % 1012,3 hPa 0,2 l/m 34,6 km/h (5 Bft) S-SW 207 0 min 0,0 UV-I 0 W/m 4,9 C -5,6 C 51,5 km/h (7 Bft)
12.01.2023 08:51 6,3 C 5,6 C 91 % 1012,1 hPa 0,0 l/m 35,2 km/h (5 Bft) S 188 0 min 0,0 UV-I 0 W/m 4,9 C -5,7 C 51,5 km/h (7 Bft)
12.01.2023 08:54 6,3 C 5,6 C 91 % 1012,2 hPa 0,0 l/m 33,9 km/h (5 Bft) S 173 0 min 0,0 UV-I 0 W/m 4,9 C -5,4 C 57,9 km/h (7 Bft)
12.01.2023 08:57 6,3 C 5,6 C 91 % 1012,2 hPa 0,0 l/m 32,9 km/h (5 Bft) S 191 0 min 0,0 UV-I 0 W/m 4,9 C -5,2 C 45,1 km/h (6 Bft)
12.01.2023 09:00 6,3 C 5,6 C 91 % 1012,2 hPa 0,0 l/m 30,1 km/h (5 Bft) S-SW 192 0 min 0,0 UV-I 0 W/m 4,9 C -4,6 C 51,5 km/h (7 Bft)
12.01.2023 09:03 6,3 C 5,6 C 91 % 1012,3 hPa 0,2 l/m 27,4 km/h (4 Bft) SW 216 0 min 0,0 UV-I 0 W/m 4,9 C -3,9 C 40,2 km/h (6 Bft)
12.01.2023 09:06 6,3 C 5,6 C 91 % 1012,3 hPa 0,0 l/m 30,5 km/h (5 Bft) SW 217 0 min 0,0 UV-I 1 W/m 4,9 C -4,7 C 54,7 km/h (7 Bft)
12.01.2023 09:09 6,4 C 5,6 C 91 % 1012,4 hPa 0,0 l/m 31,1 km/h (5 Bft) S-SW 195 0 min 0,0 UV-I 4 W/m 5,0 C -4,7 C 53,1 km/h (7 Bft)
12.01.2023 09:12 6,4 C 5,6 C 91 % 1012,3 hPa 0,0 l/m 34,9 km/h (5 Bft) S-SW 198 0 min 0,0 UV-I 6 W/m 5,0 C -5,5 C 56,3 km/h (7 Bft)
12.01.2023 09:15 6,4 C 5,6 C 91 % 1012,3 hPa 0,2 l/m 34,4 km/h (5 Bft) S 185 0 min 0,0 UV-I 5 W/m 5,0 C -5,4 C 53,1 km/h (7 Bft)
12.01.2023 09:18 6,4 C 5,6 C 91 % 1012,5 hPa 0,0 l/m 30,7 km/h (5 Bft) S-SW 200 0 min 0,0 UV-I 3 W/m 5,0 C -4,6 C 45,1 km/h (6 Bft)
12.01.2023 09:21 6,4 C 5,6 C 91 % 1012,4 hPa 0,2 l/m 31,2 km/h (5 Bft) S 182 0 min 0,0 UV-I 4 W/m 5,0 C -4,7 C 43,5 km/h (6 Bft)
12.01.2023 09:24 6,4 C 5,6 C 91 % 1012,5 hPa 0,0 l/m 32,8 km/h (5 Bft) SW 216 0 min 0,0 UV-I 5 W/m 5,0 C -5,1 C 49,9 km/h (6 Bft)
12.01.2023 09:27 6,4 C 5,6 C 91 % 1012,6 hPa 0,2 l/m 30,0 km/h (5 Bft) S-SW 200 0 min 0,0 UV-I 5 W/m 5,0 C -4,4 C 45,1 km/h (6 Bft)
12.01.2023 09:30 6,4 C 5,6 C 91 % 1012,5 hPa 0,0 l/m 30,2 km/h (5 Bft) S-SW 205 0 min 0,0 UV-I 7 W/m 5,0 C -4,5 C 45,1 km/h (6 Bft)
12.01.2023 09:33 6,5 C 5,6 C 91 % 1012,4 hPa 0,0 l/m 32,5 km/h (5 Bft) S 174 0 min 0,0 UV-I 10 W/m 5,1 C -4,8 C 61,2 km/h (7 Bft)
12.01.2023 09:36 6,5 C 5,6 C 91 % 1012,5 hPa 0,2 l/m 30,2 km/h (5 Bft) S 187 0 min 0,0 UV-I 13 W/m 5,1 C -4,3 C 45,1 km/h (6 Bft)
12.01.2023 09:39 6,6 C 5,6 C 91 % 1012,4 hPa 0,0 l/m 32,0 km/h (5 Bft) S-SW 200 0 min 0,0 UV-I 16 W/m 5,2 C -4,6 C 48,3 km/h (6 Bft)
12.01.2023 09:42 6,6 C 5,6 C 91 % 1012,5 hPa 0,0 l/m 29,7 km/h (5 Bft) S-SW 200 0 min 0,0 UV-I 18 W/m 5,2 C -4,1 C 54,7 km/h (7 Bft)
12.01.2023 09:45 6,6 C 5,6 C 91 % 1012,3 hPa 0,2 l/m 35,9 km/h (5 Bft) S 188 0 min 0,0 UV-I 23 W/m 5,2 C -5,4 C 61,2 km/h (7 Bft)
12.01.2023 09:48 6,7 C 6,1 C 91 % 1012,5 hPa 0,0 l/m 34,2 km/h (5 Bft) S 186 0 min 0,0 UV-I 28 W/m 5,3 C -4,9 C 66,0 km/h (8 Bft)
12.01.2023 09:51 6,6 C 6,1 C 91 % 1012,4 hPa 0,0 l/m 35,5 km/h (5 Bft) S-SW 199 0 min 0,0 UV-I 25 W/m 5,2 C -5,3 C 51,5 km/h (7 Bft)
12.01.2023 09:54 6,7 C 6,1 C 91 % 1012,5 hPa 0,2 l/m 31,6 km/h (5 Bft) S-SW 205 0 min 0,0 UV-I 23 W/m 5,3 C -4,4 C 49,9 km/h (6 Bft)
12.01.2023 09:57 6,7 C 6,1 C 91 % 1012,4 hPa 0,0 l/m 32,2 km/h (5 Bft) S-SW 199 0 min 0,0 UV-I 30 W/m 5,3 C -4,5 C 49,9 km/h (6 Bft)
12.01.2023 10:00 6,7 C 6,1 C 91 % 1012,4 hPa 0,0 l/m 36,5 km/h (5 Bft) S-SW 209 0 min 0,0 UV-I 31 W/m 5,3 C -5,4 C 61,2 km/h (7 Bft)
12.01.2023 10:03 6,8 C 6,1 C 91 % 1012,6 hPa 0,0 l/m 30,7 km/h (5 Bft) S-SW 192 0 min 0,0 UV-I 29 W/m 5,4 C -4,0 C 43,5 km/h (6 Bft)
12.01.2023 10:06 6,8 C 6,1 C 91 % 1012,6 hPa 0,0 l/m 31,7 km/h (5 Bft) SW 219 0 min 0,0 UV-I 25 W/m 5,4 C -4,2 C 66,0 km/h (8 Bft)
12.01.2023 10:09 6,8 C 6,1 C 91 % 1012,7 hPa 0,0 l/m 34,0 km/h (5 Bft) S-SW 195 0 min 0,0 UV-I 25 W/m 5,4 C -4,7 C 51,5 km/h (7 Bft)
12.01.2023 10:12 6,8 C 6,1 C 91 % 1012,6 hPa 0,0 l/m 33,5 km/h (5 Bft) SW 219 0 min 0,0 UV-I 25 W/m 5,4 C -4,6 C 56,3 km/h (7 Bft)
12.01.2023 10:15 6,8 C 6,1 C 91 % 1012,6 hPa 0,0 l/m 32,8 km/h (5 Bft) S-SW 204 0 min 0,0 UV-I 29 W/m 5,4 C -4,5 C 46,7 km/h (6 Bft)
12.01.2023 10:18 6,8 C 6,1 C 91 % 1012,6 hPa 0,0 l/m 31,7 km/h (5 Bft) S-SW 204 0 min 0,0 UV-I 34 W/m 5,4 C -4,2 C 53,1 km/h (7 Bft)
12.01.2023 10:21 6,8 C 6,1 C 91 % 1012,7 hPa 0,2 l/m 34,7 km/h (5 Bft) S 180 0 min 0,0 UV-I 36 W/m 5,4 C -4,9 C 56,3 km/h (7 Bft)
12.01.2023 10:24 6,8 C 6,1 C 91 % 1012,6 hPa 0,0 l/m 34,6 km/h (5 Bft) SW 220 0 min 0,0 UV-I 42 W/m 5,4 C -4,9 C 57,9 km/h (7 Bft)
12.01.2023 10:27 6,8 C 6,1 C 91 % 1012,6 hPa 0,0 l/m 28,8 km/h (4 Bft) S 181 0 min 0,0 UV-I 42 W/m 5,4 C -3,5 C 45,1 km/h (6 Bft)
12.01.2023 10:30 6,8 C 6,1 C 91 % 1012,7 hPa 0,0 l/m 32,6 km/h (5 Bft) S 188 0 min 0,0 UV-I 39 W/m 5,4 C -4,4 C 59,5 km/h (7 Bft)
12.01.2023 10:33 6,8 C 6,1 C 91 % 1012,8 hPa 0,2 l/m 26,9 km/h (4 Bft) S 188 0 min 0,0 UV-I 34 W/m 5,4 C -3,0 C 38,6 km/h (5 Bft)
12.01.2023 10:36 6,8 C 6,1 C 91 % 1012,8 hPa 0,0 l/m 28,2 km/h (4 Bft) S 187 0 min 0,0 UV-I 31 W/m 5,4 C -3,4 C 49,9 km/h (6 Bft)
12.01.2023 10:39 6,8 C 6,1 C 91 % 1012,9 hPa 0,0 l/m 27,4 km/h (4 Bft) S 189 0 min 0,0 UV-I 27 W/m 5,4 C -3,2 C 41,8 km/h (6 Bft)
12.01.2023 10:42 6,9 C 6,1 C 91 % 1012,9 hPa 0,2 l/m 26,1 km/h (4 Bft) S-SW 204 0 min 0,0 UV-I 25 W/m 5,5 C -2,7 C 41,8 km/h (6 Bft)
12.01.2023 10:45 6,8 C 6,1 C 91 % 1013,0 hPa 0,0 l/m 29,0 km/h (5 Bft) S 186 0 min 0,0 UV-I 26 W/m 5,4 C -3,6 C 46,7 km/h (6 Bft)
12.01.2023 10:48 6,9 C 6,1 C 91 % 1013,1 hPa 0,0 l/m 26,4 km/h (4 Bft) SW 231 0 min 0,0 UV-I 30 W/m 5,5 C -2,8 C 38,6 km/h (5 Bft)
12.01.2023 10:51 6,9 C 6,1 C 91 % 1013,0 hPa 0,2 l/m 30,1 km/h (5 Bft) S-SW 213 0 min 0,0 UV-I 29 W/m 5,5 C -3,7 C 49,9 km/h (6 Bft)
12.01.2023 10:54 6,9 C 6,1 C 91 % 1013,0 hPa 0,0 l/m 28,4 km/h (4 Bft) SW 230 0 min 0,0 UV-I 35 W/m 5,5 C -3,3 C 41,8 km/h (6 Bft)
12.01.2023 10:57 6,9 C 6,1 C 91 % 1013,1 hPa 0,0 l/m 29,7 km/h (5 Bft) SW 220 0 min 0,0 UV-I 43 W/m 5,5 C -3,6 C 51,5 km/h (7 Bft)
12.01.2023 11:00 6,9 C 6,1 C 91 % 1013,2 hPa 0,0 l/m 31,1 km/h (5 Bft) S-SW 192 0 min 0,0 UV-I 37 W/m 5,5 C -4,0 C 45,1 km/h (6 Bft)
12.01.2023 11:03 6,9 C 6,1 C 91 % 1013,0 hPa 0,0 l/m 30,7 km/h (5 Bft) S-SW 196 0 min 0,0 UV-I 34 W/m 5,5 C -3,9 C 51,5 km/h (7 Bft)
12.01.2023 11:06 6,9 C 6,1 C 91 % 1013,2 hPa 0,0 l/m 24,8 km/h (4 Bft) S-SW 198 0 min 0,0 UV-I 30 W/m 5,5 C -2,3 C 37,0 km/h (5 Bft)
12.01.2023 11:09 6,9 C 6,1 C 91 % 1013,1 hPa 0,0 l/m 25,7 km/h (4 Bft) S 182 0 min 0,0 UV-I 32 W/m 5,5 C -2,6 C 38,6 km/h (5 Bft)
12.01.2023 11:12 6,9 C 6,1 C 91 % 1013,0 hPa 0,0 l/m 27,4 km/h (4 Bft) S 186 0 min 0,0 UV-I 34 W/m 5,5 C -3,0 C 45,1 km/h (6 Bft)
12.01.2023 11:15 7,0 C 6,1 C 91 % 1013,1 hPa 0,0 l/m 33,4 km/h (5 Bft) S 176 0 min 0,0 UV-I 32 W/m 5,6 C -4,3 C 45,1 km/h (6 Bft)
12.01.2023 11:18 7,0 C 6,1 C 91 % 1013,2 hPa 0,0 l/m 29,1 km/h (5 Bft) SW 215 0 min 0,0 UV-I 28 W/m 5,6 C -3,3 C 43,5 km/h (6 Bft)
12.01.2023 11:21 7,1 C 6,1 C 91 % 1013,2 hPa 0,0 l/m 33,0 km/h (5 Bft) S 171 0 min 0,0 UV-I 28 W/m 5,7 C -4,1 C 57,9 km/h (7 Bft)
12.01.2023 11:24 7,0 C 6,1 C 91 % 1013,1 hPa 0,0 l/m 25,8 km/h (4 Bft) S 189 0 min 0,0 UV-I 35 W/m 5,6 C -2,5 C 45,1 km/h (6 Bft)
12.01.2023 11:27 7,1 C 6,1 C 91 % 1013,0 hPa 0,2 l/m 28,3 km/h (4 Bft) S-SO 149 0 min 0,0 UV-I 40 W/m 5,7 C -3,0 C 38,6 km/h (5 Bft)
12.01.2023 11:30 7,1 C 6,1 C 91 % 1013,0 hPa 0,0 l/m 27,7 km/h (4 Bft) S 187 0 min 0,0 UV-I 44 W/m 5,7 C -2,8 C 46,7 km/h (6 Bft)
12.01.2023 11:33 7,1 C 6,1 C 91 % 1013,1 hPa 0,0 l/m 25,5 km/h (4 Bft) SW 215 0 min 0,0 UV-I 33 W/m 5,7 C -2,2 C 38,6 km/h (5 Bft)
12.01.2023 11:36 7,1 C 6,1 C 91 % 1012,9 hPa 0,0 l/m 29,4 km/h (5 Bft) S-SW 194 0 min 0,0 UV-I 31 W/m 5,7 C -3,3 C 46,7 km/h (6 Bft)
12.01.2023 11:39 7,1 C 6,1 C 91 % 1013,0 hPa 0,0 l/m 30,4 km/h (5 Bft) S-SW 198 0 min 0,0 UV-I 38 W/m 5,7 C -3,5 C 48,3 km/h (6 Bft)
12.01.2023 11:42 7,2 C 6,1 C 91 % 1013,1 hPa 0,0 l/m 25,6 km/h (4 Bft) S-SW 200 0 min 0,0 UV-I 34 W/m 5,8 C -2,1 C 40,2 km/h (6 Bft)
12.01.2023 11:45 7,2 C 6,1 C 91 % 1013,1 hPa 0,0 l/m 32,1 km/h (5 Bft) W-SW 240 0 min 0,0 UV-I 33 W/m 5,8 C -3,8 C 51,5 km/h (7 Bft)
12.01.2023 11:48 7,2 C 6,1 C 91 % 1013,2 hPa 0,0 l/m 27,9 km/h (4 Bft) S 186 0 min 0,0 UV-I 31 W/m 5,8 C -2,8 C 43,5 km/h (6 Bft)
12.01.2023 11:51 7,2 C 6,1 C 91 % 1013,1 hPa 0,0 l/m 23,7 km/h (4 Bft) SW 218 0 min 0,0 UV-I 24 W/m 5,8 C -1,6 C 37,0 km/h (5 Bft)
12.01.2023 11:54 7,2 C 6,1 C 91 % 1013,1 hPa 0,0 l/m 24,6 km/h (4 Bft) S-SW 211 0 min 0,0 UV-I 24 W/m 5,8 C -1,8 C 45,1 km/h (6 Bft)
12.01.2023 11:57 7,2 C 6,1 C 91 % 1013,1 hPa 0,0 l/m 29,8 km/h (5 Bft) SW 227 0 min 0,0 UV-I 34 W/m 5,8 C -3,2 C 54,7 km/h (7 Bft)
12.01.2023 12:00 7,2 C 6,7 C 91 % 1013,1 hPa 0,0 l/m 25,5 km/h (4 Bft) S-SW 198 0 min 0,0 UV-I 43 W/m 5,8 C -2,1 C 40,2 km/h (6 Bft)
12.01.2023 12:03 7,2 C 6,7 C 91 % 1013,0 hPa 0,0 l/m 28,5 km/h (4 Bft) S 185 0 min 0,0 UV-I 37 W/m 5,8 C -2,9 C 40,2 km/h (6 Bft)
12.01.2023 12:06 7,2 C 6,7 C 91 % 1013,0 hPa 0,2 l/m 31,1 km/h (5 Bft) SW 225 0 min 0,0 UV-I 29 W/m 5,8 C -3,5 C 45,1 km/h (6 Bft)
12.01.2023 12:09 7,2 C 6,7 C 91 % 1012,9 hPa 0,0 l/m 32,5 km/h (5 Bft) SW 229 0 min 0,0 UV-I 32 W/m 5,8 C -3,8 C 54,7 km/h (7 Bft)
12.01.2023 12:12 7,2 C 6,7 C 91 % 1012,8 hPa 0,0 l/m 31,5 km/h (5 Bft) S-SW 198 0 min 0,0 UV-I 40 W/m 5,8 C -3,6 C 45,1 km/h (6 Bft)
12.01.2023 12:15 7,2 C 6,7 C 91 % 1013,0 hPa 0,0 l/m 30,7 km/h (5 Bft) S-SW 204 0 min 0,0 UV-I 41 W/m 5,8 C -3,4 C 57,9 km/h (7 Bft)
12.01.2023 12:18 7,2 C 6,7 C 91 % 1012,8 hPa 0,0 l/m 27,1 km/h (4 Bft) S 177 0 min 0,0 UV-I 53 W/m 5,8 C -2,5 C 41,8 km/h (6 Bft)
12.01.2023 12:21 7,2 C 6,7 C 91 % 1012,8 hPa 0,0 l/m 28,5 km/h (4 Bft) SW 219 0 min 0,0 UV-I 51 W/m 5,8 C -2,9 C 48,3 km/h (6 Bft)
12.01.2023 12:24 7,3 C 6,7 C 91 % 1012,8 hPa 0,0 l/m 25,7 km/h (4 Bft) SW 228 0 min 0,0 UV-I 48 W/m 5,9 C -2,0 C 38,6 km/h (5 Bft)
12.01.2023 12:27 7,3 C 6,7 C 91 % 1012,9 hPa 0,0 l/m 29,1 km/h (5 Bft) S-SW 198 0 min 0,0 UV-I 48 W/m 5,9 C -2,9 C 56,3 km/h (7 Bft)
12.01.2023 12:30 7,3 C 6,7 C 91 % 1012,8 hPa 0,0 l/m 28,4 km/h (4 Bft) S-SW 211 0 min 0,0 UV-I 37 W/m 5,9 C -2,7 C 40,2 km/h (6 Bft)
12.01.2023 12:33 7,3 C 6,7 C 91 % 1012,9 hPa 0,0 l/m 35,1 km/h (5 Bft) S 188 0 min 0,0 UV-I 35 W/m 5,9 C -4,2 C 54,7 km/h (7 Bft)
12.01.2023 12:36 7,3 C 6,7 C 91 % 1012,8 hPa 0,0 l/m 33,5 km/h (5 Bft) S-SW 212 0 min 0,0 UV-I 32 W/m 5,9 C -3,9 C 49,9 km/h (6 Bft)
12.01.2023 12:39 7,3 C 6,7 C 91 % 1012,8 hPa 0,0 l/m 30,6 km/h (5 Bft) S-SW 211 0 min 0,0 UV-I 35 W/m 5,9 C -3,3 C 43,5 km/h (6 Bft)
12.01.2023 12:42 7,4 C 6,7 C 91 % 1012,9 hPa 0,0 l/m 30,7 km/h (5 Bft) S 169 0 min 0,0 UV-I 39 W/m 6,0 C -3,2 C 56,3 km/h (7 Bft)
12.01.2023 12:45 7,4 C 6,7 C 91 % 1012,8 hPa 0,0 l/m 26,0 km/h (4 Bft) S 179 0 min 0,0 UV-I 31 W/m 6,0 C -2,0 C 43,5 km/h (6 Bft)
12.01.2023 12:48 7,4 C 6,7 C 91 % 1012,8 hPa 0,2 l/m 32,1 km/h (5 Bft) S-SW 198 0 min 0,0 UV-I 30 W/m 6,0 C -3,5 C 53,1 km/h (7 Bft)
12.01.2023 12:51 7,4 C 6,7 C 91 % 1012,6 hPa 0,0 l/m 30,8 km/h (5 Bft) S-SW 206 0 min 0,0 UV-I 36 W/m 6,0 C -3,2 C 49,9 km/h (6 Bft)
12.01.2023 12:54 7,4 C 6,7 C 91 % 1012,6 hPa 0,0 l/m 29,5 km/h (5 Bft) S 190 0 min 0,0 UV-I 38 W/m 6,0 C -2,9 C 48,3 km/h (6 Bft)
12.01.2023 12:57 7,4 C 6,7 C 91 % 1012,6 hPa 0,2 l/m 28,2 km/h (4 Bft) S 174 0 min 0,0 UV-I 41 W/m 6,0 C -2,6 C 45,1 km/h (6 Bft)
12.01.2023 13:00 7,4 C 6,7 C 91 % 1012,6 hPa 0,0 l/m 37,6 km/h (5 Bft) S-SW 200 0 min 0,0 UV-I 31 W/m 6,0 C -4,6 C 53,1 km/h (7 Bft)
12.01.2023 13:03 7,4 C 6,7 C 91 % 1012,5 hPa 0,2 l/m 29,2 km/h (5 Bft) S 177 0 min 0,0 UV-I 30 W/m 6,0 C -2,8 C 46,7 km/h (6 Bft)
12.01.2023 13:06 7,4 C 6,7 C 91 % 1012,7 hPa 0,0 l/m 26,0 km/h (4 Bft) S-SW 213 0 min 0,0 UV-I 31 W/m 6,0 C -2,0 C 35,4 km/h (5 Bft)
12.01.2023 13:09 7,4 C 6,7 C 91 % 1012,5 hPa 0,0 l/m 31,9 km/h (5 Bft) S-SW 196 0 min 0,0 UV-I 32 W/m 6,0 C -3,4 C 45,1 km/h (6 Bft)
12.01.2023 13:12 7,4 C 6,7 C 91 % 1012,5 hPa 0,0 l/m 29,7 km/h (5 Bft) SW 219 0 min 0,0 UV-I 43 W/m 6,0 C -2,9 C 48,3 km/h (6 Bft)
12.01.2023 13:15 7,4 C 6,7 C 90 % 1012,5 hPa 0,2 l/m 30,0 km/h (5 Bft) S-SW 201 0 min 0,0 UV-I 50 W/m 5,9 C -3,0 C 49,9 km/h (6 Bft)
12.01.2023 13:18 7,4 C 6,7 C 90 % 1012,6 hPa 0,0 l/m 28,3 km/h (4 Bft) S-SO 168 0 min 0,0 UV-I 47 W/m 5,9 C -2,6 C 43,5 km/h (6 Bft)
12.01.2023 13:21 7,4 C 6,7 C 90 % 1012,5 hPa 0,0 l/m 22,4 km/h (4 Bft) S 186 0 min 0,0 UV-I 53 W/m 5,9 C -0,9 C 43,5 km/h (6 Bft)
12.01.2023 13:24 7,4 C 6,7 C 90 % 1012,3 hPa 0,0 l/m 31,1 km/h (5 Bft) SW 219 0 min 0,0 UV-I 58 W/m 5,9 C -3,3 C 46,7 km/h (6 Bft)
12.01.2023 13:27 7,5 C 6,7 C 90 % 1012,5 hPa 0,0 l/m 26,8 km/h (4 Bft) S-SW 197 0 min 0,0 UV-I 58 W/m 6,0 C -2,1 C 40,2 km/h (6 Bft)
12.01.2023 13:30 7,5 C 6,7 C 90 % 1012,4 hPa 0,0 l/m 28,4 km/h (4 Bft) SW 232 0 min 0,0 UV-I 46 W/m 6,0 C -2,5 C 48,3 km/h (6 Bft)
12.01.2023 13:33 7,6 C 6,7 C 90 % 1012,4 hPa 0,0 l/m 24,5 km/h (4 Bft) S 186 0 min 0,0 UV-I 38 W/m 6,1 C -1,3 C 37,0 km/h (5 Bft)
12.01.2023 13:36 7,6 C 6,7 C 90 % 1012,3 hPa 0,0 l/m 26,7 km/h (4 Bft) S-SW 211 0 min 0,0 UV-I 53 W/m 6,1 C -1,9 C 43,5 km/h (6 Bft)
12.01.2023 13:39 7,6 C 6,7 C 90 % 1012,3 hPa 0,0 l/m 27,0 km/h (4 Bft) S 175 0 min 0,0 UV-I 54 W/m 6,1 C -2,0 C 43,5 km/h (6 Bft)
12.01.2023 13:42 7,5 C 6,7 C 90 % 1012,2 hPa 0,0 l/m 27,2 km/h (4 Bft) S 186 0 min 0,0 UV-I 44 W/m 6,0 C -2,2 C 46,7 km/h (6 Bft)
12.01.2023 13:45 7,6 C 6,7 C 91 % 1012,4 hPa 0,0 l/m 22,9 km/h (4 Bft) S-SW 203 0 min 0,0 UV-I 51 W/m 6,2 C -0,8 C 38,6 km/h (5 Bft)
12.01.2023 13:48 7,5 C 6,7 C 91 % 1012,3 hPa 0,0 l/m 25,7 km/h (4 Bft) S-SO 159 0 min 0,0 UV-I 61 W/m 6,1 C -1,8 C 38,6 km/h (5 Bft)
12.01.2023 13:51 7,5 C 6,7 C 91 % 1012,2 hPa 0,0 l/m 27,6 km/h (4 Bft) S 188 0 min 0,0 UV-I 67 W/m 6,1 C -2,3 C 40,2 km/h (6 Bft)
12.01.2023 13:54 7,5 C 6,7 C 91 % 1012,2 hPa 0,0 l/m 31,9 km/h (5 Bft) S 184 0 min 0,0 UV-I 62 W/m 6,1 C -3,3 C 45,1 km/h (6 Bft)
12.01.2023 13:57 7,5 C 6,7 C 91 % 1012,3 hPa 0,0 l/m 23,8 km/h (4 Bft) S-SW 200 0 min 0,0 UV-I 42 W/m 6,1 C -1,2 C 35,4 km/h (5 Bft)
12.01.2023 14:00 7,5 C 6,7 C 91 % 1012,3 hPa 0,0 l/m 26,6 km/h (4 Bft) S 177 0 min 0,0 UV-I 29 W/m 6,1 C -2,0 C 45,1 km/h (6 Bft)
12.01.2023 14:03 7,5 C 6,7 C 91 % 1012,2 hPa 0,0 l/m 25,6 km/h (4 Bft) S-SW 213 0 min 0,0 UV-I 34 W/m 6,1 C -1,7 C 38,6 km/h (5 Bft)
12.01.2023 14:06 7,5 C 6,7 C 91 % 1012,2 hPa 0,0 l/m 27,0 km/h (4 Bft) S-SW 198 0 min 0,0 UV-I 34 W/m 6,1 C -2,1 C 48,3 km/h (6 Bft)
12.01.2023 14:09 7,5 C 6,7 C 91 % 1012,2 hPa 0,0 l/m 32,0 km/h (5 Bft) S 180 0 min 0,0 UV-I 24 W/m 6,1 C -3,3 C 54,7 km/h (7 Bft)
12.01.2023 14:12 7,5 C 6,7 C 91 % 1012,3 hPa 0,0 l/m 27,3 km/h (4 Bft) SW 219 0 min 0,0 UV-I 23 W/m 6,1 C -2,2 C 51,5 km/h (7 Bft)
12.01.2023 14:15 7,4 C 6,7 C 91 % 1012,1 hPa 0,0 l/m 25,5 km/h (4 Bft) S 186 0 min 0,0 UV-I 30 W/m 6,0 C -1,8 C 38,6 km/h (5 Bft)
12.01.2023 14:18 7,5 C 6,7 C 91 % 1012,1 hPa 0,0 l/m 29,2 km/h (5 Bft) S-SW 196 0 min 0,0 UV-I 34 W/m 6,1 C -2,7 C 46,7 km/h (6 Bft)
12.01.2023 14:21 7,5 C 6,7 C 91 % 1012,2 hPa 0,0 l/m 21,8 km/h (4 Bft) S-SW 198 0 min 0,0 UV-I 25 W/m 6,1 C -0,6 C 35,4 km/h (5 Bft)
12.01.2023 14:24 7,6 C 6,7 C 91 % 1012,1 hPa 0,0 l/m 24,1 km/h (4 Bft) S-SW 212 0 min 0,0 UV-I 24 W/m 6,2 C -1,2 C 41,8 km/h (6 Bft)
12.01.2023 14:27 7,5 C 6,7 C 91 % 1012,0 hPa 0,0 l/m 24,0 km/h (4 Bft) S-SW 213 0 min 0,0 UV-I 28 W/m 6,1 C -1,3 C 33,8 km/h (5 Bft)
12.01.2023 14:30 7,5 C 6,7 C 91 % 1012,0 hPa 0,0 l/m 27,2 km/h (4 Bft) SW 219 0 min 0,0 UV-I 32 W/m 6,1 C -2,2 C 38,6 km/h (5 Bft)
12.01.2023 14:33 7,4 C 6,7 C 91 % 1012,1 hPa 0,0 l/m 21,3 km/h (4 Bft) S 174 0 min 0,0 UV-I 27 W/m 6,0 C -0,5 C 32,2 km/h (5 Bft)
12.01.2023 14:36 7,4 C 6,7 C 91 % 1012,0 hPa 0,2 l/m 27,0 km/h (4 Bft) SW 220 0 min 0,0 UV-I 21 W/m 6,0 C -2,2 C 51,5 km/h (7 Bft)
12.01.2023 14:39 7,4 C 6,7 C 91 % 1012,1 hPa 0,0 l/m 21,4 km/h (4 Bft) S-SW 200 0 min 0,0 UV-I 15 W/m 6,0 C -0,6 C 43,5 km/h (6 Bft)
12.01.2023 14:42 7,5 C 6,7 C 91 % 1011,9 hPa 0,0 l/m 23,1 km/h (4 Bft) S-SW 192 0 min 0,0 UV-I 16 W/m 6,1 C -1,0 C 33,8 km/h (5 Bft)
12.01.2023 14:45 7,5 C 6,7 C 91 % 1011,9 hPa 0,0 l/m 22,2 km/h (4 Bft) S 169 0 min 0,0 UV-I 17 W/m 6,1 C -0,7 C 35,4 km/h (5 Bft)
12.01.2023 14:48 7,4 C 6,7 C 91 % 1012,0 hPa 0,0 l/m 24,8 km/h (4 Bft) SW 218 0 min 0,0 UV-I 19 W/m 6,0 C -1,6 C 40,2 km/h (6 Bft)
12.01.2023 14:51 7,5 C 6,7 C 91 % 1012,0 hPa 0,0 l/m 27,1 km/h (4 Bft) S-SW 200 0 min 0,0 UV-I 18 W/m 6,1 C -2,1 C 46,7 km/h (6 Bft)
12.01.2023 14:54 7,5 C 6,7 C 91 % 1012,1 hPa 0,0 l/m 22,9 km/h (4 Bft) S-SW 197 0 min 0,0 UV-I 19 W/m 6,1 C -0,9 C 32,2 km/h (5 Bft)
12.01.2023 14:57 7,5 C 6,7 C 91 % 1012,1 hPa 0,0 l/m 25,4 km/h (4 Bft) SW 219 0 min 0,0 UV-I 22 W/m 6,1 C -1,7 C 37,0 km/h (5 Bft)
12.01.2023 15:00 7,6 C 6,7 C 91 % 1012,1 hPa 0,0 l/m 21,0 km/h (4 Bft) S-SW 200 0 min 0,0 UV-I 26 W/m 6,2 C -0,2 C 37,0 km/h (5 Bft)
12.01.2023 15:03 7,6 C 6,7 C 91 % 1012,0 hPa 0,0 l/m 26,3 km/h (4 Bft) SW 215 0 min 0,0 UV-I 32 W/m 6,2 C -1,8 C 43,5 km/h (6 Bft)
12.01.2023 15:06 7,6 C 6,7 C 91 % 1012,0 hPa 0,0 l/m 25,8 km/h (4 Bft) S 188 0 min 0,0 UV-I 35 W/m 6,2 C -1,6 C 45,1 km/h (6 Bft)
12.01.2023 15:09 7,6 C 6,7 C 91 % 1012,0 hPa 0,0 l/m 29,8 km/h (5 Bft) S 182 0 min 0,0 UV-I 28 W/m 6,2 C -2,7 C 43,5 km/h (6 Bft)
12.01.2023 15:12 7,6 C 6,7 C 91 % 1012,1 hPa 0,0 l/m 19,1 km/h (3 Bft) S-SW 200 0 min 0,0 UV-I 21 W/m 6,2 C 0,5 C 29,0 km/h (5 Bft)
12.01.2023 15:15 7,6 C 6,7 C 91 % 1012,0 hPa 0,0 l/m 28,2 km/h (4 Bft) S-SW 200 0 min 0,0 UV-I 17 W/m 6,2 C -2,3 C 41,8 km/h (6 Bft)
12.01.2023 15:18 7,6 C 6,7 C 91 % 1012,0 hPa 0,0 l/m 23,5 km/h (4 Bft) S-SW 193 0 min 0,0 UV-I 12 W/m 6,2 C -1,0 C 48,3 km/h (6 Bft)
12.01.2023 15:21 7,6 C 6,7 C 91 % 1012,0 hPa 0,0 l/m 27,8 km/h (4 Bft) S-SO 159 0 min 0,0 UV-I 13 W/m 6,2 C -2,2 C 49,9 km/h (6 Bft)
12.01.2023 15:24 7,6 C 6,7 C 91 % 1012,0 hPa 0,0 l/m 23,7 km/h (4 Bft) S 176 0 min 0,0 UV-I 17 W/m 6,2 C -1,0 C 40,2 km/h (6 Bft)
12.01.2023 15:27 7,6 C 6,7 C 91 % 1012,0 hPa 0,0 l/m 24,6 km/h (4 Bft) S-SW 194 0 min 0,0 UV-I 12 W/m 6,2 C -1,3 C 38,6 km/h (5 Bft)
12.01.2023 15:30 7,6 C 6,7 C 91 % 1011,9 hPa 0,0 l/m 25,3 km/h (4 Bft) S 175 0 min 0,0 UV-I 14 W/m 6,2 C -1,5 C 41,8 km/h (6 Bft)
12.01.2023 15:33 7,6 C 6,7 C 91 % 1011,9 hPa 0,0 l/m 22,3 km/h (4 Bft) S 177 0 min 0,0 UV-I 15 W/m 6,2 C -0,6 C 40,2 km/h (6 Bft)
12.01.2023 15:36 7,6 C 6,7 C 91 % 1011,9 hPa 0,0 l/m 24,5 km/h (4 Bft) S-SO 152 0 min 0,0 UV-I 15 W/m 6,2 C -1,3 C 37,0 km/h (5 Bft)
12.01.2023 15:39 7,6 C 6,7 C 91 % 1012,0 hPa 0,0 l/m 23,6 km/h (4 Bft) SW 236 0 min 0,0 UV-I 12 W/m 6,2 C -1,0 C 38,6 km/h (5 Bft)
12.01.2023 15:42 7,6 C 6,7 C 91 % 1011,9 hPa 0,0 l/m 24,7 km/h (4 Bft) SW 223 0 min 0,0 UV-I 11 W/m 6,2 C -1,3 C 38,6 km/h (5 Bft)
12.01.2023 15:45 7,6 C 6,7 C 91 % 1011,9 hPa 0,0 l/m 27,3 km/h (4 Bft) S 176 0 min 0,0 UV-I 9 W/m 6,2 C -2,1 C 43,5 km/h (6 Bft)
12.01.2023 15:48 7,6 C 6,7 C 91 % 1011,8 hPa 0,0 l/m 30,2 km/h (5 Bft) S 190 0 min 0,0 UV-I 8 W/m 6,2 C -2,8 C 49,9 km/h (6 Bft)
12.01.2023 15:51 7,6 C 6,7 C 91 % 1011,9 hPa 0,0 l/m 23,9 km/h (4 Bft) S-SW 192 0 min 0,0 UV-I 10 W/m 6,2 C -1,1 C 37,0 km/h (5 Bft)
12.01.2023 15:54 7,7 C 6,7 C 90 % 1011,8 hPa 0,0 l/m 30,7 km/h (5 Bft) SW 217 0 min 0,0 UV-I 11 W/m 6,2 C -2,7 C 48,3 km/h (6 Bft)
12.01.2023 15:57 7,6 C 6,7 C 91 % 1012,0 hPa 0,0 l/m 24,2 km/h (4 Bft) S-SW 208 0 min 0,0 UV-I 10 W/m 6,2 C -1,2 C 41,8 km/h (6 Bft)
12.01.2023 16:00 7,7 C 6,7 C 91 % 1011,9 hPa 0,0 l/m 21,5 km/h (4 Bft) S-SW 210 0 min 0,0 UV-I 9 W/m 6,3 C -0,2 C 30,6 km/h (5 Bft)
12.01.2023 16:03 7,6 C 6,7 C 90 % 1011,8 hPa 0,0 l/m 26,7 km/h (4 Bft) S-SW 204 0 min 0,0 UV-I 7 W/m 6,1 C -1,9 C 45,1 km/h (6 Bft)
12.01.2023 16:06 7,6 C 6,7 C 91 % 1011,9 hPa 0,0 l/m 24,9 km/h (4 Bft) S-SW 212 0 min 0,0 UV-I 6 W/m 6,2 C -1,4 C 37,0 km/h (5 Bft)
12.01.2023 16:09 7,6 C 6,7 C 91 % 1011,8 hPa 0,0 l/m 23,2 km/h (4 Bft) S-SW 200 0 min 0,0 UV-I 6 W/m 6,2 C -0,9 C 38,6 km/h (5 Bft)
12.01.2023 16:12 7,6 C 6,7 C 91 % 1011,7 hPa 0,0 l/m 30,0 km/h (5 Bft) S 188 0 min 0,0 UV-I 5 W/m 6,2 C -2,7 C 57,9 km/h (7 Bft)
12.01.2023 16:15 7,6 C 6,7 C 91 % 1011,8 hPa 0,0 l/m 25,2 km/h (4 Bft) S-SW 194 0 min 0,0 UV-I 4 W/m 6,2 C -1,5 C 41,8 km/h (6 Bft)
12.01.2023 16:18 7,5 C 6,7 C 91 % 1011,7 hPa 0,0 l/m 26,2 km/h (4 Bft) S-SW 211 0 min 0,0 UV-I 1 W/m 6,1 C -1,9 C 46,7 km/h (6 Bft)
12.01.2023 16:21 7,5 C 6,7 C 91 % 1011,7 hPa 0,2 l/m 25,5 km/h (4 Bft) S-SW 209 0 min 0,0 UV-I 0 W/m 6,1 C -1,7 C 37,0 km/h (5 Bft)
12.01.2023 16:24 7,5 C 6,7 C 91 % 1011,7 hPa 0,0 l/m 22,7 km/h (4 Bft) W-SW 245 0 min 0,0 UV-I 0 W/m 6,1 C -0,9 C 33,8 km/h (5 Bft)
12.01.2023 16:27 7,5 C 6,7 C 91 % 1011,6 hPa 0,0 l/m 26,6 km/h (4 Bft) SW 214 0 min 0,0 UV-I 0 W/m 6,1 C -2,0 C 40,2 km/h (6 Bft)
12.01.2023 16:30 7,5 C 6,7 C 91 % 1011,6 hPa 0,0 l/m 23,6 km/h (4 Bft) S-SW 205 0 min 0,0 UV-I 0 W/m 6,1 C -1,1 C 40,2 km/h (6 Bft)
12.01.2023 16:33 7,4 C 6,7 C 91 % 1011,6 hPa 0,0 l/m 26,0 km/h (4 Bft) S-SW 192 0 min 0,0 UV-I 0 W/m 6,0 C -2,0 C 40,2 km/h (6 Bft)
12.01.2023 16:36 7,4 C 6,7 C 91 % 1011,7 hPa 0,0 l/m 23,8 km/h (4 Bft) S 184 0 min 0,0 UV-I 0 W/m 6,0 C -1,3 C 41,8 km/h (6 Bft)
12.01.2023 16:39 7,4 C 6,7 C 91 % 1011,5 hPa 0,0 l/m 22,3 km/h (4 Bft) SW 215 0 min 0,0 UV-I 0 W/m 6,0 C -0,9 C 40,2 km/h (6 Bft)
12.01.2023 16:42 7,4 C 6,7 C 91 % 1011,6 hPa 0,0 l/m 20,8 km/h (4 Bft) S 171 0 min 0,0 UV-I 0 W/m 6,0 C -0,4 C 32,2 km/h (5 Bft)
12.01.2023 16:45 7,4 C 6,7 C 91 % 1011,6 hPa 0,0 l/m 22,5 km/h (4 Bft) S-SW 211 0 min 0,0 UV-I 0 W/m 6,0 C -0,9 C 35,4 km/h (5 Bft)
12.01.2023 16:48 7,4 C 6,7 C 91 % 1011,5 hPa 0,0 l/m 22,2 km/h (4 Bft) S 191 0 min 0,0 UV-I 0 W/m 6,0 C -0,8 C 38,6 km/h (5 Bft)
12.01.2023 16:51 7,4 C 6,7 C 91 % 1011,5 hPa 0,0 l/m 21,5 km/h (4 Bft) S 188 0 min 0,0 UV-I 0 W/m 6,0 C -0,6 C 32,2 km/h (5 Bft)
12.01.2023 16:54 7,4 C 6,7 C 91 % 1011,6 hPa 0,0 l/m 24,5 km/h (4 Bft) S-SO 163 0 min 0,0 UV-I 0 W/m 6,0 C -1,5 C 41,8 km/h (6 Bft)
12.01.2023 16:57 7,4 C 6,7 C 91 % 1011,5 hPa 0,0 l/m 28,2 km/h (4 Bft) W-SW 238 0 min 0,0 UV-I 0 W/m 6,0 C -2,6 C 41,8 km/h (6 Bft)
12.01.2023 17:00 7,4 C 6,7 C 91 % 1011,4 hPa 0,0 l/m 29,5 km/h (5 Bft) S 186 0 min 0,0 UV-I 0 W/m 6,0 C -2,9 C 40,2 km/h (6 Bft)
12.01.2023 17:03 7,4 C 6,7 C 91 % 1011,4 hPa 0,0 l/m 28,0 km/h (4 Bft) S-SW 205 0 min 0,0 UV-I 0 W/m 6,0 C -2,5 C 41,8 km/h (6 Bft)
12.01.2023 17:06 7,4 C 6,7 C 91 % 1011,4 hPa 0,0 l/m 28,3 km/h (4 Bft) S 190 0 min 0,0 UV-I 0 W/m 6,0 C -2,6 C 40,2 km/h (6 Bft)
12.01.2023 17:09 7,4 C 6,7 C 91 % 1011,5 hPa 0,0 l/m 23,5 km/h (4 Bft) S-SW 200 0 min 0,0 UV-I 0 W/m 6,0 C -1,2 C 48,3 km/h (6 Bft)
12.01.2023 17:12 7,4 C 6,7 C 91 % 1011,3 hPa 0,0 l/m 23,9 km/h (4 Bft) S 190 0 min 0,0 UV-I 0 W/m 6,0 C -1,4 C 41,8 km/h (6 Bft)
12.01.2023 17:15 7,4 C 6,7 C 91 % 1011,3 hPa 0,2 l/m 24,1 km/h (4 Bft) S 186 0 min 0,0 UV-I 0 W/m 6,0 C -1,4 C 41,8 km/h (6 Bft)
12.01.2023 17:18 7,4 C 6,7 C 91 % 1011,3 hPa 0,0 l/m 21,4 km/h (4 Bft) S-SW 210 0 min 0,0 UV-I 0 W/m 6,0 C -0,6 C 38,6 km/h (5 Bft)
12.01.2023 17:21 7,4 C 6,7 C 91 % 1011,1 hPa 0,0 l/m 21,0 km/h (4 Bft) S 184 0 min 0,0 UV-I 0 W/m 6,0 C -0,4 C 38,6 km/h (5 Bft)
12.01.2023 17:24 7,4 C 6,7 C 91 % 1011,2 hPa 0,0 l/m 24,3 km/h (4 Bft) SW 215 0 min 0,0 UV-I 0 W/m 6,0 C -1,5 C 40,2 km/h (6 Bft)
12.01.2023 17:27 7,4 C 6,7 C 91 % 1011,2 hPa 0,0 l/m 23,6 km/h (4 Bft) S-SW 203 0 min 0,0 UV-I 0 W/m 6,0 C -1,3 C 37,0 km/h (5 Bft)
12.01.2023 17:30 7,4 C 6,7 C 91 % 1011,2 hPa 0,0 l/m 23,3 km/h (4 Bft) S 176 0 min 0,0 UV-I 0 W/m 6,0 C -1,2 C 38,6 km/h (5 Bft)
12.01.2023 17:33 7,4 C 6,7 C 91 % 1011,2 hPa 0,0 l/m 20,2 km/h (4 Bft) S-SW 207 0 min 0,0 UV-I 0 W/m 6,0 C -0,1 C 32,2 km/h (5 Bft)
12.01.2023 17:36 7,4 C 6,7 C 91 % 1011,1 hPa 0,0 l/m 23,1 km/h (4 Bft) S-SW 199 0 min 0,0 UV-I 0 W/m 6,0 C -1,1 C 40,2 km/h (6 Bft)
12.01.2023 17:39 7,4 C 6,7 C 91 % 1011,1 hPa 0,0 l/m 26,3 km/h (4 Bft) S 188 0 min 0,0 UV-I 0 W/m 6,0 C -2,1 C 43,5 km/h (6 Bft)
12.01.2023 17:42 7,4 C 6,7 C 91 % 1011,0 hPa 0,0 l/m 21,4 km/h (4 Bft) SW 224 0 min 0,0 UV-I 0 W/m 6,0 C -0,6 C 32,2 km/h (5 Bft)
12.01.2023 17:45 7,4 C 6,7 C 91 % 1011,1 hPa 0,0 l/m 27,9 km/h (4 Bft) S 185 0 min 0,0 UV-I 0 W/m 6,0 C -2,5 C 38,6 km/h (5 Bft)
12.01.2023 17:48 7,4 C 6,7 C 91 % 1011,2 hPa 0,0 l/m 21,3 km/h (4 Bft) S-SW 212 0 min 0,0 UV-I 0 W/m 6,0 C -0,5 C 40,2 km/h (6 Bft)
12.01.2023 17:51 7,4 C 6,7 C 91 % 1011,0 hPa 0,0 l/m 27,1 km/h (4 Bft) S-SO 158 0 min 0,0 UV-I 0 W/m 6,0 C -2,3 C 41,8 km/h (6 Bft)
12.01.2023 17:54 7,4 C 6,7 C 91 % 1011,0 hPa 0,0 l/m 25,4 km/h (4 Bft) SW 217 0 min 0,0 UV-I 0 W/m 6,0 C -1,8 C 40,2 km/h (6 Bft)
12.01.2023 17:57 7,4 C 6,7 C 91 % 1011,0 hPa 0,0 l/m 29,0 km/h (5 Bft) S-SW 202 0 min 0,0 UV-I 0 W/m 6,0 C -2,8 C 41,8 km/h (6 Bft)
12.01.2023 18:00 7,4 C 6,7 C 91 % 1011,0 hPa 0,0 l/m 28,0 km/h (4 Bft) S 190 0 min 0,0 UV-I 0 W/m 6,0 C -2,5 C 43,5 km/h (6 Bft)
12.01.2023 18:03 7,4 C 6,7 C 91 % 1010,9 hPa 0,0 l/m 31,4 km/h (5 Bft) SW 214 0 min 0,0 UV-I 0 W/m 6,0 C -3,3 C 48,3 km/h (6 Bft)
12.01.2023 18:06 7,4 C 6,7 C 91 % 1010,8 hPa 0,0 l/m 31,2 km/h (5 Bft) S 178 0 min 0,0 UV-I 0 W/m 6,0 C -3,3 C 57,9 km/h (7 Bft)
12.01.2023 18:09 7,4 C 6,7 C 91 % 1010,9 hPa 0,0 l/m 26,7 km/h (4 Bft) S-SW 198 0 min 0,0 UV-I 0 W/m 6,0 C -2,2 C 45,1 km/h (6 Bft)
12.01.2023 18:12 7,4 C 6,7 C 91 % 1010,8 hPa 0,0 l/m 25,6 km/h (4 Bft) S-SW 197 0 min 0,0 UV-I 0 W/m 6,0 C -1,9 C 38,6 km/h (5 Bft)
12.01.2023 18:15 7,4 C 6,7 C 91 % 1010,7 hPa 0,0 l/m 26,6 km/h (4 Bft) S 177 0 min 0,0 UV-I 0 W/m 6,0 C -2,1 C 40,2 km/h (6 Bft)
12.01.2023 18:18 7,4 C 6,7 C 91 % 1010,8 hPa 0,0 l/m 26,8 km/h (4 Bft) S 190 0 min 0,0 UV-I 0 W/m 6,0 C -2,2 C 43,5 km/h (6 Bft)
12.01.2023 18:21 7,4 C 6,7 C 91 % 1010,8 hPa 0,0 l/m 26,8 km/h (4 Bft) S 175 0 min 0,0 UV-I 0 W/m 6,0 C -2,2 C 46,7 km/h (6 Bft)
12.01.2023 18:24 7,4 C 6,7 C 91 % 1010,7 hPa 0,0 l/m 33,5 km/h (5 Bft) S-SW 192 0 min 0,0 UV-I 0 W/m 6,0 C -3,8 C 54,7 km/h (7 Bft)
12.01.2023 18:27 7,5 C 6,7 C 91 % 1010,7 hPa 0,0 l/m 27,6 km/h (4 Bft) S 190 0 min 0,0 UV-I 0 W/m 6,1 C -2,3 C 41,8 km/h (6 Bft)
12.01.2023 18:30 7,5 C 6,7 C 91 % 1010,6 hPa 0,0 l/m 28,5 km/h (4 Bft) S 171 0 min 0,0 UV-I 0 W/m 6,1 C -2,5 C 53,1 km/h (7 Bft)
12.01.2023 18:33 7,5 C 6,7 C 91 % 1010,7 hPa 0,0 l/m 25,8 km/h (4 Bft) S 190 0 min 0,0 UV-I 0 W/m 6,1 C -1,8 C 51,5 km/h (7 Bft)
12.01.2023 18:36 7,5 C 6,7 C 91 % 1010,7 hPa 0,0 l/m 23,7 km/h (4 Bft) S 191 0 min 0,0 UV-I 0 W/m 6,1 C -1,2 C 33,8 km/h (5 Bft)
12.01.2023 18:39 7,4 C 6,7 C 91 % 1010,6 hPa 0,0 l/m 24,7 km/h (4 Bft) S 169 0 min 0,0 UV-I 0 W/m 6,0 C -1,6 C 41,8 km/h (6 Bft)
12.01.2023 18:42 7,4 C 6,7 C 91 % 1010,6 hPa 0,0 l/m 19,8 km/h (3 Bft) S 175 0 min 0,0 UV-I 0 W/m 6,0 C 0,0 C 33,8 km/h (5 Bft)
12.01.2023 18:45 7,4 C 6,7 C 91 % 1010,6 hPa 0,0 l/m 23,8 km/h (4 Bft) SW 217 0 min 0,0 UV-I 0 W/m 6,0 C -1,3 C 40,2 km/h (6 Bft)
12.01.2023 18:48 7,4 C 6,7 C 91 % 1010,6 hPa 0,0 l/m 27,2 km/h (4 Bft) S 187 0 min 0,0 UV-I 0 W/m 6,0 C -2,3 C 40,2 km/h (6 Bft)
12.01.2023 18:51 7,4 C 6,7 C 91 % 1010,7 hPa 0,0 l/m 29,4 km/h (5 Bft) S-SW 194 0 min 0,0 UV-I 0 W/m 6,0 C -2,9 C 53,1 km/h (7 Bft)
12.01.2023 18:54 7,4 C 6,7 C 91 % 1010,7 hPa 0,0 l/m 29,1 km/h (5 Bft) S 173 0 min 0,0 UV-I 0 W/m 6,0 C -2,8 C 48,3 km/h (6 Bft)
12.01.2023 18:57 7,4 C 6,7 C 91 % 1010,6 hPa 0,0 l/m 28,4 km/h (4 Bft) SW 227 0 min 0,0 UV-I 0 W/m 6,0 C -2,6 C 41,8 km/h (6 Bft)
12.01.2023 19:00 7,4 C 6,7 C 91 % 1010,7 hPa 0,0 l/m 27,9 km/h (4 Bft) S 190 0 min 0,0 UV-I 0 W/m 6,0 C -2,5 C 40,2 km/h (6 Bft)
12.01.2023 19:03 7,4 C 6,7 C 91 % 1010,7 hPa 0,0 l/m 27,4 km/h (4 Bft) S-SW 205 0 min 0,0 UV-I 0 W/m 6,0 C -2,4 C 40,2 km/h (6 Bft)
12.01.2023 19:06 7,4 C 6,7 C 91 % 1010,7 hPa 0,2 l/m 28,9 km/h (5 Bft) S-SO 161 0 min 0,0 UV-I 0 W/m 6,0 C -2,7 C 46,7 km/h (6 Bft)
12.01.2023 19:09 7,5 C 6,7 C 92 % 1010,7 hPa 0,0 l/m 27,0 km/h (4 Bft) S-SW 197 0 min 0,0 UV-I 0 W/m 6,3 C -2,1 C 45,1 km/h (6 Bft)
12.01.2023 19:12 7,6 C 6,7 C 91 % 1010,7 hPa 0,0 l/m 28,0 km/h (4 Bft) S 186 0 min 0,0 UV-I 0 W/m 6,2 C -2,2 C 51,5 km/h (7 Bft)
12.01.2023 19:15 7,6 C 6,7 C 91 % 1010,7 hPa 0,0 l/m 30,0 km/h (5 Bft) S 184 0 min 0,0 UV-I 0 W/m 6,2 C -2,7 C 46,7 km/h (6 Bft)
12.01.2023 19:18 7,5 C 6,7 C 91 % 1010,6 hPa 0,0 l/m 26,2 km/h (4 Bft) S-SW 208 0 min 0,0 UV-I 0 W/m 6,1 C -1,9 C 40,2 km/h (6 Bft)
12.01.2023 19:21 7,5 C 6,7 C 91 % 1010,6 hPa 0,0 l/m 25,5 km/h (4 Bft) SW 223 0 min 0,0 UV-I 0 W/m 6,1 C -1,7 C 40,2 km/h (6 Bft)
12.01.2023 19:24 7,5 C 6,7 C 91 % 1010,5 hPa 0,0 l/m 30,1 km/h (5 Bft) S-SO 166 0 min 0,0 UV-I 0 W/m 6,1 C -2,9 C 51,5 km/h (7 Bft)
12.01.2023 19:27 7,6 C 6,7 C 91 % 1010,5 hPa 0,0 l/m 29,6 km/h (5 Bft) S-SW 192 0 min 0,0 UV-I 0 W/m 6,2 C -2,6 C 46,7 km/h (6 Bft)
12.01.2023 19:30 7,6 C 6,7 C 91 % 1010,4 hPa 0,0 l/m 30,6 km/h (5 Bft) S-SW 198 0 min 0,0 UV-I 0 W/m 6,2 C -2,9 C 61,2 km/h (7 Bft)
12.01.2023 19:33 7,6 C 6,7 C 91 % 1010,3 hPa 0,0 l/m 32,3 km/h (5 Bft) S 190 0 min 0,0 UV-I 0 W/m 6,2 C -3,2 C 61,2 km/h (7 Bft)
12.01.2023 19:36 7,6 C 6,7 C 91 % 1010,5 hPa 0,0 l/m 35,8 km/h (5 Bft) S-SW 205 0 min 0,0 UV-I 0 W/m 6,2 C -3,9 C 53,1 km/h (7 Bft)
12.01.2023 19:39 7,6 C 6,7 C 91 % 1010,5 hPa 0,0 l/m 33,0 km/h (5 Bft) S 177 0 min 0,0 UV-I 0 W/m 6,2 C -3,4 C 62,8 km/h (8 Bft)
12.01.2023 19:42 7,7 C 6,7 C 91 % 1010,5 hPa 0,0 l/m 33,0 km/h (5 Bft) S 171 0 min 0,0 UV-I 0 W/m 6,3 C -3,2 C 51,5 km/h (7 Bft)
12.01.2023 19:45 7,7 C 6,7 C 91 % 1010,6 hPa 0,0 l/m 25,2 km/h (4 Bft) S 184 0 min 0,0 UV-I 0 W/m 6,3 C -1,3 C 45,1 km/h (6 Bft)
12.01.2023 19:48 7,7 C 6,7 C 91 % 1010,6 hPa 0,0 l/m 32,5 km/h (5 Bft) S-SW 205 0 min 0,0 UV-I 0 W/m 6,3 C -3,1 C 53,1 km/h (7 Bft)
12.01.2023 19:51 7,7 C 6,7 C 91 % 1010,6 hPa 0,0 l/m 28,7 km/h (4 Bft) S-SO 166 0 min 0,0 UV-I 0 W/m 6,3 C -2,3 C 43,5 km/h (6 Bft)
12.01.2023 19:54 7,7 C 6,7 C 91 % 1010,7 hPa 0,0 l/m 27,2 km/h (4 Bft) S 177 0 min 0,0 UV-I 0 W/m 6,3 C -1,9 C 43,5 km/h (6 Bft)
12.01.2023 19:57 7,7 C 6,7 C 91 % 1010,8 hPa 0,0 l/m 30,8 km/h (5 Bft) S-SW 208 0 min 0,0 UV-I 0 W/m 6,3 C -2,8 C 51,5 km/h (7 Bft)
12.01.2023 20:00 7,7 C 6,7 C 91 % 1010,7 hPa 0,0 l/m 29,7 km/h (5 Bft) S 180 0 min 0,0 UV-I 0 W/m 6,3 C -2,5 C 41,8 km/h (6 Bft)
12.01.2023 20:03 7,7 C 6,7 C 91 % 1010,8 hPa 0,0 l/m 26,3 km/h (4 Bft) S-SW 192 0 min 0,0 UV-I 0 W/m 6,3 C -1,6 C 45,1 km/h (6 Bft)
12.01.2023 20:06 7,7 C 6,7 C 91 % 1010,8 hPa 0,0 l/m 31,0 km/h (5 Bft) S-SO 164 0 min 0,0 UV-I 0 W/m 6,3 C -2,8 C 59,5 km/h (7 Bft)
12.01.2023 20:09 7,7 C 6,7 C 91 % 1010,8 hPa 0,0 l/m 26,2 km/h (4 Bft) S 187 0 min 0,0 UV-I 0 W/m 6,3 C -1,6 C 49,9 km/h (6 Bft)
12.01.2023 20:12 7,7 C 6,7 C 91 % 1010,5 hPa 0,2 l/m 33,2 km/h (5 Bft) S-SW 199 0 min 0,0 UV-I 0 W/m 6,3 C -3,3 C 49,9 km/h (6 Bft)
12.01.2023 20:15 7,7 C 6,7 C 91 % 1010,7 hPa 0,0 l/m 29,3 km/h (5 Bft) S-SW 210 0 min 0,0 UV-I 0 W/m 6,3 C -2,4 C 49,9 km/h (6 Bft)
12.01.2023 20:18 7,7 C 6,7 C 91 % 1010,8 hPa 0,0 l/m 28,4 km/h (4 Bft) S 171 0 min 0,0 UV-I 0 W/m 6,3 C -2,2 C 40,2 km/h (6 Bft)
12.01.2023 20:21 7,6 C 6,7 C 90 % 1010,7 hPa 0,0 l/m 27,7 km/h (4 Bft) S 191 0 min 0,0 UV-I 0 W/m 6,1 C -2,2 C 43,5 km/h (6 Bft)
12.01.2023 20:24 7,6 C 6,7 C 90 % 1010,6 hPa 0,2 l/m 29,8 km/h (5 Bft) S 173 0 min 0,0 UV-I 0 W/m 6,1 C -2,7 C 43,5 km/h (6 Bft)
12.01.2023 20:27 7,6 C 6,7 C 90 % 1010,5 hPa 0,0 l/m 26,4 km/h (4 Bft) S 182 0 min 0,0 UV-I 0 W/m 6,1 C -1,8 C 38,6 km/h (5 Bft)
12.01.2023 20:30 7,6 C 6,7 C 90 % 1010,5 hPa 0,0 l/m 22,5 km/h (4 Bft) SW 230 0 min 0,0 UV-I 0 W/m 6,1 C -0,7 C 43,5 km/h (6 Bft)
12.01.2023 20:33 7,5 C 6,7 C 91 % 1010,5 hPa 0,0 l/m 20,8 km/h (4 Bft) S-SW 200 0 min 0,0 UV-I 0 W/m 6,1 C -0,2 C 33,8 km/h (5 Bft)
12.01.2023 20:36 7,5 C 6,7 C 91 % 1010,6 hPa 0,2 l/m 24,5 km/h (4 Bft) SW 220 0 min 0,0 UV-I 0 W/m 6,1 C -1,4 C 40,2 km/h (6 Bft)
12.01.2023 20:39 7,5 C 6,7 C 91 % 1010,4 hPa 0,0 l/m 28,0 km/h (4 Bft) S 178 0 min 0,0 UV-I 0 W/m 6,1 C -2,4 C 41,8 km/h (6 Bft)
12.01.2023 20:42 7,5 C 6,7 C 91 % 1010,5 hPa 0,0 l/m 25,0 km/h (4 Bft) S-SW 209 0 min 0,0 UV-I 0 W/m 6,1 C -1,6 C 37,0 km/h (5 Bft)
12.01.2023 20:45 7,4 C 6,7 C 91 % 1010,5 hPa 0,0 l/m 30,9 km/h (5 Bft) S 184 0 min 0,0 UV-I 0 W/m 6,0 C -3,2 C 53,1 km/h (7 Bft)
12.01.2023 20:48 7,4 C 6,7 C 91 % 1010,5 hPa 0,2 l/m 27,8 km/h (4 Bft) SW 228 0 min 0,0 UV-I 0 W/m 6,0 C -2,5 C 41,8 km/h (6 Bft)
12.01.2023 20:51 7,4 C 6,7 C 91 % 1010,3 hPa 0,0 l/m 27,7 km/h (4 Bft) S 191 0 min 0,0 UV-I 0 W/m 6,0 C -2,4 C 43,5 km/h (6 Bft)
12.01.2023 20:54 7,4 C 6,7 C 91 % 1010,3 hPa 0,0 l/m 22,7 km/h (4 Bft) S 188 0 min 0,0 UV-I 0 W/m 6,0 C -1,0 C 38,6 km/h (5 Bft)
12.01.2023 20:57 7,4 C 6,7 C 91 % 1010,1 hPa 0,2 l/m 29,7 km/h (5 Bft) S 191 0 min 0,0 UV-I 0 W/m 6,0 C -2,9 C 41,8 km/h (6 Bft)
12.01.2023 21:00 7,4 C 6,7 C 91 % 1010,2 hPa 0,0 l/m 23,6 km/h (4 Bft) S-SW 198 0 min 0,0 UV-I 0 W/m 6,0 C -1,3 C 45,1 km/h (6 Bft)
12.01.2023 21:03 7,4 C 6,7 C 91 % 1010,1 hPa 0,0 l/m 24,7 km/h (4 Bft) S 179 0 min 0,0 UV-I 0 W/m 6,0 C -1,6 C 38,6 km/h (5 Bft)
12.01.2023 21:06 7,3 C 6,7 C 91 % 1010,2 hPa 0,2 l/m 26,8 km/h (4 Bft) S 184 0 min 0,0 UV-I 0 W/m 5,9 C -2,3 C 40,2 km/h (6 Bft)
12.01.2023 21:09 7,4 C 6,7 C 91 % 1010,1 hPa 0,0 l/m 23,3 km/h (4 Bft) S-SO 154 0 min 0,0 UV-I 0 W/m 6,0 C -1,2 C 35,4 km/h (5 Bft)
12.01.2023 21:12 7,3 C 6,7 C 91 % 1010,0 hPa 0,2 l/m 29,3 km/h (5 Bft) S-SW 198 0 min 0,0 UV-I 0 W/m 5,9 C -3,0 C 56,3 km/h (7 Bft)
12.01.2023 21:15 7,4 C 6,7 C 91 % 1010,1 hPa 0,0 l/m 27,8 km/h (4 Bft) S 183 0 min 0,0 UV-I 0 W/m 6,0 C -2,5 C 46,7 km/h (6 Bft)
12.01.2023 21:18 7,4 C 6,7 C 91 % 1010,0 hPa 0,0 l/m 32,5 km/h (5 Bft) S-SW 196 0 min 0,0 UV-I 0 W/m 6,0 C -3,6 C 49,9 km/h (6 Bft)
12.01.2023 21:21 7,4 C 6,7 C 91 % 1010,0 hPa 0,2 l/m 28,4 km/h (4 Bft) S 187 0 min 0,0 UV-I 0 W/m 6,0 C -2,6 C 41,8 km/h (6 Bft)
12.01.2023 21:24 7,4 C 6,7 C 91 % 1010,0 hPa 0,0 l/m 32,8 km/h (5 Bft) S-SW 208 0 min 0,0 UV-I 0 W/m 6,0 C -3,6 C 46,7 km/h (6 Bft)
12.01.2023 21:27 7,4 C 6,7 C 91 % 1009,9 hPa 0,0 l/m 25,1 km/h (4 Bft) S 186 0 min 0,0 UV-I 0 W/m 6,0 C -1,7 C 37,0 km/h (5 Bft)
12.01.2023 21:30 7,4 C 6,7 C 91 % 1010,0 hPa 0,2 l/m 26,5 km/h (4 Bft) S 180 0 min 0,0 UV-I 0 W/m 6,0 C -2,1 C 41,8 km/h (6 Bft)
12.01.2023 21:33 7,4 C 6,7 C 91 % 1009,9 hPa 0,0 l/m 28,6 km/h (4 Bft) S-SW 203 0 min 0,0 UV-I 0 W/m 6,0 C -2,7 C 45,1 km/h (6 Bft)
12.01.2023 21:36 7,4 C 6,7 C 91 % 1009,9 hPa 0,2 l/m 26,1 km/h (4 Bft) S 191 0 min 0,0 UV-I 0 W/m 6,0 C -2,0 C 41,8 km/h (6 Bft)
12.01.2023 21:39 7,4 C 6,7 C 91 % 1009,8 hPa 0,0 l/m 26,0 km/h (4 Bft) S 173 0 min 0,0 UV-I 0 W/m 6,0 C -2,0 C 38,6 km/h (5 Bft)
12.01.2023 21:42 7,4 C 6,7 C 91 % 1009,9 hPa 0,2 l/m 33,7 km/h (5 Bft) S-SW 207 0 min 0,0 UV-I 0 W/m 6,0 C -3,8 C 61,2 km/h (7 Bft)
12.01.2023 21:45 7,4 C 6,7 C 91 % 1009,7 hPa 0,0 l/m 28,2 km/h (4 Bft) S 189 0 min 0,0 UV-I 0 W/m 6,0 C -2,6 C 41,8 km/h (6 Bft)
12.01.2023 21:48 7,4 C 6,7 C 91 % 1009,8 hPa 0,0 l/m 25,7 km/h (4 Bft) S-SW 196 0 min 0,0 UV-I 0 W/m 6,0 C -1,9 C 41,8 km/h (6 Bft)
12.01.2023 21:51 7,4 C 6,7 C 91 % 1009,7 hPa 0,2 l/m 29,2 km/h (5 Bft) S 175 0 min 0,0 UV-I 0 W/m 6,0 C -2,8 C 46,7 km/h (6 Bft)
12.01.2023 21:54 7,4 C 6,7 C 91 % 1009,7 hPa 0,0 l/m 24,9 km/h (4 Bft) S-SW 201 0 min 0,0 UV-I 0 W/m 6,0 C -1,7 C 38,6 km/h (5 Bft)
12.01.2023 21:57 7,4 C 6,7 C 91 % 1009,7 hPa 0,0 l/m 28,4 km/h (4 Bft) S-SW 192 0 min 0,0 UV-I 0 W/m 6,0 C -2,6 C 43,5 km/h (6 Bft)
12.01.2023 22:00 7,4 C 6,7 C 91 % 1009,7 hPa 0,2 l/m 27,6 km/h (4 Bft) SW 225 0 min 0,0 UV-I 0 W/m 6,0 C -2,4 C 43,5 km/h (6 Bft)
12.01.2023 22:03 7,4 C 6,7 C 91 % 1009,8 hPa 0,0 l/m 27,5 km/h (4 Bft) S 191 0 min 0,0 UV-I 0 W/m 6,0 C -2,4 C 46,7 km/h (6 Bft)
12.01.2023 22:06 7,4 C 6,7 C 91 % 1009,7 hPa 0,2 l/m 23,4 km/h (4 Bft) S 183 0 min 0,0 UV-I 0 W/m 6,0 C -1,2 C 37,0 km/h (5 Bft)
12.01.2023 22:09 7,4 C 6,7 C 91 % 1009,7 hPa 0,0 l/m 25,1 km/h (4 Bft) S 182 0 min 0,0 UV-I 0 W/m 6,0 C -1,7 C 37,0 km/h (5 Bft)
12.01.2023 22:12 7,4 C 6,7 C 91 % 1009,6 hPa 0,0 l/m 28,6 km/h (4 Bft) SW 214 0 min 0,0 UV-I 0 W/m 6,0 C -2,7 C 45,1 km/h (6 Bft)
12.01.2023 22:15 7,4 C 6,7 C 91 % 1009,7 hPa 0,2 l/m 25,8 km/h (4 Bft) SW 219 0 min 0,0 UV-I 0 W/m 6,0 C -1,9 C 38,6 km/h (5 Bft)
12.01.2023 22:18 7,4 C 6,7 C 91 % 1009,8 hPa 0,0 l/m 29,7 km/h (5 Bft) S-SW 205 0 min 0,0 UV-I 0 W/m 6,0 C -2,9 C 43,5 km/h (6 Bft)
12.01.2023 22:21 7,4 C 6,7 C 91 % 1009,7 hPa 0,2 l/m 29,2 km/h (5 Bft) SW 214 0 min 0,0 UV-I 0 W/m 6,0 C -2,8 C 45,1 km/h (6 Bft)
12.01.2023 22:24 7,4 C 6,7 C 91 % 1009,9 hPa 0,0 l/m 30,1 km/h (5 Bft) S 173 0 min 0,0 UV-I 0 W/m 6,0 C -3,0 C 45,1 km/h (6 Bft)
12.01.2023 22:27 7,4 C 6,7 C 91 % 1009,7 hPa 0,2 l/m 30,7 km/h (5 Bft) S 189 0 min 0,0 UV-I 0 W/m 6,0 C -3,2 C 51,5 km/h (7 Bft)
12.01.2023 22:30 7,4 C 6,7 C 91 % 1009,8 hPa 0,0 l/m 26,0 km/h (4 Bft) S 187 0 min 0,0 UV-I 0 W/m 6,0 C -2,0 C 38,6 km/h (5 Bft)
12.01.2023 22:33 7,4 C 6,7 C 91 % 1009,8 hPa 0,0 l/m 23,1 km/h (4 Bft) S 177 0 min 0,0 UV-I 0 W/m 6,0 C -1,1 C 38,6 km/h (5 Bft)
12.01.2023 22:36 7,4 C 6,7 C 92 % 1009,7 hPa 0,2 l/m 28,9 km/h (5 Bft) S-SW 200 0 min 0,0 UV-I 0 W/m 6,2 C -2,7 C 48,3 km/h (6 Bft)
12.01.2023 22:39 7,4 C 6,7 C 92 % 1009,8 hPa 0,0 l/m 30,5 km/h (5 Bft) S 182 0 min 0,0 UV-I 0 W/m 6,2 C -3,1 C 49,9 km/h (6 Bft)
12.01.2023 22:42 7,4 C 6,7 C 92 % 1009,7 hPa 0,2 l/m 27,3 km/h (4 Bft) S-SW 198 0 min 0,0 UV-I 0 W/m 6,2 C -2,3 C 43,5 km/h (6 Bft)
12.01.2023 22:45 7,4 C 6,7 C 92 % 1009,9 hPa 0,0 l/m 28,2 km/h (4 Bft) S 189 0 min 0,0 UV-I 0 W/m 6,2 C -2,6 C 43,5 km/h (6 Bft)
12.01.2023 22:48 7,4 C 6,7 C 92 % 1009,8 hPa 0,0 l/m 26,4 km/h (4 Bft) S-SW 199 0 min 0,0 UV-I 0 W/m 6,2 C -2,1 C 38,6 km/h (5 Bft)
12.01.2023 22:51 7,4 C 6,7 C 92 % 1009,8 hPa 0,2 l/m 26,9 km/h (4 Bft) S-SW 198 0 min 0,0 UV-I 0 W/m 6,2 C -2,2 C 45,1 km/h (6 Bft)
12.01.2023 22:54 7,4 C 6,7 C 92 % 1009,7 hPa 0,0 l/m 23,7 km/h (4 Bft) S 182 0 min 0,0 UV-I 0 W/m 6,2 C -1,3 C 35,4 km/h (5 Bft)
12.01.2023 22:57 7,4 C 6,7 C 92 % 1009,7 hPa 0,0 l/m 25,9 km/h (4 Bft) S 190 0 min 0,0 UV-I 0 W/m 6,2 C -1,9 C 46,7 km/h (6 Bft)
12.01.2023 23:00 7,4 C 6,7 C 92 % 1009,8 hPa 0,0 l/m 25,1 km/h (4 Bft) S-SW 213 0 min 0,0 UV-I 0 W/m 6,2 C -1,7 C 46,7 km/h (6 Bft)
12.01.2023 23:03 7,5 C 6,7 C 92 % 1009,6 hPa 0,0 l/m 22,8 km/h (4 Bft) S-SW 200 0 min 0,0 UV-I 0 W/m 6,3 C -0,9 C 40,2 km/h (6 Bft)
12.01.2023 23:06 7,5 C 6,7 C 92 % 1009,7 hPa 0,2 l/m 24,1 km/h (4 Bft) S-SW 207 0 min 0,0 UV-I 0 W/m 6,3 C -1,3 C 41,8 km/h (6 Bft)
12.01.2023 23:09 7,5 C 6,7 C 92 % 1009,6 hPa 0,0 l/m 26,5 km/h (4 Bft) SW 233 0 min 0,0 UV-I 0 W/m 6,3 C -2,0 C 45,1 km/h (6 Bft)
12.01.2023 23:12 7,5 C 6,7 C 92 % 1009,7 hPa 0,0 l/m 24,8 km/h (4 Bft) S-SW 209 0 min 0,0 UV-I 0 W/m 6,3 C -1,5 C 41,8 km/h (6 Bft)
12.01.2023 23:15 7,6 C 6,7 C 92 % 1009,6 hPa 0,0 l/m 22,6 km/h (4 Bft) S 188 0 min 0,0 UV-I 0 W/m 6,4 C -0,7 C 35,4 km/h (5 Bft)
12.01.2023 23:18 7,5 C 6,7 C 92 % 1009,5 hPa 0,0 l/m 26,5 km/h (4 Bft) S-SW 212 0 min 0,0 UV-I 0 W/m 6,3 C -2,0 C 41,8 km/h (6 Bft)
12.01.2023 23:21 7,5 C 6,7 C 92 % 1009,5 hPa 0,0 l/m 26,6 km/h (4 Bft) S 176 0 min 0,0 UV-I 0 W/m 6,3 C -2,0 C 43,5 km/h (6 Bft)
12.01.2023 23:24 7,6 C 6,7 C 92 % 1009,6 hPa 0,2 l/m 23,1 km/h (4 Bft) S-SW 202 0 min 0,0 UV-I 0 W/m 6,4 C -0,9 C 33,8 km/h (5 Bft)
12.01.2023 23:27 7,6 C 6,7 C 92 % 1009,5 hPa 0,0 l/m 26,7 km/h (4 Bft) S-SW 207 0 min 0,0 UV-I 0 W/m 6,4 C -1,9 C 40,2 km/h (6 Bft)
12.01.2023 23:30 7,5 C 6,7 C 92 % 1009,5 hPa 0,0 l/m 25,2 km/h (4 Bft) S 178 0 min 0,0 UV-I 0 W/m 6,3 C -1,6 C 37,0 km/h (5 Bft)
12.01.2023 23:33 7,6 C 6,7 C 92 % 1009,6 hPa 0,2 l/m 28,9 km/h (5 Bft) S 184 0 min 0,0 UV-I 0 W/m 6,4 C -2,5 C 46,7 km/h (6 Bft)
12.01.2023 23:36 7,6 C 6,7 C 92 % 1009,5 hPa 0,0 l/m 27,7 km/h (4 Bft) S-SW 198 0 min 0,0 UV-I 0 W/m 6,4 C -2,2 C 40,2 km/h (6 Bft)
12.01.2023 23:39 7,6 C 6,7 C 92 % 1009,7 hPa 0,2 l/m 24,9 km/h (4 Bft) S 190 0 min 0,0 UV-I 0 W/m 6,4 C -1,4 C 37,0 km/h (5 Bft)
12.01.2023 23:42 7,6 C 6,7 C 92 % 1009,7 hPa 0,0 l/m 25,1 km/h (4 Bft) S 180 0 min 0,0 UV-I 0 W/m 6,4 C -1,4 C 41,8 km/h (6 Bft)
12.01.2023 23:45 7,6 C 6,7 C 92 % 1009,5 hPa 0,0 l/m 26,1 km/h (4 Bft) S-SW 202 0 min 0,0 UV-I 0 W/m 6,4 C -1,7 C 41,8 km/h (6 Bft)
12.01.2023 23:48 7,6 C 6,7 C 92 % 1009,5 hPa 0,0 l/m 27,5 km/h (4 Bft) S-SW 199 0 min 0,0 UV-I 0 W/m 6,4 C -2,1 C 38,6 km/h (5 Bft)
12.01.2023 23:51 7,6 C 6,7 C 92 % 1009,5 hPa 0,0 l/m 23,9 km/h (4 Bft) S 184 0 min 0,0 UV-I 0 W/m 6,4 C -1,1 C 40,2 km/h (6 Bft)
12.01.2023 23:54 7,6 C 6,7 C 92 % 1009,7 hPa 0,2 l/m 25,7 km/h (4 Bft) S-SW 203 0 min 0,0 UV-I 0 W/m 6,4 C -1,6 C 40,2 km/h (6 Bft)
12.01.2023 23:57 7,6 C 6,7 C 92 % 1009,7 hPa 0,0 l/m 23,6 km/h (4 Bft) S 170 0 min 0,0 UV-I 0 W/m 6,4 C -1,0 C 30,6 km/h (5 Bft)
12.01.2023 23:58 7,6 C 6,7 C 92 % 1009,7 hPa 0,0 l/m 20,9 km/h (4 Bft) S-SW 202 0 min 0,0 UV-I 0 W/m 6,4 C -0,1 C 25,7 km/h (4 Bft)
12.01.2023 23:59 7,6 C 6,7 C 92 % 1009,6 hPa 0,2 l/m 24,1 km/h (4 Bft) S 180 0 min 0,0 UV-I 0 W/m 6,4 C -1,2 C 38,6 km/h (5 Bft)
_ Min-Zeit 00:00 00:00 00:00 23:18 - 02:19 - - - - - 00:00 07:17 03:54
Minimum _ 5,5 C 4,4 C 89 % 1009,5 hPa - 17,7 km/h (3 Bft) - - - - - 3,8 C -7,6 C 20,9 km/h (4 Bft)
_ Max-Zeit 15:54 12:00 19:09 00:00 00:12 07:17 - - 00:00 00:00 13:51 23:15 15:12 09:48
Maximum _ 7,7 C 6,7 C 92 % 1016,4 hPa 0,2 l/m 41,8 km/h
S-SW (6 Bft)
- - 0 min 0,0 UV-I 67 W/m 6,4 C 0,5 C 66,0 km/h
S-SO (8 Bft)
Durchschnitt _ 6,7 C 5,9 C 91 % 1012,5 hPa #18,2 l/m 27,2 km/h (4 Bft) S - #0 min. 0,0 UV-I 28 W/m 5,3 C -3,1 C 42,4 km/h (6 Bft)